[[{"header":{"parameterUnit":"m.s-1","parameterCategory":1,"la1":30.6,"la2":28.766,"lo1":-90.7593,"lo2":-88.6598,"dx":0.0162,"dy":0.0183,"nx":116,"ny":114,"refTime":"2022-12-12T18:00:00:Z","depth":0,"parameterNumber":2,"parameterNumberName":"U-component_of_WINDS"},"data":[0.0,0.0,0.0,0.0,0.0,0.0,0.0,0.0,0.0,0.0,0.0,0.0,0.0,0.0,0.0,0.0,0.0,0.0,0.0,0.0,0.0,0.0,0.0,0.0,0.0,0.0,0.0,0.0,0.0,0.0,0.0,0.0,0.0,0.0,0.0,0.0,0.0,0.0,0.0,0.0,0.0,0.0,0.0,0.0,0.0,0.0,0.0,0.0,0.0,0.0,0.0,0.0,0.0,0.0,0.0,0.0,0.0,0.0,0.0,0.0,0.0,0.0,0.0,0.0,0.0,0.0,0.0,0.0,0.0,0.0,0.0,0.0,0.0,0.0,0.0,0.0,0.0,0.0,0.0,0.0,0.0,0.0,0.0,0.0,0.0,0.0,0.0,0.0,0.0,0.0,0.0,0.0,0.0,0.0,0.0,0.0,0.0,0.0,0.0,0.0,0.0,0.0,0.0,0.0,0.0,0.0,0.0,0.0,0.0,0.0,0.0,0.0,0.0,0.0,0.0,0.0,0.0,0.0,0.0,0.0,0.0,0.0,0.0,0.0,0.0,0.0,0.0,0.0,0.0,0.0,0.0,0.0,0.0,0.0,0.0,0.0,0.0,0.0,0.0,0.0,0.0,0.0,0.0,0.0,0.0,0.0,0.0,0.0,0.0,0.0,0.0,0.0,0.0,0.0,0.0,0.0,0.0,0.0,0.0,0.0,0.0,0.0,0.0,0.0,0.0,0.0,0.0,0.0,0.0,0.0,0.0,0.0,0.0,0.0,0.0,0.0,0.0,0.0,0.0,0.0,0.0,0.0,0.0,0.0,0.0,0.0,0.0,0.0,0.0,0.0,0.0,0.0,0.0,0.0,0.0,0.0,0.0,0.0,0.0,0.0,0.0,0.0,0.0,0.0,0.0,0.0,0.0,0.0,0.0,0.0,0.0,0.0,0.0,0.0,0.0,0.0,0.0,0.0,0.0,0.0,0.0,0.0,0.0,0.0,0.0,0.0,0.0,0.0,0.0,0.0,0.0,0.0,0.0,0.0,0.0,0.0,0.0,0.0,0.0,0.0,0.0,0.0,0.0,0.0,0.0,0.0,0.0,0.0,0.0,0.0,0.0,0.0,0.0,0.0,0.0,0.0,0.0,0.0,0.0,0.0,0.0,0.0,0.0,0.0,0.0,0.0,0.0,0.0,0.0,0.0,0.0,0.0,0.0,0.0,0.0,0.0,0.0,0.0,0.0,0.0,0.0,0.0,0.0,0.0,0.0,0.0,0.0,0.0,0.0,0.0,0.0,0.0,0.0,0.0,0.0,0.0,0.0,0.0,0.0,0.0,0.0,0.0,0.0,0.0,0.0,0.0,0.0,0.0,0.0,0.0,0.0,0.0,0.0,0.0,0.0,0.0,0.0,0.0,0.0,0.0,0.0,0.0,0.0,0.0,0.0,0.0,0.0,0.0,0.0,0.0,0.0,0.0,0.0,0.0,0.0,0.0,0.0,0.0,0.0,0.0,0.0,0.0,0.0,0.0,0.0,0.0,0.0,0.0,0.0,0.0,0.0,0.0,0.0,0.0,0.0,0.0,0.0,0.0,0.0,0.0,0.0,0.0,0.0,0.0,0.0,0.0,0.0,0.0,0.0,0.0,0.0,0.0,0.0,0.0,0.0,0.0,0.0,0.0,0.0,0.0,0.0,0.0,0.0,0.0,0.0,0.0,0.0,0.0,0.0,0.0,0.0,0.0,0.0,0.0,0.0,0.0,0.0,0.0,0.0,0.0,0.0,0.0,0.0,0.0,0.0,0.0,0.0,0.0,0.0,0.0,0.0,0.0,0.0,0.0,0.0,0.0,0.0,0.0,0.0,0.0,0.0,0.0,0.0,0.0,0.0,0.0,0.0,0.0,0.0,0.0,0.0,0.0,0.0,0.0,0.0,0.0,0.0,0.0,0.0,0.0,0.0,0.0,0.0,0.0,0.0,0.0,0.0,0.0,0.0,0.0,0.0,0.0,0.0,0.0,0.0,0.0,0.0,0.0,0.0,0.0,0.0,0.0,0.0,0.0,0.0,0.0,0.0,0.0,0.0,0.0,0.0,0.0,0.0,0.0,0.0,0.0,0.0,0.0,0.0,0.0,0.0,0.0,0.0,0.0,0.0,0.0,0.0,0.0,0.0,0.0,0.0,0.0,0.0,0.0,0.0,0.0,0.0,0.0,0.0,0.0,0.0,0.0,0.0,0.0,0.0,0.0,0.0,0.0,0.0,0.0,0.0,0.0,0.0,0.0,0.0,0.0,0.0,0.0,0.0,0.0,0.0,0.0,0.0,0.0,0.0,0.0,0.0,0.0,0.0,0.0,0.0,0.0,0.0,0.0,0.0,0.0,0.0,0.0,0.0,0.0,0.0,0.0,0.0,0.0,0.0,0.0,0.0,0.0,0.0,0.0,0.0,0.0,0.0,0.0,0.0,0.0,0.0,0.0,0.0,0.0,0.0,0.0,0.0,0.0,0.0,0.0,0.0,0.0,0.0,0.0,0.0,0.0,0.0,0.0,0.0,0.0,0.0,0.0,0.0,0.0,0.0,0.0,0.0,0.0,0.0,0.0,0.0,0.0,0.0,0.0,0.0,0.0,0.0,0.0,0.0,0.0,0.0,0.0,0.0,0.0,0.0,0.0,0.0,0.0,0.0,0.0,0.0,0.0,0.0,0.0,0.0,0.0,0.0,0.0,0.0,0.0,0.0,0.0,0.0,0.0,0.0,0.0,0.0,0.0,0.0,0.0,0.0,0.0,0.0,0.0,0.0,0.0,0.0,0.0,0.0,0.0,0.0,0.0,0.0,0.0,0.0,0.0,0.0,0.0,0.0,0.0,0.0,0.0,0.0,0.0,0.0,0.0,0.0,0.0,0.0,0.0,0.0,0.0,0.0,0.0,0.0,0.0,0.0,0.0,0.0,0.0,0.0,0.0,0.0,0.0,0.0,0.0,0.0,0.0,0.0,0.0,0.0,0.0,0.0,0.0,0.0,0.0,0.0,0.0,0.0,0.0,0.0,0.0,0.0,0.0,0.0,0.0,0.0,0.0,0.0,0.0,0.0,0.0,0.0,0.0,0.0,0.0,0.0,0.0,0.0,0.0,0.0,0.0,0.0,0.0,0.0,0.0,0.0,0.0,0.0,0.0,0.0,0.0,0.0,0.0,0.0,0.0,0.0,0.0,0.0,0.0,0.0,0.0,0.0,0.0,0.0,0.0,0.0,0.0,0.0,0.0,0.0,0.0,0.0,0.0,0.0,0.0,0.0,0.0,0.0,0.0,0.0,0.0,0.0,0.0,0.0,0.0,0.0,0.0,0.0,0.0,0.0,0.0,0.0,0.0,0.0,0.0,0.0,0.0,0.0,0.0,0.0,0.0,0.0,0.0,0.0,0.0,0.0,0.0,0.0,0.0,0.0,0.0,0.0,0.0,0.0,0.0,0.0,0.0,0.0,0.0,0.0,0.0,0.0,0.0,0.0,0.0,0.0,0.0,0.0,0.0,0.0,0.0,0.0,0.0,0.0,0.0,0.0,0.0,0.0,0.0,0.0,0.0,0.0,0.0,0.0,0.0,0.0,0.0,0.0,0.0,0.0,0.0,0.0,0.0,0.0,0.0,0.0,0.0,0.0,0.0,0.0,0.0,0.0,0.0,0.0,0.0,0.0,0.0,0.0,0.0,0.0,0.0,0.0,0.0,0.0,0.0,0.0,0.0,0.0,0.0,0.0,0.0,0.0,0.0,0.0,0.0,0.0,0.0,0.0,0.0,0.0,0.0,0.0,0.0,0.0,0.0,0.0,0.0,0.0,0.0,0.0,0.0,0.0,0.0,0.0,0.0,0.0,0.0,0.0,0.0,0.0,0.0,0.0,0.0,0.0,0.0,0.0,0.0,0.0,0.0,0.0,0.0,0.0,0.0,0.0,0.0,0.0,0.0,0.0,0.0,0.0,0.0,0.0,0.0,0.0,0.0,0.0,0.0,0.0,0.0,0.0,0.0,0.0,0.0,0.0,0.0,0.0,0.0,0.0,0.0,0.0,0.0,0.0,0.0,0.0,0.0,0.0,0.0,0.0,0.0,0.0,0.0,0.0,0.0,0.0,0.0,0.0,0.0,0.0,0.0,0.0,0.0,0.0,0.0,0.0,0.0,0.0,0.0,0.0,0.0,0.0,0.0,0.0,0.0,0.0,0.0,0.0,0.0,0.0,0.0,0.0,0.0,0.0,0.0,0.0,0.0,0.0,0.0,0.0,0.0,0.0,0.0,0.0,0.0,0.0,0.0,0.0,0.0,0.0,0.0,0.0,0.0,0.0,0.0,0.0,0.0,0.0,0.0,0.0,0.0,0.0,0.0,0.0,0.0,0.0,0.0,0.0,0.0,0.0,0.0,0.0,0.0,0.0,0.0,0.0,0.0,0.0,0.0,0.0,0.0,0.0,0.0,0.0,0.0,0.0,0.0,0.0,0.0,0.0,0.0,0.0,0.0,0.0,0.0,0.0,0.0,0.0,0.0,0.0,0.0,0.0,0.0,0.0,0.0,0.0,0.0,0.0,0.0,0.0,0.0,0.0,0.0,0.0,0.0,0.0,0.0,0.0,0.0,0.0,0.0,0.0,0.0,0.0,0.0,0.0,0.0,0.0,0.0,0.0,0.0,0.0,0.0,0.0,0.0,0.0,0.0,0.0,0.0,0.0,0.0,0.0,0.0,0.0,0.0,0.0,0.0,0.0,0.0,0.0,0.0,0.0,0.0,0.0,0.0,0.0,0.0,0.0,0.0,0.0,0.0,0.0,0.0,0.0,0.0,0.0,0.0,0.0,0.0,0.0,0.0,0.0,0.0,0.0,0.0,0.0,0.0,0.0,0.0,0.0,0.0,0.0,0.0,0.0,0.0,0.0,0.0,0.0,0.0,0.0,0.0,0.0,0.0,0.0,0.0,0.0,0.0,0.0,0.0,0.0,0.0,0.0,0.0,0.0,0.0,0.0,0.0,0.0,0.0,0.0,0.0,0.0,0.0,0.0,0.0,0.0,0.0,0.0,0.0,0.0,0.0,0.0,0.0,0.0,0.0,0.0,0.0,0.0,0.0,0.0,0.0,0.0,0.0,0.0,0.0,0.0,0.0,0.0,0.0,0.0,0.0,0.0,0.0,0.0,0.0,0.0,0.0,0.0,0.0,0.0,0.0,0.0,0.0,0.0,0.0,0.0,0.0,0.0,0.0,0.0,0.0,0.0,0.0,0.0,0.0,0.0,0.0,0.0,0.0,0.0,0.0,0.0,0.0,0.0,0.0,0.0,0.0,0.0,0.0,0.0,0.0,0.0,0.0,0.0,0.0,0.0,0.0,0.0,0.0,0.0,0.0,0.0,0.0,0.0,0.0,0.0,0.0,0.0,0.0,0.0,0.0,0.0,0.0,0.0,0.0,0.0,0.0,0.0,0.0,0.0,0.0,0.0,0.0,0.0,0.0,0.0,0.0,0.0,0.0,0.0,0.0,0.0,0.0,0.0,0.0,0.0,0.0,0.0,0.0,0.0,0.0,0.0,0.0,0.0,0.0,0.0,0.0,0.0,0.0,0.0,0.0,0.0,0.0,0.0,0.0,0.0,0.0,0.0,0.0,0.0,0.0,0.0,0.0,0.0,0.0,0.0,0.0,0.0,0.0,0.0,0.0,0.0,0.0,0.0,0.0,0.0,0.0,0.0,0.0,0.0,0.0,0.0,0.0,0.0,0.0,0.0,0.0,0.0,0.0,0.0,0.0,0.0,0.0,0.0,0.0,0.0,0.0,0.0,0.0,0.0,0.0,0.0,0.0,0.0,0.0,0.0,0.0,0.0,0.0,0.0,0.0,0.0,0.0,0.0,0.0,0.0,0.0,0.0,0.0,0.0,0.0,0.0,0.0,0.0,0.0,0.0,0.0,0.0,0.0,0.0,0.0,0.0,0.0,0.0,0.0,0.0,0.0,0.0,0.0,0.0,0.0,0.0,0.0,0.0,0.0,0.0,0.0,0.0,0.0,0.0,0.0,0.0,0.0,0.0,0.0,0.0,0.0,0.0,0.0,0.0,0.0,0.0,0.0,0.0,0.0,2.2178,2.0669,0.0,0.0,0.0,0.0,0.0,0.0,0.0,0.0,0.0,0.0,0.0,0.0,0.0,0.0,0.0,0.0,0.0,0.0,0.0,0.0,0.0,0.0,0.0,0.6868,0.7031,0.707,0.7031,0.0,0.0,0.0,0.0,0.0,0.0,0.0,0.0,0.0,0.9014,1.0046,1.0847,1.2209,1.4035,1.3427,1.3011,1.2869,0.0,0.0,0.0,0.0,0.0,0.0,0.0,0.0,0.0,0.0,0.0,0.0,0.0,0.0,0.0,0.0,0.0,0.0,0.0,0.0,0.0,0.0,0.0,0.0,0.0,0.0,0.0,0.0,0.0,0.0,0.0,0.0,0.0,0.0,0.0,0.0,0.0,0.0,0.0,0.0,0.0,0.0,0.0,0.0,0.0,0.0,0.0,0.0,0.0,0.0,0.0,0.0,0.0,0.0,0.0,0.0,0.0,0.0,0.0,0.0,0.0,0.0,0.0,0.0,0.0,0.0,0.0,0.0,0.0,0.0,2.4442,2.2701,0.0,0.0,0.0,0.0,0.0,0.0,0.0,0.0,0.0,0.0,0.0,0.0,0.0,0.0,0.0,0.0,0.0,0.0,0.0,0.0,0.0,0.7174,0.7342,0.7727,0.8013,0.8154,0.8108,0.8108,0.8177,0.8081,0.0,0.0,0.0,0.0,0.0,0.9592,1.0711,1.149,1.3214,1.4752,1.611,1.715,1.6986,1.583,1.5378,0.0,0.0,0.0,0.0,0.0,0.0,0.0,0.0,0.0,0.0,0.0,0.0,0.0,0.0,0.0,0.0,0.0,0.0,0.0,0.0,0.0,0.0,0.0,0.0,0.0,0.0,0.0,0.0,0.0,0.0,0.0,0.0,0.0,0.0,0.0,0.0,0.0,0.0,0.0,0.0,0.0,0.0,0.0,0.0,0.0,0.0,0.0,0.0,0.0,0.0,0.0,0.0,0.0,0.0,0.0,0.0,0.0,0.0,0.0,0.0,0.0,0.0,0.0,2.7665,2.8565,2.9203,2.9726,3.0016,2.9958,2.6649,2.4965,2.453,2.4007,0.0,0.0,0.0,0.0,0.0,0.0,0.0,0.0,0.0,0.0,0.0,0.0,0.0,0.0,0.0,0.0,0.0,0.0,0.0,0.7437,0.8299,0.8514,0.8753,0.9179,0.9255,0.9281,0.9281,0.885,0.0,0.0,0.0,0.0,0.9281,1.0797,1.2187,1.3538,1.6498,1.8097,1.8389,1.9655,2.0112,1.9815,1.7684,1.6313,1.5595,0.0,0.0,0.0,0.0,0.0,0.0,0.0,0.0,0.0,0.0,0.0,0.0,0.0,0.0,0.0,0.0,0.0,0.0,0.0,0.0,0.0,0.0,0.0,0.0,0.0,0.0,0.0,0.0,0.0,0.0,0.0,0.0,0.0,0.0,0.0,0.0,0.0,0.0,0.0,0.0,0.0,1.7349,1.8584,0.0,0.0,0.0,0.0,0.0,0.0,0.0,0.0,0.0,0.0,0.0,0.0,0.0,2.5865,2.7031,2.781,2.8507,2.9116,2.9842,3.0539,3.1148,3.1235,3.1584,3.2077,3.0974,0.0,2.72,2.7089,0.0,0.0,0.0,0.0,0.0,0.0,0.0,0.0,0.0,0.0,0.0,0.0,0.0,0.0,0.0,0.0,0.0,0.0,0.0,0.0,0.0,0.9873,1.0522,1.0762,1.0786,1.0786,1.0846,1.0341,0.0,0.0,0.0,1.0606,1.0846,1.2539,1.4466,1.6609,1.8446,1.9764,2.0481,2.1139,2.16,2.1859,2.046,1.9008,1.757,1.757,0.0,0.0,0.0,0.0,0.0,0.0,0.0,0.0,0.0,0.0,0.0,0.0,0.0,0.0,0.0,0.0,0.0,0.0,0.0,0.0,0.0,0.0,0.0,0.0,0.0,0.0,0.0,0.0,0.0,0.0,0.0,0.0,0.0,0.0,0.0,0.0,0.0,0.0,0.0,1.7876,1.8898,2.0483,2.0727,2.1075,0.0,0.0,0.0,0.0,0.0,0.0,0.0,0.0,0.0,2.6997,2.7607,2.8565,2.9842,3.0132,3.0597,3.1264,3.1903,3.2542,3.3151,3.3529,3.4022,3.4603,3.3964,3.2832,3.138,2.9929,2.9,2.8448,0.0,0.0,0.0,0.0,2.6997,2.7055,0.0,0.0,0.0,0.0,0.0,0.0,0.0,0.0,0.0,0.0,0.0,0.0,1.0159,1.1312,1.2125,1.2447,1.2471,1.2471,1.2516,1.2001,1.1712,1.1712,1.2106,1.2358,1.2436,1.4514,1.6855,1.9421,2.0223,2.1239,2.2336,2.2598,2.2962,2.3351,2.2933,2.157,1.9631,1.9458,1.8358,1.678,0.0,0.0,0.0,0.0,0.0,0.0,0.0,0.0,0.0,0.0,0.0,0.0,0.0,0.0,0.0,0.0,0.0,0.0,0.0,0.0,0.0,0.0,0.0,0.0,0.0,0.0,0.0,0.0,0.0,0.0,0.0,0.0,0.0,0.0,0.0,0.0,0.0,1.9701,2.0553,2.2497,2.273,2.3049,0.0,0.0,0.0,0.0,0.0,0.0,2.5988,2.7697,2.8913,2.9377,3.0016,3.0974,3.2251,3.2251,3.2687,3.3499,3.3964,3.4428,3.4922,3.5386,3.588,3.6286,3.5822,3.5328,3.4719,3.2309,3.1206,3.1032,3.0539,3.0364,3.0306,2.9842,2.9668,2.9755,0.0,0.0,0.0,0.0,0.0,0.0,0.0,0.0,0.0,0.0,0.0,1.0159,1.2128,1.2543,1.3022,1.3911,1.4101,1.418,1.418,1.3674,1.3385,1.3385,1.3409,1.3594,1.3982,1.6644,1.9154,2.144,2.2246,2.3045,2.3804,2.4413,2.4655,2.4684,2.4655,2.3583,2.1801,2.1162,2.0107,1.8844,1.8844,0.0,0.0,0.0,0.0,0.0,0.0,0.0,0.0,0.0,0.0,0.0,0.0,0.0,0.0,0.0,0.0,0.0,0.0,0.0,0.0,0.0,0.0,0.0,0.0,0.0,0.0,0.0,0.0,0.0,0.0,0.0,0.0,0.0,0.0,0.0,0.0,0.0,0.0,2.4423,2.4733,0.0,0.0,0.0,0.0,2.7432,2.81,2.8739,2.9348,3.0626,3.1351,3.138,3.2019,3.2977,3.4254,3.4254,3.4893,3.6112,3.6141,3.6199,3.6228,3.6257,3.6286,3.6315,3.6286,3.6257,3.6054,3.4109,3.2977,3.2425,3.2396,3.2367,3.2367,3.2338,3.2338,3.2425,0.0,0.0,0.0,0.6307,0.6307,0.6457,0.6944,0.7612,0.8346,0.9248,1.0558,1.1676,1.2472,1.355,1.4317,1.466,1.4725,1.4766,1.4766,1.4301,1.4012,1.4012,1.4309,1.5159,1.6617,1.8773,2.0662,2.2226,2.2994,2.3952,2.499,2.5727,2.6249,2.652,2.622,2.572,2.4965,2.3049,2.17,2.0889,2.0402,1.9296,0.0,0.0,0.0,0.0,0.0,0.0,0.0,0.0,0.0,0.0,0.0,0.0,0.0,0.0,0.0,0.0,0.0,0.0,0.0,0.0,0.0,0.0,0.0,0.0,0.0,0.0,0.0,0.0,0.0,0.0,0.0,0.0,0.0,0.0,0.0,0.0,0.0,2.7026,2.7316,0.0,2.9087,2.9232,2.9319,2.9552,3.0161,3.0597,3.0829,3.2454,3.3383,3.3383,3.4399,3.5183,3.5619,3.5619,3.5851,3.6315,3.6315,3.6548,3.6954,3.6954,3.7389,3.8144,3.7709,3.7767,3.8086,3.6983,3.5909,3.4951,3.4951,3.4951,3.4951,3.4951,3.4951,3.5038,0.0,0.0,0.0,0.6307,0.6433,0.6701,0.7208,0.8157,0.915,1.0025,1.1557,1.2758,1.3344,1.4533,1.5348,1.5516,1.5708,1.5804,1.5804,1.5512,1.5362,1.5362,1.596,1.7244,1.9189,2.0635,2.2039,2.3464,2.4238,2.52,2.6265,2.706,2.7581,2.7903,2.7552,2.7432,2.7287,2.5139,2.363,2.2585,2.186,2.0963,1.9893,0.0,0.0,0.0,0.0,0.0,0.0,0.0,0.0,0.0,0.0,0.0,0.0,0.0,0.0,0.0,0.0,0.0,0.0,0.0,0.0,0.0,0.0,0.0,0.0,0.0,0.0,0.0,0.0,0.0,0.0,0.0,0.0,0.0,0.0,2.5458,2.6939,2.9058,2.9493,3.0045,3.1119,3.1235,3.1409,3.1845,3.2251,3.2687,3.3122,3.4341,3.5038,3.5038,3.588,3.6519,3.6954,3.6954,3.7157,3.7593,3.7593,3.7825,3.8231,3.8231,3.8725,3.9479,3.9044,3.9102,3.9479,3.9015,3.8347,3.7535,3.7099,3.6954,3.6954,3.6954,3.6954,3.7041,0.0,0.0,0.6307,0.6307,0.6682,0.7188,0.773,0.8677,0.9931,1.1614,1.2281,1.3249,1.4845,1.5492,1.602,1.6524,1.7099,1.7412,1.7412,1.7412,1.7412,1.7412,1.8414,1.9801,2.1452,2.2133,2.3376,2.5218,2.6079,2.687,2.7533,2.8364,2.871,2.871,2.871,2.871,2.8623,2.7374,2.5749,2.3978,2.3235,2.2614,2.1859,0.0,0.0,0.0,0.0,0.0,0.0,0.0,0.0,0.0,0.0,0.0,0.0,0.0,0.0,0.0,0.0,0.0,0.0,0.0,0.0,0.0,0.0,0.0,0.0,0.0,0.0,0.0,0.0,0.0,0.0,0.0,0.0,0.0,2.5981,2.7549,2.9232,3.051,3.1206,3.1845,3.2542,3.26,3.3122,3.437,3.4457,3.5009,3.6228,3.6344,3.6373,3.6373,3.6402,3.7012,3.826,3.826,3.887,4.0089,4.0089,4.0089,4.0089,4.0089,4.0118,4.0118,4.0118,4.0147,4.0147,4.0147,4.0226,4.011,3.8754,3.826,3.826,3.826,3.826,3.8452,0.6307,0.6307,0.6307,0.6307,0.6682,0.7306,0.8181,0.9142,1.0384,1.2035,1.3065,1.4022,1.4917,1.5828,1.6428,1.6618,1.7099,1.7412,1.7412,1.7412,1.7557,1.7964,1.9777,2.0982,2.15,2.3342,2.4775,2.587,2.6711,2.7396,2.8025,2.8944,2.9291,2.9233,2.932,2.9348,2.9319,2.8507,2.7839,2.7171,2.5139,2.3949,2.3252,0.0,0.0,0.0,0.0,0.0,0.0,0.0,0.0,0.0,0.0,0.0,0.0,0.0,0.0,0.0,0.0,0.0,0.0,0.0,0.0,0.0,0.0,0.0,0.0,0.0,0.0,0.0,0.0,0.0,0.0,0.0,2.7607,2.8797,2.8594,2.9813,3.1206,3.2513,3.2832,3.3354,3.4486,3.4574,3.4922,3.5735,3.5793,3.5938,3.6286,3.7186,3.768,3.768,3.858,3.9218,3.9567,3.9567,3.9741,4.0089,4.0089,4.0089,4.0089,4.0089,4.0379,4.0815,4.0815,4.1105,4.1622,4.2208,4.2416,4.2219,4.0295,3.9953,4.0486,4.0486,4.0783,4.1169,0.6307,0.6307,0.6307,0.6307,0.6872,0.759,0.8417,0.9619,1.0987,1.2615,1.3617,1.4468,1.5253,1.6092,1.6714,1.6931,1.7436,1.7845,1.8061,1.8532,1.9133,1.9872,2.143,2.261,2.3335,2.4679,2.5903,2.689,2.7712,2.8312,2.8713,2.9609,2.9957,2.9898,2.9957,3.0016,2.9987,2.9348,2.9087,2.8913,2.7171,2.5894,2.4994,2.4094,2.3368,2.2701,2.2033,2.1801,2.1656,2.0599,0.0,0.0,0.0,0.0,0.0,0.0,0.0,0.0,0.0,0.0,0.0,0.0,0.0,0.0,0.0,0.0,0.0,0.0,0.0,0.0,0.0,0.0,0.0,0.0,2.9581,3.1032,3.1555,3.228,3.3006,3.3761,3.4341,3.4951,3.5677,3.5764,3.6025,3.6664,3.6954,3.7215,3.7506,3.8463,3.8986,3.8986,3.9712,4.0234,4.0525,4.0525,4.0641,4.0931,4.1192,4.1308,4.1308,4.1599,4.1947,4.2295,4.2295,4.2528,4.296,4.3431,4.3567,4.353,0.0,0.0,0.0,0.0,4.3805,4.4109,0.6307,0.6307,0.6307,0.6379,0.7178,0.8015,0.868,1.0035,1.159,1.3273,1.3973,1.4687,1.5684,1.626,1.6763,1.7291,1.7869,1.8473,1.9056,2.0207,2.1303,2.2255,2.3084,2.4251,2.5851,2.6018,2.6722,2.8138,2.8824,2.9315,2.9491,3.0247,3.0568,3.0568,3.0568,3.0568,3.0539,2.9958,2.9726,2.9697,2.9116,2.8129,2.6852,2.5662,2.4849,2.4239,2.3554,2.3264,2.3165,2.2571,0.0,0.0,0.0,0.0,0.0,0.0,0.0,0.0,0.0,0.0,0.0,0.0,0.0,0.0,0.0,0.0,0.0,0.0,0.0,0.0,0.0,0.0,0.0,0.0,3.1526,3.3151,3.4341,3.4661,3.4719,3.4632,3.5619,3.6344,3.6402,3.6489,3.6809,3.7476,3.8086,3.8667,3.9276,3.9886,0.0,0.0,0.0,4.0641,4.1308,4.1308,4.1657,4.2324,4.2847,4.3108,4.3137,4.3718,4.3979,4.3979,4.3979,4.3979,4.3979,4.4237,4.4438,4.4748,4.5373,4.5571,4.5633,4.6374,4.659,4.6559,0.6307,0.6307,0.6427,0.6878,0.7416,0.8252,0.96,1.0511,1.17,1.3697,1.4149,1.4687,1.5684,1.626,1.662,1.6762,1.7652,1.8627,1.9554,2.1094,2.2103,2.2305,2.3834,2.5043,2.5879,2.6551,2.7485,2.8703,2.9142,2.9635,3.0125,3.045,3.0568,3.0568,3.0568,3.0568,3.0568,3.0451,3.0393,3.0393,3.0248,2.9435,2.8245,2.7461,2.7084,2.691,2.6271,2.5691,2.5188,2.4993,2.4566,2.4044,2.3387,2.2682,0.0,0.0,0.0,0.0,0.0,0.0,0.0,0.0,0.0,0.0,0.0,0.0,0.0,0.0,0.0,0.0,0.0,0.0,0.0,3.1845,3.3122,3.4312,3.5067,3.6083,3.6548,3.5996,3.617,3.6519,3.707,3.7564,3.8115,3.8783,3.9392,3.9799,3.9915,4.0554,4.0902,4.0902,4.1424,4.2005,4.2615,4.2615,4.2963,4.3631,4.3747,0.0,4.3805,4.3921,4.3979,4.3979,4.3979,4.3979,4.4065,4.5462,4.7136,4.8694,4.6253,4.5281,4.5393,4.6211,4.648,4.6638,0.6604,0.6448,0.6475,0.7022,0.753,0.8275,0.961,1.0522,1.1599,1.3177,1.3924,1.459,1.5301,1.5876,1.6284,1.6548,1.7824,1.8958,1.9759,2.1659,2.292,2.3174,2.4679,2.5879,2.6807,2.7258,2.8137,2.9505,2.9686,2.9978,3.0447,3.0568,3.0568,3.0568,3.0568,3.0568,3.0568,3.0568,3.0568,3.0568,3.0568,3.019,2.9552,2.8913,2.8477,2.8158,2.7839,2.752,2.7195,2.6784,2.6238,2.5638,2.4988,2.4102,2.329,0.0,0.0,0.0,0.0,0.0,0.0,0.0,0.0,0.0,0.0,0.0,0.0,0.0,0.0,2.9348,2.9987,0.0,3.2716,3.3354,3.4254,3.5212,3.6199,3.7157,3.7506,3.6896,3.736,3.7883,3.8231,3.8812,3.9305,3.9625,4.0234,4.0583,4.0583,4.1221,4.1744,4.2034,4.2382,4.2847,4.3485,4.3485,4.366,4.3979,4.4298,4.4443,4.4443,4.4792,4.4937,4.4937,4.4937,4.5172,4.5664,4.6924,4.8195,4.9111,4.7456,4.7446,4.8247,4.8716,4.8871,4.8871,0.724,0.6847,0.6675,0.7227,0.776,0.8488,0.9499,1.0485,1.1471,1.2565,1.3529,1.4333,1.4941,1.5396,1.59,1.6524,1.8064,1.9246,1.976,2.2096,2.3616,2.4053,2.5233,2.6497,2.7734,2.782,2.8559,3.0111,3.0111,3.0294,3.0568,3.0568,3.0568,3.0568,3.0568,3.0568,3.0568,3.0568,3.0568,3.0568,3.0568,3.0568,3.051,3.0016,2.9493,2.9058,2.9058,2.8971,2.8797,2.8385,2.774,2.7039,2.6484,2.5482,2.4382,2.4316,2.3804,0.0,0.0,0.0,0.0,0.0,0.0,0.0,0.0,2.7113,2.8623,2.9116,3.0248,3.1322,3.1961,3.3035,3.4051,3.469,3.5328,3.6141,3.7302,3.7999,3.826,3.7883,3.8754,3.9363,3.9363,3.9915,4.0292,4.0292,4.0902,4.1337,4.1453,4.1976,4.2557,4.3166,4.3195,4.3515,4.4153,4.4153,4.424,4.4356,4.485,4.5082,4.5111,4.5812,4.6046,4.5895,4.5895,4.6373,4.7276,4.7758,4.8179,4.8512,4.8346,4.9247,5.0679,5.0864,5.094,5.094,0.8405,0.7836,0.7429,0.7976,0.8567,0.9243,1.0081,1.0726,1.1471,1.2565,1.3216,1.3924,1.4893,1.5061,1.5492,1.65,1.8088,1.9211,1.9756,2.2446,2.4053,2.4103,2.5233,2.6497,2.7734,2.7937,2.8649,3.0111,3.0205,3.0387,3.0568,3.0568,3.0568,3.0568,3.0568,3.0568,3.0568,3.0568,3.0568,3.0568,3.0568,3.0568,3.0568,3.048,3.0422,3.0364,3.0364,2.9987,2.9551,2.9977,2.9282,2.8323,2.8234,2.7309,2.6188,2.5725,2.511,2.4568,2.4675,2.5052,2.5604,2.6213,2.7316,2.8245,0.0,2.9726,3.1119,3.1177,3.2251,3.3325,3.3964,3.4661,3.5357,3.5996,3.6664,3.7331,3.7999,3.8667,3.9247,3.9741,3.9915,4.0002,4.0002,4.0583,4.0989,4.0989,4.1599,4.2208,4.276,4.2847,4.3195,4.3863,4.3892,4.4182,4.4792,4.4792,4.5082,4.5663,4.575,4.5779,4.5779,4.6667,4.6609,4.5895,4.5895,4.6373,4.7103,4.6462,4.7103,4.8429,4.7673,4.7927,4.8922,4.9789,5.0026,5.0026,0.9012,0.8927,0.8808,0.8889,0.889,0.9071,0.974,1.0293,1.0918,1.1664,1.2516,1.3336,1.4045,1.4629,1.5301,1.6068,1.7575,1.8726,1.9304,2.1643,2.3343,2.4075,2.4896,2.5936,2.72,2.7257,2.8052,2.9568,2.9628,2.9981,3.0568,3.0568,3.0568,3.0568,3.0568,3.0568,3.0568,3.0568,3.0568,3.0568,3.0568,3.0568,3.0539,3.0161,3.0016,3.0074,3.0451,3.0161,0.0,2.9841,2.9104,2.8018,2.8018,2.7665,2.7225,2.6963,2.6997,2.7171,2.7549,2.7839,2.8187,2.8826,2.9668,3.0335,3.0335,3.1526,3.2745,3.3122,3.3935,3.4777,3.5386,3.5735,3.6112,3.678,3.7418,3.8057,3.8696,3.9654,4.0408,4.0641,4.1018,4.1105,4.0728,4.1279,4.1831,4.2179,4.2469,4.2905,4.3544,4.3573,4.3863,4.4501,4.4501,4.4821,4.5459,4.5459,4.5605,4.5895,4.5895,4.5895,4.5895,4.6314,4.6225,4.5985,4.6462,4.6872,4.7276,4.7958,4.8625,4.9358,4.9439,4.9757,5.0104,4.9947,4.9868,4.9947,0.9784,0.9827,0.981,0.9668,0.9314,0.9143,0.9451,0.998,1.0437,1.0822,1.1808,1.2758,1.3433,1.4405,1.5157,1.554,1.7011,1.813,1.8726,2.0789,2.2496,2.354,2.4474,2.5486,2.6526,2.6722,2.7455,2.8852,2.8911,2.9317,3.0045,3.0219,3.0306,3.0306,3.048,3.0568,3.0568,3.0568,3.0568,3.0568,3.0393,3.0306,3.0248,2.961,2.9348,2.9435,2.9871,2.9755,2.9348,2.9348,2.8623,2.7697,2.7926,2.7868,2.7752,2.7926,2.8448,2.9116,2.9929,3.0132,3.0306,3.0945,3.1584,3.2048,3.2048,3.2919,3.3906,3.4545,3.5038,3.5619,3.6431,3.6577,3.6867,3.7709,3.8202,3.8783,3.9596,4.0525,4.1163,4.1337,4.1947,4.215,4.1657,4.2063,4.2615,4.3224,4.3282,4.3544,4.4211,4.424,4.4531,4.514,4.5169,4.5401,4.5895,4.5895,4.5895,4.5895,4.5895,4.5895,4.5895,4.5895,4.6135,4.6638,4.6784,4.7103,4.7619,4.8708,4.9278,4.9599,5.0182,5.0448,5.0416,5.0026,5.0026,5.0292,1.1045,1.0476,0.9963,1.0241,1.0046,0.979,0.955,0.998,1.0317,1.0341,1.1255,1.2348,1.3385,1.4405,1.5013,1.5037,1.6504,1.7594,1.8105,2.0267,2.1746,2.2226,2.3997,2.5261,2.5907,2.6497,2.723,2.8053,2.8168,2.8369,2.8569,2.932,2.9639,2.9668,3.0306,3.0568,3.0568,3.0568,3.0568,3.051,2.99,2.9639,2.9581,2.8942,2.871,2.871,2.8739,2.871,2.871,2.871,2.8274,2.7839,2.8448,2.8216,2.7839,2.8477,2.9087,2.9871,3.1119,3.1467,3.1613,3.228,3.2948,3.3412,3.3412,3.3906,3.4574,3.5212,3.5427,3.5764,3.7041,3.7273,3.768,3.8957,3.916,3.9596,4.0873,4.1076,4.1337,4.1976,4.2586,4.2963,4.2934,4.2963,4.3253,4.3921,4.395,4.4211,4.4821,4.485,4.5169,4.5837,4.5866,4.5866,4.5895,4.5895,4.5895,4.5895,4.5895,4.5895,4.5895,4.5895,4.6784,4.8346,4.6609,4.6872,4.8429,4.7619,4.7758,4.8594,4.8594,4.8594,4.8677,4.9599,5.0448,5.1016,1.1227,1.0861,1.0521,1.0616,1.0373,1.0148,1.0046,0.9884,0.9881,1.0269,1.1231,0.0,0.0,0.0,0.0,0.0,1.5793,1.6633,1.7587,1.8941,2.0298,2.1663,2.2616,2.3603,2.4695,2.4868,2.5593,2.6748,2.6803,2.7397,2.8511,2.877,2.8943,2.9,2.9232,2.9319,2.9319,2.9319,2.9319,2.929,2.9087,2.9,2.8884,2.7839,2.7432,2.7374,0.0,2.7316,2.8042,2.8042,2.7636,2.72,2.7839,2.8187,2.8652,3.0132,3.1032,3.1729,3.2571,3.2803,3.2977,3.3616,3.4254,3.4923,3.5363,3.5272,3.5536,3.705,3.6681,3.6373,3.768,3.7912,3.8173,3.9073,3.9538,4.0089,4.0989,4.1831,4.244,4.2673,4.3253,4.3805,4.4211,4.3892,4.3921,4.4531,4.4589,4.4879,4.5518,4.5547,4.5663,4.5866,4.5895,4.5895,4.5895,4.5895,4.5895,4.5895,4.5895,4.5895,4.5895,4.5895,4.655,4.7588,4.7046,4.7448,4.8512,4.8872,4.9197,4.9519,5.0104,5.0515,5.1008,5.1275,5.1907,5.2385,1.1353,1.1169,1.0982,1.0863,1.0643,0.0,0.0,0.0,0.0,0.0,0.0,0.0,0.0,0.0,0.0,0.0,0.0,1.5827,1.6741,1.7739,1.8888,2.024,2.098,2.1883,2.2853,2.3151,2.3834,2.5126,2.518,2.5788,2.6992,2.7331,2.7527,2.7581,2.7897,2.8013,2.8013,2.8013,2.839,2.8942,2.8013,2.8071,2.8477,2.6736,2.6097,0.0,2.5604,2.6126,2.7084,2.7316,2.7113,2.6939,2.781,2.8826,3.0016,3.1729,3.2513,3.3006,3.3645,3.379,3.4031,3.4911,3.5448,3.6014,3.6718,3.635,3.6182,3.7425,3.6792,3.6373,3.7651,3.7883,3.8231,3.9334,3.9857,4.0495,4.1628,4.2469,4.3079,4.3311,4.3921,4.4472,4.485,4.4763,4.4821,4.5227,4.5256,4.543,4.5866,4.5895,4.5895,4.5895,4.5895,4.5895,4.5895,4.5895,4.6046,4.6373,4.6373,4.655,4.6784,4.6784,4.7276,4.8126,4.8116,4.8714,4.9864,5.042,5.0866,5.1214,5.1714,5.2203,5.2592,5.2592,5.2916,5.3207,1.1421,1.1399,1.1307,0.0,0.0,0.0,0.0,0.0,0.0,0.0,0.0,0.0,0.0,0.0,0.0,0.0,0.0,0.0,1.5652,1.6741,1.7568,1.8035,1.9193,2.0035,2.0617,2.122,2.2058,2.3142,2.3272,2.3636,2.4226,2.5077,2.5517,2.5545,2.6335,2.6678,2.6678,2.6678,2.7723,2.9174,2.6707,2.6823,2.8216,2.572,2.4742,2.4742,2.4742,2.5168,2.5807,2.6504,2.6794,2.7084,2.8332,3.0045,3.1816,3.3093,3.3499,3.3645,3.4321,3.4496,3.4873,3.6171,3.655,3.6712,3.7364,3.6945,3.6484,3.6477,3.5908,3.5805,3.7012,3.7273,3.7883,3.9712,4.006,4.0757,4.2673,4.2992,4.3282,4.395,4.456,4.4937,4.4937,4.5518,4.5895,4.5895,4.5895,4.5895,4.5895,4.5895,4.5895,4.5895,4.5895,4.5895,4.5895,4.5956,4.6373,4.7189,4.7276,4.7704,4.8512,4.846,4.8984,4.9884,4.9615,5.0586,5.2146,5.1995,5.2475,5.3226,5.3304,5.3337,5.3369,5.3369,5.3402,5.3434,0.0,0.0,0.0,0.0,0.0,0.0,0.0,0.0,0.0,0.0,0.0,0.0,0.0,0.0,0.0,0.0,0.0,0.0,1.5156,1.6132,1.6986,1.7524,1.8234,1.8831,1.9409,1.9593,2.003,2.0753,2.1232,2.1988,2.3103,2.3766,2.4301,2.4812,2.4984,2.5171,2.5221,2.5221,2.5532,2.5959,2.5342,2.5371,2.5691,2.4559,2.4123,2.4123,2.4123,2.4239,2.4559,2.5662,2.6997,2.8332,2.9145,3.0713,3.2425,3.3238,3.379,3.433,3.4978,3.5591,3.6045,3.6387,3.6843,3.7241,3.7375,3.688,3.6537,3.7015,3.6611,3.6212,3.6474,3.6983,3.7622,3.8522,3.9479,4.0612,4.2121,4.3137,4.3979,4.4589,4.5227,4.5634,4.5634,4.5779,4.5895,4.5895,4.5895,4.5895,4.5895,4.5895,4.5895,4.5895,4.5895,4.5895,4.5895,4.655,4.6959,4.7189,4.7843,4.8263,4.8512,4.8304,4.8804,4.9594,4.93,4.9835,5.0944,5.1611,5.2036,5.2281,5.3068,5.3661,5.4114,5.4114,5.4438,5.4891,0.0,0.0,0.0,0.0,0.0,0.0,0.0,0.0,0.0,0.0,0.0,0.0,0.0,0.0,0.0,0.0,0.0,0.0,0.0,1.5264,1.5997,1.6337,1.6804,1.7359,1.7915,1.7941,1.8461,1.9516,1.9764,2.054,2.1712,2.2034,2.2376,2.278,2.2826,2.2873,2.2965,2.2965,2.3472,0.0,0.0,2.3612,2.4297,2.3078,2.2614,2.2672,2.2962,2.3601,2.45,2.5778,2.7316,2.8884,3.0074,3.1409,3.2687,3.3616,3.4138,3.4525,3.5192,3.5919,3.6646,3.7147,3.7546,3.7861,3.7851,3.7122,3.6417,3.6477,3.5971,3.5672,3.6251,3.6693,3.7382,3.8894,3.9668,4.0793,4.2673,4.3595,4.4327,4.5227,4.5663,4.5895,4.5895,4.5895,4.5895,4.5895,4.5895,4.5895,4.5895,4.5895,4.6046,4.6462,4.6135,4.6046,4.6462,4.6959,4.7619,4.8377,4.9151,4.9765,5.0119,5.0351,5.0695,5.114,5.1381,5.1693,5.223,5.3045,5.3451,5.3451,5.3971,5.4503,5.4859,5.4859,5.5086,5.5409,0.0,0.0,0.0,0.0,0.0,0.0,0.0,0.0,0.0,1.229,1.2132,1.2037,1.2077,1.2489,0.0,0.0,0.0,0.0,0.0,0.0,1.4941,1.5013,1.5444,1.5924,1.6452,1.6476,1.719,1.8607,1.8678,1.9193,2.0205,2.0351,2.0429,2.0472,2.0628,2.067,2.0712,2.0684,2.1714,2.323,2.1585,2.1946,2.331,0.0,2.0988,2.1075,2.1743,2.3223,2.4974,2.6358,2.7636,2.9,3.0916,3.199,3.2774,3.4051,3.4399,3.4545,3.5321,3.6141,3.7056,3.8131,3.8546,3.8554,3.8278,3.7305,3.6285,3.5454,3.4905,3.4844,3.5941,3.6224,3.7053,3.9382,3.9824,4.0859,4.3468,4.3847,4.4414,4.5754,4.5927,4.5895,4.5895,4.5895,4.5895,4.5895,4.5956,4.6046,4.5895,4.5956,4.6462,4.7362,4.655,4.6462,4.7362,4.7533,4.8407,5.0026,5.0755,5.1502,5.2365,5.2953,5.3276,5.3229,5.389,5.418,5.4244,5.4906,5.5246,5.5246,5.5328,5.5409,5.5409,5.5409,5.5409,5.5409,0.0,0.0,0.0,0.0,0.0,0.0,0.0,0.0,0.0,0.0,1.3868,1.2788,0.0,0.0,0.0,0.0,0.0,0.0,0.0,0.0,0.0,1.4989,1.5085,1.5396,1.5924,1.5924,1.6065,1.6369,1.7165,1.7888,1.8526,1.9368,1.9982,2.0443,2.0443,2.0543,2.0712,2.0557,2.0926,2.1439,2.1037,2.1137,2.1452,2.1133,0.0,0.0,2.1743,2.3223,2.4974,2.6358,2.7636,2.9,3.0916,3.199,3.2774,3.4051,3.4399,3.468,3.5904,3.7177,3.8196,3.8253,3.8805,3.8873,3.7132,3.6618,3.6098,3.4802,3.4905,3.5133,3.4815,3.5215,3.5926,3.6816,3.7887,3.9501,4.2234,4.296,4.3887,4.5806,4.5962,4.5895,4.5895,4.5895,4.5895,4.5895,4.655,4.6638,4.5985,4.655,4.7362,4.8263,4.7448,4.7362,4.8263,4.9035,4.9882,5.077,5.1563,5.234,5.3064,5.2986,5.2942,5.2974,5.2903,5.2865,5.2953,5.3859,5.4264,5.4348,5.5049,5.5409,5.5409,5.5409,5.5409,5.5409,0.0,0.0,0.0,0.0,0.0,0.0,0.0,1.5702,1.5932,1.6481,1.5612,1.4809,1.4479,1.4175,1.3855,0.0,0.0,0.0,0.0,0.0,0.0,0.0,0.0,0.0,1.5372,1.5898,1.6191,1.6212,0.0,1.7532,1.8061,1.8808,1.9224,1.9417,1.9539,1.9591,1.966,1.9632,1.9752,1.9951,1.994,1.9951,2.0001,0.0,0.0,0.0,2.1365,2.2933,2.5023,2.5952,2.7345,2.9087,3.1322,3.2251,3.2774,3.4051,3.4399,3.47,3.6006,3.7164,3.8049,3.8223,3.862,3.8497,3.6807,3.5852,3.5115,3.4105,3.3908,3.4021,3.4316,3.464,3.5406,3.7152,3.7903,3.9384,4.2517,4.3067,4.3885,4.5853,4.6073,4.6167,4.6521,4.655,4.6784,4.7189,4.7588,4.7533,4.6609,4.7873,4.8594,4.8512,4.8594,4.879,4.9197,5.0056,5.0803,5.1627,5.2792,5.3531,5.392,5.4049,5.4205,5.4205,5.4105,5.4094,5.4094,5.4517,5.4685,5.48,5.5246,5.5409,5.5409,5.5409,5.5409,5.5409,0.0,0.0,0.0,0.0,0.0,0.0,0.0,1.633,1.6551,1.7192,1.7206,1.6956,1.6342,1.5514,1.4884,0.0,0.0,0.0,0.0,0.0,0.0,0.0,0.0,0.0,0.0,0.0,0.0,1.6587,1.7111,0.0,0.0,0.0,0.0,0.0,1.8721,1.8798,1.875,1.8798,1.8874,0.0,0.0,1.9055,0.0,0.0,0.0,0.0,0.0,2.2497,2.4617,2.5487,2.6881,2.871,3.1293,3.228,3.2774,3.4051,3.4399,3.4661,3.5793,3.6806,3.7584,3.8043,3.8404,3.8299,3.6538,3.5369,3.4352,3.3463,3.2861,3.2786,3.3799,3.4103,3.5024,3.7468,3.8025,3.9334,4.283,4.3359,4.4018,4.592,4.6112,4.6301,4.6899,4.7103,4.7448,4.8179,4.8594,4.8512,4.7789,4.8953,4.9439,4.9085,4.9599,5.001,5.0405,5.0946,5.1677,5.2689,5.3855,5.447,5.4632,5.5183,5.5409,5.5409,5.5409,5.5409,5.5409,5.5409,5.5409,5.5409,5.5409,5.5409,5.5409,5.5409,5.5409,5.5409,0.0,0.0,0.0,0.0,0.0,0.0,0.0,1.7055,1.7453,1.8625,1.8655,1.8503,1.8426,1.7033,1.5774,0.0,0.0,0.0,0.0,0.0,0.0,0.0,0.0,0.0,0.0,0.0,0.0,1.651,1.7447,0.0,0.0,0.0,0.0,0.0,0.0,1.8874,1.8941,1.8836,0.0,0.0,0.0,0.0,0.0,0.0,0.0,0.0,0.0,2.1917,2.3351,2.5197,2.63,2.7403,2.9958,3.1555,3.2774,3.4051,3.4399,3.4574,3.527,3.6447,3.7525,3.7523,3.843,3.8739,3.6071,3.543,3.479,3.2942,3.2542,3.2542,3.2634,3.3194,3.4068,3.5434,3.673,3.8675,4.2176,4.3055,4.4143,4.6119,4.6177,4.6073,4.5987,4.6697,4.7189,4.7276,4.8872,4.971,4.963,4.9004,4.9327,5.0908,5.0292,5.0579,5.1997,5.2062,5.2773,5.4211,5.4341,5.4729,5.5312,5.5377,5.5409,5.5409,5.5409,5.5409,5.5409,5.5409,5.5409,5.5409,5.5409,5.5409,5.5409,5.5409,5.5409,5.5409,0.0,0.0,0.0,0.0,0.0,0.0,1.6808,1.718,1.7609,1.8835,1.8903,1.8865,1.876,1.8257,1.7365,1.5872,0.0,0.0,0.0,0.0,0.0,0.0,0.0,0.0,0.0,0.0,1.738,1.7005,1.7666,0.0,0.0,0.0,0.0,0.0,0.0,1.8988,1.9008,1.8988,0.0,0.0,0.0,0.0,0.0,0.0,0.0,0.0,0.0,0.0,2.3062,2.4268,2.5604,2.7026,2.8419,3.0016,3.1671,3.3354,3.4109,3.4545,3.5183,3.5785,3.6398,3.721,3.7188,3.6742,3.5672,3.4484,3.3216,3.1652,3.1032,3.0887,3.1264,3.1874,3.2981,3.5061,3.5842,3.7519,4.1438,4.2166,4.3376,4.6265,4.6432,4.6607,4.7413,4.7758,4.8429,4.9519,5.026,5.0679,5.0679,5.0338,5.0448,5.1199,5.125,5.1604,5.2203,5.3233,5.3948,5.4565,5.4987,5.5345,5.5604,5.5491,5.5409,5.5409,5.5409,5.5409,5.5409,5.5409,5.5409,5.5409,5.5409,5.5409,5.5409,5.5409,5.5409,5.5474,0.0,0.0,0.0,0.0,0.0,1.428,1.6808,1.7214,1.7644,1.8844,1.9017,1.8941,1.8874,1.8941,1.835,1.6775,1.6411,0.0,0.0,0.0,0.0,0.0,0.0,0.0,0.0,0.0,1.7908,1.7558,1.8068,1.8226,0.0,0.0,1.8979,1.8912,0.0,0.0,0.0,0.0,0.0,0.0,0.0,0.0,0.0,0.0,0.0,0.0,0.0,0.0,0.0,0.0,0.0,2.6097,2.7142,2.8507,3.0161,3.228,3.347,3.4225,3.469,3.5112,3.5589,3.6565,3.6076,3.5276,3.4935,3.3482,3.1841,3.0601,2.9784,2.9523,3.0161,3.08,3.2073,3.4726,3.5477,3.7061,4.1077,4.1978,4.3333,4.6381,4.6733,4.7194,4.8389,4.8759,4.9519,5.1092,5.1275,5.1275,5.1199,5.1317,5.135,5.1275,5.1956,5.2454,5.2681,5.4072,5.4868,5.5017,5.5538,5.5766,5.5685,5.5523,5.5409,5.5409,5.5491,5.5523,5.5523,5.5523,5.5523,5.5523,5.5409,5.5409,5.5409,5.5409,5.5539,5.5798,0.0,0.0,0.0,0.0,0.0,0.0,1.6808,1.7214,1.7679,1.8927,1.9055,1.9008,1.9008,1.9008,1.8489,1.7188,1.7078,0.0,0.0,0.0,0.0,0.0,0.0,0.0,0.0,0.0,1.8577,1.8092,1.8683,1.875,1.8305,1.8874,1.9101,1.9101,0.0,0.0,0.0,0.0,0.0,0.0,0.0,0.0,0.0,0.0,0.0,0.0,0.0,0.0,0.0,0.0,0.0,0.0,0.0,2.7229,2.8245,3.08,3.2454,3.347,3.3499,3.4434,3.5349,3.5309,3.5368,3.5089,3.3732,3.2479,3.1215,2.9871,2.9116,2.8884,2.9523,3.0161,3.1456,3.4109,3.5643,3.7685,4.1136,4.2812,4.4423,4.6455,4.7296,4.7903,4.8471,4.9358,5.0292,5.1092,5.1424,5.1424,5.1199,5.1573,5.1721,5.1499,5.2215,5.2976,5.3891,5.4612,5.5287,5.5766,5.5799,5.5685,5.5409,5.5409,5.5409,5.5409,5.5685,5.5799,5.5799,5.5799,5.5799,5.5766,5.5491,5.5409,5.5409,5.5409,5.5863,5.6478,0.0,0.0,0.0,0.0,0.0,0.0,0.0,1.6579,1.6982,1.8317,1.8455,1.8455,1.8455,1.8455,1.7934,1.6597,1.692,0.0,0.0,0.0,0.0,0.0,0.0,0.0,0.0,1.8407,1.8798,1.8721,1.8903,1.8903,1.8788,1.8988,1.9101,1.9101,1.9101,1.9101,0.0,0.0,0.0,0.0,0.0,0.0,0.0,0.0,0.0,0.0,0.0,0.0,0.0,0.0,0.0,0.0,0.0,0.0,0.0,2.8042,3.0103,3.2222,3.2687,3.3077,3.3549,3.3968,3.3395,3.2675,3.2279,3.1185,2.9841,2.8536,2.8158,2.8216,2.8855,2.9809,3.1417,3.4075,3.5182,3.6906,4.0333,4.1723,4.3485,4.6442,4.8211,4.9284,4.9615,4.9757,5.0292,5.135,5.1424,5.1424,5.1199,5.1573,5.195,5.2248,5.3084,5.3847,5.4645,5.5522,5.6014,5.6006,5.6006,5.5927,5.5846,5.5766,5.5766,5.5927,5.6006,5.6006,5.6006,5.6006,5.5927,5.5766,5.5685,5.5604,5.5474,5.596,5.6284,5.664,0.0,0.0,0.0,0.0,0.0,0.0,0.0,1.6177,1.6637,1.7713,1.7824,1.7824,1.7824,1.7824,1.7388,1.6314,1.6576,0.0,0.0,0.0,0.0,0.0,0.0,0.0,1.8036,1.8633,1.895,1.9055,1.9315,1.9431,1.9431,1.944,1.9478,1.9478,1.9217,1.9101,0.0,0.0,0.0,0.0,0.0,0.0,1.9101,0.0,0.0,0.0,0.0,0.0,0.0,0.0,0.0,0.0,0.0,0.0,0.0,0.0,2.8187,3.0045,3.1409,3.1961,3.2203,3.2646,3.1928,3.1127,3.0914,2.9805,2.8737,2.814,2.7627,2.769,2.8755,2.9822,3.1373,3.4044,3.5174,3.6801,4.007,4.1401,4.3489,4.7211,4.9267,5.0416,5.0647,5.0493,5.0755,5.1573,5.1647,5.1573,5.1392,5.1794,5.2401,5.316,5.3738,5.4405,5.5237,5.6084,5.6369,5.6086,5.6165,5.6165,5.6006,5.5927,5.6006,5.6086,5.6165,5.6244,0.0,5.6165,5.6006,5.5846,5.5685,5.5523,5.5507,5.6219,5.6672,5.7061,0.0,0.0,0.0,0.0,0.0,0.0,0.0,1.5918,1.65,1.7169,1.7161,1.7127,1.7127,1.7127,1.6866,1.6198,0.0,0.0,0.0,0.0,0.0,0.0,0.0,0.0,1.8259,1.8869,1.9159,1.9159,1.9827,2.0175,2.0175,2.0175,2.0175,2.0146,1.9478,1.913,0.0,0.0,0.0,0.0,1.9101,1.9101,0.0,0.0,0.0,0.0,0.0,0.0,0.0,0.0,0.0,0.0,0.0,0.0,0.0,0.0,0.0,0.0,0.0,3.08,3.1299,3.1337,3.0955,3.0367,2.9724,2.863,0.0,2.839,2.7659,2.7448,2.9134,3.0183,3.1546,3.4102,3.5645,3.7514,4.0194,4.197,4.4496,4.8544,5.0293,5.135,5.1499,5.135,5.1392,5.1794,5.1868,5.1794,5.1794,5.2158,5.2964,5.4128,5.4194,5.4741,5.5686,5.6349,5.6525,5.6086,5.6323,5.6244,5.5879,5.6006,5.6165,5.6165,5.6323,5.6369,5.6402,5.6244,5.6165,5.6086,5.5572,5.5442,5.5571,5.6316,5.7029,5.7826,0.0,0.0,0.0,0.0,0.0,0.0,0.0,0.0,0.0,0.0,1.6585,1.6553,1.6459,1.643,1.6198,0.0,0.0,0.0,0.0,0.0,0.0,0.0,0.0,0.0,1.8869,1.9537,1.9856,1.9856,2.0494,2.0785,2.0785,2.0785,2.0785,2.0756,2.0146,1.9566,0.0,0.0,0.0,0.0,1.9101,1.9101,0.0,0.0,0.0,0.0,1.9101,1.9537,0.0,0.0,0.0,0.0,0.0,0.0,0.0,0.0,2.5255,2.6271,2.7374,0.0,2.9493,2.9929,2.9959,2.9697,0.0,2.9055,2.9053,2.8674,2.839,2.8671,3.0018,3.1207,3.2628,3.4253,3.64,3.8746,4.1031,4.4464,4.7383,4.905,5.0514,5.1573,5.1941,5.1794,5.1794,5.2013,5.2013,5.1941,5.1794,5.2158,5.2964,5.4128,5.4344,5.5048,5.6415,5.6614,5.6603,5.6323,5.6402,5.6402,5.6244,5.6323,5.6369,5.6525,5.6603,5.6603,5.6603,5.6603,5.6402,5.6086,5.6006,5.6092,5.6316,5.7061,5.7773,5.8486,0.0,0.0,0.0,0.0,0.0,0.0,0.0,0.0,0.0,0.0,0.0,1.5476,1.5447,1.5679,0.0,0.0,0.0,0.0,0.0,0.0,0.0,0.0,0.0,1.8259,1.9537,1.9914,2.0378,2.0959,2.1598,2.2033,2.2323,2.2033,2.1888,2.183,2.064,1.974,0.0,0.0,0.0,1.9101,1.9101,0.0,0.0,0.0,0.0,0.0,1.9101,1.9333,0.0,2.0001,2.0553,2.122,0.0,0.0,0.0,0.0,2.4432,2.5238,2.617,2.7312,2.8332,2.8681,2.8971,2.9029,2.839,2.8739,2.9198,2.935,2.9233,2.969,3.1427,3.2709,3.4022,3.5623,3.7687,4.0008,4.2775,4.6023,4.8524,4.9675,5.0888,5.1794,5.2086,5.1941,5.1941,5.223,5.2158,5.2086,5.2086,5.2302,5.2964,5.4311,5.4452,5.5222,5.668,5.668,5.6603,5.6402,5.6447,5.6447,5.6369,5.6447,5.6603,5.668,5.668,5.668,5.668,5.6603,5.6447,5.6244,5.6006,5.627,5.6939,5.7456,5.8255,5.9056,0.0,0.0,0.0,0.0,0.0,0.0,0.0,0.0,0.0,0.0,0.0,0.0,0.0,0.0,0.0,0.0,0.0,0.0,0.0,0.0,0.0,0.0,1.7853,1.8811,2.0088,2.0291,2.0959,2.2149,2.283,2.3467,2.4007,2.3351,2.2888,2.254,2.0959,1.9798,1.9101,1.9101,1.9101,1.9101,1.9101,0.0,0.0,0.0,0.0,0.0,0.0,0.0,0.0,1.9808,2.003,2.0291,2.1407,0.0,0.0,0.0,0.0,0.0,2.5541,2.6637,2.7544,2.7719,2.8272,2.8592,2.8013,2.8618,2.9566,3.0448,3.0402,3.0919,3.319,3.4297,3.5466,3.7282,3.9224,4.1678,4.4951,4.7202,4.8996,5.0334,5.1263,5.1941,5.2119,5.2013,5.2013,5.2373,5.223,5.223,5.2373,5.2473,5.3135,5.4494,5.4626,5.5322,5.668,5.668,5.6603,5.648,5.6603,5.6603,5.6447,5.6603,5.668,5.668,5.668,5.668,5.668,5.6558,5.6447,5.6402,5.6137,5.6628,5.7429,5.7952,5.8671,5.9559,0.0,0.0,0.0,0.0,0.0,0.0,0.0,0.0,0.0,0.0,0.0,0.0,0.0,0.0,0.0,0.0,0.0,0.0,0.0,0.0,0.0,1.7349,1.7888,1.8811,2.0088,2.1162,2.2062,2.2743,2.3931,2.4539,2.4626,2.4036,2.2875,2.1278,2.0988,2.0204,1.9101,1.9101,1.9101,1.9101,1.9101,0.0,0.0,0.0,0.0,0.0,0.0,0.0,0.0,1.933,1.9701,2.0157,2.0558,0.0,0.0,0.0,0.0,0.0,2.5033,2.5844,2.6667,2.7753,2.8492,2.882,2.8732,3.0421,3.1983,3.2112,3.2661,3.3573,3.5007,3.5502,3.6173,3.7668,4.1086,4.439,4.6815,4.8453,4.9801,5.0796,5.1553,5.2158,5.2302,5.2302,5.2302,5.2373,5.2373,5.2373,5.2373,5.2937,5.3632,5.4494,5.5123,5.5852,5.668,5.668,5.668,5.668,5.668,5.668,5.668,5.668,5.668,5.668,5.668,5.668,5.668,5.668,5.6525,5.6468,5.6981,5.7591,5.815,5.8871,5.9591,6.0332,0.0,0.0,0.0,0.0,0.0,0.0,0.0,0.0,0.0,0.0,0.0,0.0,0.0,0.0,0.0,0.0,0.0,0.0,0.0,0.0,1.7416,1.7449,1.8314,1.938,2.0662,2.1553,2.2643,2.3931,2.4907,2.5546,2.5865,2.4878,2.3368,2.1511,2.1162,2.0291,1.9101,1.9101,1.9101,1.9101,0.0,0.0,0.0,0.0,0.0,0.0,0.0,0.0,0.0,0.0,1.9522,1.9777,2.0283,0.0,0.0,0.0,0.0,0.0,2.5106,2.6022,2.7149,2.8484,2.9185,2.9738,3.0813,3.2191,3.3393,3.4125,3.4634,3.5319,3.6571,3.7238,3.8366,4.0678,4.3771,4.652,4.7998,4.9411,5.0665,5.1493,5.196,5.2302,5.2373,5.2373,5.2373,5.2373,5.2373,5.2373,5.2373,5.3036,5.3765,5.4494,5.5256,5.5951,5.668,5.668,5.668,5.668,5.668,5.668,5.668,5.668,5.668,5.668,5.668,5.668,5.668,5.668,5.6603,5.6591,5.7272,5.7917,5.8708,5.9828,6.0454,6.075,0.0,0.0,0.0,0.0,0.0,0.0,0.0,0.0,0.0,0.0,0.0,0.0,0.0,0.0,0.0,0.0,0.0,0.0,0.0,1.7029,1.7647,1.7647,1.8797,2.0017,2.1222,2.1873,2.3078,2.4869,2.5683,2.6265,2.6585,2.5421,2.3891,2.2178,2.1407,2.0418,1.9333,1.9197,1.9139,1.9139,0.0,0.0,0.0,0.0,0.0,0.0,0.0,0.0,0.0,0.0,0.0,0.0,0.0,0.0,0.0,2.1975,2.3274,2.467,2.5248,2.6377,2.7829,2.9449,3.0112,3.0738,3.2538,3.3646,3.4635,3.5783,3.6388,3.6991,3.8155,3.934,4.1102,4.3905,4.6156,4.8033,4.9222,5.0344,5.1333,5.2092,5.2302,5.2373,5.2373,5.2373,5.2373,5.2373,5.2373,5.2373,5.2373,5.3202,5.393,5.4494,5.5388,5.615,5.668,5.668,5.668,5.668,5.668,5.668,5.668,5.668,5.668,5.668,5.668,5.668,5.668,5.668,5.6779,5.7011,5.7615,5.8441,5.9562,6.0688,6.1119,6.1119,0.0,0.0,0.0,0.0,0.0,0.0,0.0,0.0,0.0,0.0,0.0,0.0,0.0,0.0,0.0,0.0,0.0,0.0,0.0,1.7452,1.8036,1.7974,1.9186,2.0332,2.1374,2.2353,2.3606,2.5158,2.6352,2.6652,2.6067,2.5316,2.4247,2.2772,2.1808,2.087,2.0001,1.9551,1.9354,1.9288,1.9354,0.0,0.0,0.0,0.0,0.0,0.0,0.0,0.0,0.0,0.0,0.0,0.0,0.0,2.1535,2.1524,2.3003,2.4731,2.5218,2.6475,2.8162,3.0646,3.1243,3.1562,3.281,3.4453,3.5922,3.6702,3.7994,3.9134,3.9795,4.1766,4.4032,4.6311,4.7404,4.873,5.0817,5.1214,5.1545,5.2307,5.2373,5.2373,5.2373,5.2373,5.2373,5.2373,5.2373,5.2373,5.2373,5.3699,5.446,5.4527,5.5885,5.6647,5.668,5.668,5.668,5.668,5.668,5.668,5.668,5.668,5.668,5.668,5.668,5.668,5.668,5.668,5.7077,5.7773,5.8535,5.9694,6.0953,6.1086,6.1119,6.1119,0.0,0.0,0.0,0.0,0.0,0.0,0.0,0.0,0.0,0.0,0.0,0.0,0.0,0.0,0.0,0.0,0.0,0.0,0.0,1.7861,1.8346,1.813,1.9318,2.0509,2.1545,2.2186,2.3407,2.5206,2.6482,2.7012,2.6718,2.5609,2.464,2.3714,2.2098,2.098,2.0226,1.9656,1.9391,1.9391,1.9391,1.9428,0.0,0.0,0.0,0.0,0.0,0.0,0.0,0.0,1.9617,1.9581,1.969,2.058,2.1704,2.2133,2.3656,2.5465,2.6494,2.8374,3.0348,3.1705,3.3234,3.4691,3.5473,3.6542,3.7705,3.8841,3.9837,4.0935,4.203,4.3734,4.5549,4.7305,4.8597,4.9823,5.1082,5.1678,5.2075,5.234,5.2373,5.2373,5.2373,5.2373,5.2373,5.2373,5.2373,5.2373,5.2373,5.3732,5.4527,5.4527,5.5918,5.668,5.668,5.668,5.668,5.668,5.668,5.668,5.668,5.668,5.668,5.668,5.668,5.668,5.668,5.668,5.7111,5.7906,5.9131,6.0225,6.1119,6.1119,6.1119,6.1119,0.0,0.0,0.0,0.0,0.0,0.0,0.0,0.0,0.0,0.0,0.0,0.0,0.0,0.0,0.0,0.0,0.0,0.0,1.7158,1.8226,1.8768,1.8499,1.9779,2.0848,2.1652,2.2074,2.3152,2.5006,2.6337,2.6937,2.6908,2.5785,2.4929,2.4174,2.2342,2.1218,2.0637,1.9856,1.9501,1.9465,1.9501,1.9472,0.0,0.0,0.0,0.0,0.0,0.0,0.0,0.0,1.969,1.969,1.969,2.0617,2.1814,2.2473,2.4059,2.5931,2.7448,2.9644,3.1743,3.2749,3.4886,3.6953,3.7689,3.8278,3.9097,4.0734,4.1806,4.2899,4.439,4.5649,4.6974,4.8465,4.9756,5.0783,5.1512,5.2075,5.2373,5.2373,5.2373,5.2373,5.2373,5.2373,5.2373,5.2373,5.2373,5.2373,5.2373,5.3732,5.4527,5.4527,5.5918,5.668,5.668,5.668,5.668,5.668,5.668,5.668,5.668,5.668,5.668,5.668,5.668,5.668,5.6713,5.6945,5.7608,5.8601,5.986,6.0655,6.1119,6.1119,6.1119,6.1119,0.0,0.0,0.0,0.0,0.0,0.0,0.0,0.0,0.0,0.0,0.0,0.0,0.0,0.0,0.0,0.0,0.0,0.0,1.7491,1.8549,1.9167,1.9083,2.0501,2.144,2.1673,2.2028,2.2991,2.4582,2.583,2.6357,2.6406,2.5723,2.4946,2.4145,2.2438,2.1605,2.1355,2.0184,1.9683,1.9611,1.9654,1.969,1.969,0.0,0.0,0.0,0.0,0.0,0.0,0.0,1.969,1.969,1.969,2.0617,2.1814,2.2503,2.4088,2.6025,2.7933,2.9929,3.1973,3.3855,3.595,3.7871,3.9101,3.9437,4.0033,4.2121,4.3694,4.5152,4.6643,4.7504,4.8498,4.9988,5.0817,5.1545,5.2274,5.2373,5.2373,5.2373,5.2373,5.2373,5.2373,5.2373,5.2373,5.2373,5.2373,5.2373,5.2373,5.3732,5.4527,5.4527,5.5918,5.668,5.668,5.668,5.668,5.668,5.668,5.668,5.668,5.668,5.668,5.668,5.668,5.668,5.6746,5.7475,5.8668,6.0092,6.0821,6.1119,6.1119,6.1119,6.1119,6.1119,0.0,0.0,0.0,0.0,0.0,0.0,0.0,0.0,0.0,0.0,0.0,0.0,0.0,0.0,0.0,0.0,0.0,0.0,1.7491,1.8739,1.9367,1.9111,2.0501,2.144,2.1673,2.229,2.324,2.4582,2.5448,2.5819,2.5789,2.5133,2.4716,2.4432,2.3029,2.2103,2.1555,2.0729,2.0139,1.9654,1.969,1.969,1.969,0.0,0.0,0.0,0.0,0.0,0.0,0.0,0.0,0.0,1.969,2.0617,2.1904,2.3011,2.4747,2.6831,2.9237,3.1689,3.381,3.4852,3.7317,3.9756,4.0729,4.1351,4.2313,4.4401,4.5582,4.6543,4.7504,4.8299,4.926,5.0717,5.1148,5.1545,5.2274,5.2373,5.2373,5.2373,5.2373,5.2373,5.2373,5.2373,5.2373,5.2373,5.2373,5.2373,5.2373,5.3732,5.4527,5.4527,5.5918,5.668,5.668,5.668,5.668,5.668,5.668,5.668,5.668,5.668,5.668,5.668,5.668,5.668,5.6779,5.8038,5.9131,6.0092,6.0821,6.1119,6.1119,6.1119,6.1119,6.1119,0.0,0.0,0.0,0.0,0.0,0.0,0.0,0.0,1.3118,1.3118,1.3118,1.3549,0.0,0.0,0.0,1.6951,1.7349,1.7515,1.7515,1.8551,1.9207,1.9279,2.045,2.1341,2.1945,2.2325,2.2979,2.3823,2.4667,2.5183,2.547,2.4852,2.4567,2.4442,2.3425,2.2546,2.1879,2.1212,2.0436,1.9726,1.9869,1.9803,1.9726,0.0,0.0,0.0,0.0,0.0,0.0,0.0,0.0,0.0,1.969,2.0617,2.1974,2.3474,2.5334,2.7583,3.0701,3.313,3.5102,3.6596,3.8902,4.1253,4.2911,4.3804,4.4716,4.5983,4.7073,4.7901,4.8365,4.9293,5.0253,5.1148,5.1512,5.1877,5.2307,5.2373,5.2373,5.2373,5.2373,5.2373,5.2373,5.2373,5.2373,5.2373,5.2373,5.2506,5.2771,5.3897,5.4659,5.4957,5.6084,5.668,5.668,5.668,5.668,5.668,5.668,5.668,5.668,5.668,5.668,5.668,5.668,5.7011,5.7641,5.8535,5.9496,6.049,6.0953,6.1119,6.1119,6.1119,6.1119,6.1119,0.0,0.0,0.0,0.0,0.0,0.0,0.0,1.3085,1.3085,1.3085,1.3085,1.3383,0.0,0.0,0.0,1.6321,1.7084,1.7515,1.7515,1.812,1.8816,1.9452,2.0274,2.1187,2.2248,2.2247,2.2403,2.2722,2.3677,2.4502,2.5161,2.4819,2.4516,2.4328,2.3721,2.3049,2.2307,2.1688,2.0793,1.9833,2.012,2.0085,1.9833,2.0154,0.0,0.0,0.0,0.0,0.0,0.0,0.0,0.0,1.9726,2.0655,2.2094,2.3887,2.5895,2.8311,3.2096,3.4233,3.6013,3.8632,4.0492,4.2435,4.5251,4.651,4.7106,4.7106,4.8166,4.916,4.9293,5.0386,5.128,5.138,5.1943,5.2373,5.2373,5.2373,5.2373,5.2373,5.2373,5.2373,5.2373,5.2373,5.2373,5.2373,5.2373,5.2672,5.3367,5.4129,5.4858,5.562,5.6316,5.668,5.668,5.668,5.668,5.668,5.668,5.668,5.668,5.668,5.668,5.668,5.668,5.7541,5.8899,5.8899,5.9761,6.1119,6.1119,6.1119,6.1119,6.1119,6.1119,6.1119,0.0,0.0,0.0,0.0,0.0,0.0,1.3175,1.3175,1.3175,1.3175,1.3175,1.3458,1.4136,1.4908,0.0,1.642,1.7096,1.7505,1.7505,1.8194,1.8635,1.8724,2.0009,2.1073,2.1875,2.1908,2.2207,2.2834,2.3565,2.3983,2.4139,2.4592,2.482,2.4744,2.4626,2.3871,2.2708,2.2551,2.1761,2.0595,2.0662,2.0628,2.0595,2.0662,2.0628,0.0,0.0,0.0,0.0,0.0,0.0,0.0,1.9767,2.0812,2.2378,2.3968,2.6236,2.8931,3.2254,3.4587,3.6572,3.8828,4.169,4.4456,4.6245,4.7669,4.863,4.863,4.8895,4.9458,5.0585,5.1082,5.1479,5.2042,5.2274,5.2373,5.2373,5.2373,5.2373,5.2373,5.2373,5.2373,5.2373,5.2373,5.2373,5.2373,5.2373,5.2672,5.3367,5.4129,5.4858,5.562,5.6316,5.668,5.668,5.668,5.668,5.668,5.668,5.668,5.668,5.668,5.668,5.668,5.668,5.7541,5.8899,5.8899,5.9761,6.1119,6.1119,6.1119,6.1119,6.1119,6.1119,6.1119,0.0,0.0,0.0,0.0,0.0,0.0,0.0,0.0,1.321,1.321,1.321,1.3326,1.3659,1.4412,0.0,0.0,1.6642,1.7153,1.7509,1.7909,1.8252,1.8535,1.9578,2.0505,2.1234,2.1267,2.1632,2.2361,2.3062,2.3433,2.3606,2.3771,2.3998,2.4217,2.4537,2.3935,2.2623,2.2975,2.2232,2.0827,2.0958,2.0958,2.0827,2.099,2.0958,2.0827,2.099,0.0,0.0,0.0,0.0,0.0,0.0,0.0,2.2269,2.4018,2.6176,2.8799,3.2079,3.4528,3.679,3.964,4.2795,4.5417,4.6179,4.7802,4.9193,4.9558,4.9922,5.0386,5.1148,5.1578,5.1943,5.2307,5.2373,5.2373,5.2373,5.2373,5.2373,5.2373,5.2373,5.2373,5.2373,5.2373,5.2373,5.2373,5.2373,5.2837,5.3897,5.4295,5.5024,5.6084,5.6481,5.668,5.668,5.668,5.668,5.668,5.668,5.668,5.668,5.668,5.668,5.668,5.668,5.7541,5.8899,5.8899,5.9761,6.1119,6.1119,6.1119,6.1119,6.1119,6.1119,6.1119,0.0,0.0,0.0,0.0,0.0,0.0,0.0,0.0,0.0,1.3227,1.3227,1.3227,1.3227,1.388,1.4618,0.0,0.0,0.0,1.7579,1.7589,1.79,1.861,1.9107,1.9777,2.05,2.0633,2.0998,2.1599,2.2327,2.2865,2.3124,2.3007,2.3103,2.3513,2.4167,2.3744,2.2704,2.3323,2.2636,2.1214,2.1601,2.1504,2.1214,2.1601,2.1569,2.1374,2.1504,2.1376,2.1117,2.1247,0.0,0.0,0.0,0.0,2.2163,2.4026,2.6081,2.8437,3.1781,3.4584,3.7367,4.0746,4.3628,4.5682,4.5914,4.7703,4.9458,5.0088,5.0783,5.1313,5.1446,5.1976,5.2373,5.2373,5.2373,5.2373,5.2373,5.2373,5.2373,5.2373,5.2373,5.2373,5.2373,5.2373,5.2373,5.2373,5.2373,5.3003,5.4427,5.4527,5.5189,5.6647,5.668,5.668,5.668,5.668,5.668,5.668,5.668,5.668,5.668,5.668,5.668,5.668,5.668,5.7541,5.8899,5.8899,5.9761,6.1119,6.1119,6.1119,6.1119,6.1119,6.1119,6.1119,0.0,0.0,0.0,0.0,0.0,0.0,0.0,0.0,0.0,0.0,1.3362,1.3346,1.3312,1.4004,1.4746,1.5415,1.6168,1.6908,1.7636,0.0,0.0,1.8732,1.8693,1.9041,1.9824,2.0401,2.0766,2.0865,2.1566,2.1966,2.2035,2.3259,2.3852,2.3918,2.4017,2.3951,2.3786,2.3885,2.3423,2.2666,2.3357,2.3225,2.2699,2.3357,2.3621,2.349,2.2927,2.2474,2.2086,2.1471,2.1277,0.0,0.0,0.0,2.2536,2.4129,2.6081,2.8437,3.1781,3.5711,3.9421,4.1773,4.3628,4.5185,4.6444,4.8465,5.0088,5.0187,5.0783,5.1479,5.2108,5.2307,5.2373,5.2373,5.2373,5.2373,5.2373,5.2373,5.2373,5.2373,5.2373,5.2373,5.2373,5.2373,5.2373,5.2373,5.2373,5.3003,5.4427,5.4527,5.5189,5.6647,5.668,5.668,5.668,5.668,5.668,5.668,5.668,5.668,5.668,5.668,5.668,5.668,5.668,5.7541,5.8899,5.8899,5.9761,6.1119,6.1119,6.1119,6.1119,6.1119,6.1119,6.1119,0.0,0.0,0.0,0.0,0.0,0.0,0.0,0.0,0.0,0.0,0.0,1.3648,1.4025,1.4312,1.4934,1.6082,1.6488,1.6973,1.7715,1.7658,1.7769,1.8175,1.8057,1.8352,1.911,1.9791,2.0329,2.0761,2.1462,2.1797,2.1797,2.246,2.2758,2.2791,2.3189,2.3156,2.2824,2.3653,2.3586,2.2957,2.3686,2.3851,2.3617,2.3917,2.4016,2.4016,2.3652,2.3423,2.3194,2.244,2.221,2.2081,2.1564,0.0,0.0,0.0,2.4868,2.7169,3.1527,3.5313,3.8493,4.0249,4.2402,4.4357,4.5417,4.7371,4.9193,5.0055,5.0783,5.1512,5.2241,5.2373,5.2373,5.2373,5.2373,5.2373,5.2373,5.2373,5.2373,5.2373,5.2373,5.2373,5.2373,5.2373,5.2373,5.2373,5.2373,5.3003,5.4427,5.4527,5.5189,5.6647,5.668,5.668,5.668,5.668,5.668,5.668,5.668,5.668,5.668,5.668,5.668,5.668,5.668,5.7541,5.8899,5.8899,5.9761,6.1119,6.1119,6.1119,6.1119,6.1119,6.1119,6.1119,0.0,0.0,0.0,0.0,0.0,0.0,0.0,0.0,0.0,0.0,0.0,1.4481,1.5003,0.0,0.0,0.0,1.6823,1.7088,1.7815,1.7805,1.7783,1.7783,1.7681,1.788,1.8416,1.9077,1.9784,2.0522,2.1197,2.1599,2.1797,2.1797,2.1797,2.1797,2.2361,2.2427,2.2162,2.3454,2.3686,2.3255,2.4215,2.4614,2.468,2.4846,2.508,2.5246,2.4946,2.478,2.4514,2.3718,2.3252,2.2853,2.2292,2.199,0.0,0.0,0.0,2.6601,3.094,3.4154,3.6704,3.856,4.0912,4.3098,4.4158,4.6113,4.81,4.9392,5.0518,5.1446,5.2009,5.2241,5.2373,5.2373,5.2373,5.2373,5.2373,5.2373,5.2373,5.2373,5.2373,5.2373,5.2373,5.2373,5.2373,5.2373,5.2373,5.3003,5.4427,5.4527,5.5189,5.6647,5.668,5.668,5.668,5.668,5.668,5.668,5.668,5.668,5.668,5.668,5.668,5.668,5.668,5.7541,5.8899,5.8899,5.9761,6.1119,6.1119,6.1119,6.1119,6.1119,6.1119,6.1119,0.0,0.0,0.0,0.0,0.0,0.0,0.0,0.0,0.0,0.0,0.0,1.6077,1.6113,1.6131,1.6431,1.7185,1.7086,1.7314,1.8038,1.8023,1.8023,1.8086,1.776,0.0,1.7737,1.8358,1.9018,1.9757,2.0428,2.1102,2.1797,2.1797,2.1797,2.1797,2.1831,2.2228,2.2891,2.3686,2.3984,2.405,2.5578,2.6179,2.628,2.7121,2.7861,2.836,2.7514,2.6847,2.6251,2.538,2.4245,2.317,2.3012,2.2508,2.2103,0.0,0.0,0.0,3.0013,3.2266,3.4651,3.7566,3.9421,4.111,4.3197,4.5384,4.7173,4.7968,4.979,5.128,5.1313,5.191,5.2373,5.2373,5.2373,5.2373,5.2373,5.2373,5.2373,5.2373,5.2373,5.2373,5.2373,5.2373,5.2373,5.2373,5.2373,5.3003,5.4427,5.4527,5.5189,5.6647,5.668,5.668,5.668,5.668,5.668,5.668,5.668,5.668,5.668,5.668,5.668,5.668,5.668,5.7541,5.8899,5.8899,5.9761,6.1119,6.1119,6.1119,6.1119,6.1119,6.1119,6.1119,0.0,0.0,0.0,0.0,0.0,0.0,0.0,0.0,0.0,0.0,0.0,0.0,0.0,1.6994,1.724,1.7995,1.7988,1.8054,1.8333,1.817,1.8052,1.8107,1.8001,1.7871,1.7772,1.8528,1.8988,1.9144,2.0271,2.0978,2.1244,2.1711,2.194,2.1911,2.1857,2.196,2.2352,2.3551,2.4049,2.4248,2.6315,2.7119,2.7253,2.8531,2.9206,2.9513,2.9599,2.9197,2.8498,2.769,2.6485,2.5146,2.4175,2.3338,2.2802,2.2976,2.4414,2.6272,2.811,3.0501,3.3084,3.5542,3.7635,3.9761,4.2303,4.4257,4.5947,4.7636,4.9392,5.0717,5.1181,5.1877,5.2373,5.2373,5.2373,5.2373,5.2373,5.2373,5.2373,5.2373,5.2373,5.2373,5.2373,5.2373,5.2373,5.2373,5.2804,5.3467,5.446,5.4957,5.5686,5.6647,5.668,5.668,5.668,5.668,5.668,5.668,5.668,5.668,5.668,5.668,5.668,5.668,5.668,5.7541,5.8899,5.8899,5.9761,6.1119,6.1119,6.1119,6.1119,6.1119,6.1119,6.1119,0.0,0.0,0.0,0.0,0.0,0.0,0.0,0.0,1.7219,1.7472,0.0,0.0,0.0,0.0,1.8785,1.8992,1.8818,1.8695,1.8619,1.8448,1.8333,1.8333,1.8273,1.8128,1.7905,1.8198,1.8518,1.8814,1.9479,2.0164,2.0899,2.1396,2.1764,2.1998,2.1911,2.1882,2.2041,2.3512,2.4279,2.4746,2.709,2.83,2.8904,3.0421,3.1167,3.151,3.2202,3.1967,3.1268,3.0521,2.911,2.7429,2.595,2.4406,2.3201,2.3167,2.3944,2.5079,2.6382,2.8887,3.1616,3.3772,3.6004,3.8335,4.0923,4.285,4.4483,4.6242,4.81,4.9624,5.0088,5.1181,5.2075,5.234,5.2373,5.2373,5.2373,5.2373,5.2373,5.2373,5.2373,5.2373,5.2373,5.2373,5.2373,5.2373,5.3036,5.3732,5.4494,5.5222,5.5951,5.668,5.668,5.668,5.668,5.668,5.668,5.668,5.668,5.668,5.668,5.668,5.668,5.668,5.668,5.7541,5.8899,5.8899,5.9761,6.1119,6.1119,6.1119,6.1119,6.1119,6.1119,6.1119,0.0,0.0,0.0,0.0,0.0,0.0,0.0,0.0,1.8306,1.9051,0.0,0.0,0.0,0.0,0.0,2.0113,1.9506,1.9055,1.886,1.8842,1.8788,1.8788,1.8619,1.8388,1.8128,1.7342,1.7574,1.8781,1.8027,1.875,2.0893,2.0927,2.1295,2.2027,2.2027,2.2027,2.2128,2.3606,2.4677,2.5614,2.7933,2.9719,3.1207,3.284,3.3931,3.4709,3.5329,3.5127,3.4506,3.3667,3.1989,2.9901,2.8241,2.5681,2.3268,2.3325,2.3768,2.4377,0.0,0.0,0.0,3.2369,3.4655,3.6898,3.9175,4.1243,4.2865,4.3631,4.6005,4.7934,4.7934,4.9723,5.1446,5.2175,5.234,5.2373,5.2373,5.2373,5.2373,5.2373,5.2373,5.2373,5.2373,5.2373,5.2373,5.2373,5.3036,5.3765,5.4494,5.5256,5.5984,5.668,5.668,5.668,5.668,5.668,5.668,5.668,5.668,5.668,5.668,5.668,5.668,5.668,5.668,5.7541,5.8899,5.8899,5.9761,6.1119,6.1119,6.1119,6.1119,6.1119,6.1119,6.1119,0.0,0.0,0.0,0.0,0.0,1.8629,1.9212,1.9992,2.0572,0.0,0.0,0.0,2.1477,2.1514,2.1386,2.1112,2.0409,1.9938,1.9885,1.9201,1.8788,1.8788,1.8751,1.8526,1.8128,1.8218,1.8303,1.8288,1.8608,1.9487,2.0848,2.1037,2.1603,2.2508,2.2287,2.2237,2.2338,2.3728,2.5076,2.6454,2.8817,3.0605,3.2117,3.4192,3.5825,3.6975,3.7165,3.7097,3.684,3.6084,3.437,3.2036,2.9428,2.6927,2.4772,2.4326,2.4603,2.5011,2.4804,0.0,0.0,0.0,0.0,0.0,3.8104,4.0093,4.1643,4.2946,4.5117,4.6691,4.6691,4.846,4.9959,5.0091,5.1416,5.2373,5.2373,5.2373,5.2373,5.2373,5.2373,5.2373,5.2373,5.2373,5.2373,5.2373,5.3533,5.4295,5.4494,5.5719,5.6481,5.668,5.668,5.668,5.668,5.668,5.668,5.668,5.668,5.668,5.668,5.668,5.668,5.668,5.668,5.7541,5.8899,5.8899,5.9761,6.1119,6.1119,6.1119,6.1119,6.1119,6.1119,6.1119,0.0,0.0,1.765,1.8786,1.9368,1.9914,2.0716,2.1243,2.1643,0.0,0.0,0.0,2.2458,2.2224,2.2042,2.1987,2.1261,2.0807,2.0789,2.0245,1.9794,1.9435,1.9435,1.9109,1.8428,1.834,1.8322,1.8252,1.8371,1.9059,2.0328,2.08,2.1487,2.2374,2.2459,2.2884,2.3646,2.452,2.5578,2.6894,2.9683,3.1871,3.3707,3.5956,3.7763,3.9126,3.9272,3.9276,3.9174,3.843,3.6265,3.3457,3.1089,2.8786,2.6759,2.571,2.5645,2.5815,2.5169,2.632,2.8207,3.0162,0.0,0.0,3.6606,3.8673,4.0266,4.1439,4.3394,4.4842,4.4842,4.6586,4.8025,4.8025,4.9759,5.1284,5.1843,5.2175,5.2373,5.2373,5.2373,5.2373,5.2373,5.2373,5.2373,5.2373,5.3434,5.4328,5.4957,5.5786,5.6382,5.668,5.668,5.668,5.668,5.668,5.668,5.668,5.668,5.668,5.668,5.668,5.668,5.668,5.668,5.7342,5.8469,5.8767,5.9761,6.1119,6.1119,6.1119,6.1119,6.1119,6.1119,6.1119,0.0,1.8294,1.8755,2.0147,2.0549,2.0914,2.1625,2.1808,2.2117,0.0,2.3062,2.3389,2.4117,2.3502,2.3048,2.2989,2.2134,2.1624,2.1622,2.155,2.1188,2.0463,2.0355,1.9867,1.8949,1.8216,1.8075,1.8542,1.7803,1.8279,1.9829,2.049,2.1264,2.2119,2.2538,2.3676,2.5322,2.5579,2.6247,2.7368,3.0695,3.3433,3.5792,3.8027,3.9779,4.1194,4.1494,4.1648,4.1512,4.0544,3.7942,3.478,3.3243,3.1278,2.917,2.7571,2.703,2.6826,2.5947,2.6759,2.8144,2.9634,3.1021,0.0,3.4878,3.6983,3.8639,3.9379,4.1191,4.2657,4.2657,4.4432,4.5845,4.5845,4.7525,4.936,5.0852,5.1678,5.2175,5.2241,5.2274,5.2274,5.2373,5.2373,5.2373,5.2373,5.3036,5.403,5.5421,5.5587,5.5918,5.6547,5.6647,5.668,5.668,5.668,5.668,5.668,5.668,5.668,5.668,5.668,5.668,5.668,5.668,5.7111,5.7839,5.8601,5.9728,6.0986,6.1086,6.1119,6.1119,6.1119,6.1119,6.1119,1.8992,1.9671,2.024,2.045,2.1533,2.2429,2.2556,2.3121,2.3814,2.4595,2.5272,2.5746,2.5892,2.5199,2.4704,2.4641,2.3297,2.2478,2.2491,2.1876,2.1441,2.126,2.0644,2.0119,1.9772,1.9164,1.8806,1.8732,1.8573,1.9415,2.1126,2.0909,2.1635,2.3163,2.308,2.3568,2.4602,2.5897,2.7587,2.9682,3.2503,3.5223,3.7767,4.0114,4.1936,4.3325,4.4047,4.4279,4.3951,4.1974,3.9984,3.8021,3.6125,3.4237,3.2265,3.0094,2.9208,2.8596,2.6927,2.7131,2.8044,2.8958,2.9871,0.0,3.3322,3.507,3.6455,3.7233,3.9125,4.0661,4.0661,4.2375,4.3799,4.3799,4.4883,4.6666,4.9327,5.0222,5.085,5.1413,5.1479,5.1711,5.2307,5.2373,5.2373,5.2373,5.3036,5.3798,5.4692,5.5289,5.5686,5.5819,5.6382,5.668,5.668,5.668,5.668,5.668,5.668,5.668,5.668,5.668,5.668,5.668,5.668,5.7111,5.7839,5.8601,5.9429,6.0258,6.0887,6.1119,6.1119,6.1119,6.1119,6.1119,1.9563,2.0284,2.0928,2.1287,2.2386,2.328,2.3565,2.4266,2.4907,2.5226,2.6322,2.7053,2.7053,2.709,2.6907,2.6461,2.5658,2.5017,2.459,2.3749,2.3111,2.2712,2.1931,2.1078,2.0155,1.9848,1.9433,1.8949,1.8949,1.9615,2.0898,2.1084,2.1831,2.312,2.3625,2.4597,2.5968,2.7628,3.0092,3.3041,3.4199,3.6178,3.8702,4.1038,4.3085,4.4809,4.5399,4.5633,4.5374,4.3874,4.1866,3.9905,3.8761,3.68,3.4557,3.2651,3.1654,3.0798,2.8897,2.8687,2.9062,2.9653,2.9952,0.0,0.0,3.382,3.4844,3.596,3.7381,3.8565,3.8937,4.0476,4.1673,4.1673,4.3004,4.4541,4.6046,4.7628,4.9061,5.0157,5.029,5.0589,5.132,5.1682,5.1976,5.234,5.2705,5.3202,5.393,5.4659,5.5256,5.562,5.6316,5.668,5.668,5.668,5.668,5.668,5.668,5.668,5.668,5.668,5.668,5.668,5.668,5.6912,5.7309,5.8038,5.88,5.9562,6.0688,6.1119,6.1119,6.1119,6.1119,6.1119,1.9866,2.0639,2.1493,2.2079,2.307,2.3889,2.4331,2.5112,2.5746,2.605,2.7625,2.8705,2.8659,2.9269,2.9342,2.8453,2.8269,2.7807,2.6936,2.6067,2.5208,2.4387,2.3438,2.2238,2.0789,2.0608,2.0137,1.934,1.934,1.9739,2.0536,2.1188,2.2021,2.2942,2.4141,2.5673,2.7513,2.9632,3.2536,3.5824,3.617,3.7613,3.9837,4.2163,4.4306,4.6159,4.6766,4.6944,4.6838,4.6059,4.4131,4.189,4.1286,3.9364,3.7045,3.5357,3.4349,3.3408,3.1545,3.0984,3.0991,3.094,3.0726,3.0956,0.0,0.0,0.0,3.4796,3.5735,3.6569,3.7313,3.8565,3.9343,3.9073,4.0778,4.2105,4.1971,4.4131,4.6519,4.8587,4.8759,4.9159,5.0226,5.0923,5.1582,5.2108,5.2378,5.2677,5.3169,5.4063,5.4792,5.5388,5.6249,5.668,5.668,5.668,5.668,5.668,5.668,5.668,5.668,5.668,5.668,5.668,5.668,5.668,5.6746,5.7475,5.8237,5.9032,6.0357,6.0986,6.1119,6.1119,6.1119,6.1119,1.9774,2.1079,2.225,2.2205,2.3506,2.4548,2.4405,2.5232,2.6575,2.8569,3.0902,3.2292,3.2045,3.2129,3.1836,3.0943,3.0247,2.9454,2.8578,2.7775,2.695,2.6081,2.4569,2.3329,2.2455,2.1731,2.097,2.0173,2.0173,2.0572,2.1369,2.1477,2.2274,2.3723,2.457,2.5873,2.7574,3.0658,3.3442,3.6037,3.8791,4.0926,4.27,4.5084,4.6602,4.7651,4.9125,4.9667,4.9559,4.8764,4.7313,4.557,4.3734,4.2203,4.063,3.8408,3.7421,3.6648,3.4763,3.4266,3.3915,3.2511,3.2161,3.2196,3.2336,0.0,3.2999,3.3171,0.0,3.4979,3.5757,0.0,0.0,3.5351,3.6949,3.81,3.7345,3.9261,4.2328,4.6724,4.6851,4.7508,4.9869,5.0928,5.142,5.138,5.2117,5.2549,5.2506,5.3798,5.456,5.4626,5.5984,5.668,5.668,5.668,5.668,5.668,5.668,5.668,5.668,5.668,5.668,5.668,5.668,5.668,5.6746,5.7475,5.8237,5.8966,5.9794,6.0523,6.1119,6.1119,6.1119,6.1119,2.0055,2.1331,2.2483,2.2436,2.3841,2.5077,2.5386,2.6817,2.8556,3.0463,3.2292,3.3792,3.4651,3.5165,3.5174,3.4485,3.4141,3.334,3.2009,3.0729,2.9545,2.8565,2.6476,2.4756,2.3499,2.2623,2.1805,2.1007,2.1025,2.1405,2.2202,2.2202,2.3035,2.4556,2.5823,2.7562,2.9699,3.2922,3.5675,3.8138,4.0818,4.3136,4.5091,4.6106,4.788,4.9945,5.1067,5.1176,5.0741,5.0416,4.9009,4.732,4.6254,4.4772,4.2992,4.1136,4.0143,3.9218,3.7273,3.6418,3.5857,3.4942,3.4235,3.3671,3.3348,3.3284,3.3242,3.3206,0.0,0.0,0.0,0.0,0.0,0.0,3.6148,3.699,0.0,0.0,3.9982,4.4304,0.0,0.0,4.8449,4.9333,5.0159,5.1195,5.1695,5.2121,5.234,5.3732,5.4527,5.4527,5.5918,5.668,5.668,5.668,5.668,5.668,5.668,5.668,5.668,5.668,5.668,5.668,5.668,5.668,5.6713,5.7011,5.7886,5.8974,5.9711,6.0512,6.1119,6.1119,6.1119,6.1119,2.09,2.1779,2.2696,2.2925,2.4197,2.5576,2.6768,2.8776,3.0822,3.267,3.4399,3.597,3.7284,3.819,3.8451,3.7772,3.7765,3.7168,3.5665,3.4003,3.2501,3.1187,2.8735,2.6644,2.5038,2.3919,2.2989,2.2189,2.1931,2.2129,2.2692,2.289,2.3723,2.5063,2.691,2.9083,3.1546,3.4769,3.7631,4.0238,4.2592,4.5128,4.7518,4.7989,4.9727,5.2045,5.2878,5.277,5.2263,5.2009,5.0813,4.9251,4.8591,4.7017,4.5179,4.3858,4.2889,4.1841,3.9996,3.9064,3.8391,3.747,3.6577,3.5794,3.4999,3.4549,3.4235,3.3953,3.3455,0.0,0.0,0.0,0.0,0.0,0.0,3.5976,0.0,3.6255,0.0,0.0,0.0,0.0,0.0,4.8012,4.9317,5.0837,5.1528,5.21,5.2553,5.4023,5.4862,5.4862,5.6486,5.7256,5.6954,5.6954,5.6911,5.668,5.6911,5.6911,5.668,5.6911,5.6911,5.668,5.668,5.668,5.668,5.6911,5.7767,5.8998,5.9967,6.0858,6.1408,6.1399,6.1252,6.1119,2.2543,2.2543,2.2887,2.3728,2.4606,2.6032,2.8427,3.083,3.3238,3.5646,3.8147,3.9821,4.0133,4.1183,4.1386,4.0291,4.0488,4.0164,3.9016,3.7415,3.5662,3.3753,3.1309,2.9198,2.752,2.5885,2.4663,2.3923,2.3075,2.2656,2.2735,2.3438,2.4194,2.5099,2.7526,2.9916,3.2379,3.5602,3.8753,4.1868,4.4258,4.712,5.0126,5.1719,5.2842,5.3748,5.4544,5.4798,5.4689,5.3892,5.3059,5.2118,5.0524,4.8931,4.744,4.6608,4.5816,4.4838,4.317,4.27,4.2157,3.9876,3.9297,3.8828,3.7268,3.6604,3.6113,3.5293,3.4234,3.374,0.0,0.0,0.0,0.0,0.0,0.0,0.0,0.0,0.0,0.0,0.0,0.0,0.0,4.7607,4.9491,0.0,5.1959,5.2898,5.287,5.4734,5.5893,5.5893,5.7775,5.8494,5.7741,5.7741,5.7406,5.668,5.7372,5.7372,5.668,5.748,5.7406,5.668,5.668,5.668,5.6757,5.7446,5.818,5.9072,6.059,6.1597,6.2243,6.2242,6.1756,6.1119,2.346,2.346,2.3537,2.3842,2.4606,2.6032,2.8542,3.1347,3.413,3.6556,3.8493,4.0502,4.2762,4.3342,4.3751,4.412,4.4235,4.3655,4.2184,4.0879,3.9439,3.7692,3.4866,3.2672,3.1288,2.8874,2.6958,2.5664,2.4777,2.4101,2.3575,2.4356,2.5114,2.5978,2.8953,3.1574,3.4009,3.7196,4.0093,4.2846,4.6866,4.9764,5.1756,5.2299,5.2987,5.382,5.4617,5.4907,5.487,5.4581,5.4327,5.382,5.219,5.1321,5.0524,4.8641,4.7916,4.7337,4.5707,4.4874,4.4041,4.2158,4.1325,4.0528,3.8934,3.8504,3.8148,3.7354,3.6218,0.0,0.0,0.0,0.0,0.0,0.0,0.0,0.0,0.0,0.0,0.0,0.0,0.0,0.0,0.0,0.0,0.0,5.0621,0.0,5.3244,5.4593,5.5653,5.6567,5.7665,5.8357,5.8564,5.8564,5.8424,5.814,5.8424,5.8424,5.814,5.8424,5.8424,5.814,5.7668,5.7741,5.814,5.7887,5.8524,5.9768,6.1392,6.2158,6.237,6.2832,6.2829,6.2523,2.4377,2.4377,2.4377,2.4377,2.5562,2.7358,2.9865,3.2994,3.5969,3.8459,4.016,4.2092,4.4723,4.5104,4.5546,4.6493,4.6643,4.6163,4.4852,4.3983,4.2674,4.0776,3.8346,3.6273,3.4547,3.1807,2.9554,2.7954,2.6402,2.522,2.4474,2.5257,2.6031,2.6872,3.0067,3.3009,3.5634,3.8316,4.1289,4.4663,4.9155,5.19,5.3385,5.3639,5.4074,5.4617,5.5414,5.574,5.5667,5.5377,5.5305,5.5051,5.3748,5.3168,5.2625,5.1067,5.0198,4.9474,4.8134,4.6975,4.5852,4.4512,4.357,4.2665,4.1361,4.0854,4.0419,3.9623,3.84,0.0,0.0,0.0,0.0,0.0,0.0,0.0,0.0,3.3507,0.0,0.0,0.0,0.0,0.0,0.0,0.0,0.0,0.0,0.0,0.0,5.4591,5.5869,5.6982,5.8184,5.8892,5.8994,5.9373,5.9346,5.9078,5.9346,5.9346,5.9078,5.9279,5.9212,5.8943,5.846,5.853,5.8943,5.8806,5.9314,6.0234,6.1828,6.2563,6.2793,6.352,6.3612,6.3319,2.5191,2.5268,2.5344,2.5497,2.7472,2.9865,3.2424,3.5649,3.8667,4.1227,4.3023,4.462,4.6087,4.6519,4.6946,4.7606,4.7891,4.7781,4.7174,4.6705,4.5417,4.3103,4.174,3.9924,3.7476,3.4689,3.2426,3.0793,2.7963,2.6155,2.5377,2.6118,2.6854,2.7634,3.0902,3.4127,3.7217,3.8858,4.2377,4.7211,5.1004,5.353,5.5051,5.5776,5.6066,5.6138,5.6935,5.7188,5.708,5.6319,5.6066,5.5921,5.5196,5.4436,5.382,5.3784,5.2661,5.1285,5.0488,4.9112,4.7735,4.6902,4.6069,4.5273,4.444,4.3643,4.2846,4.2122,4.0673,0.0,0.0,0.0,0.0,0.0,0.0,0.0,0.0,0.0,0.0,0.0,0.0,0.0,0.0,0.0,0.0,0.0,0.0,0.0,0.0,5.4945,5.6446,5.732,5.9286,6.0017,5.9395,6.0175,6.0219,5.9509,6.0219,6.0219,5.9509,6.0058,5.9867,5.9245,5.9178,5.9178,5.9311,6.0156,6.0406,6.0415,6.1914,6.2916,6.3565,6.4376,6.4148,6.3393,2.5306,2.6211,2.7625,2.9497,3.0338,3.1637,3.4159,3.691,3.9584,4.2144,4.394,4.5829,4.8075,4.8923,4.9877,5.128,5.1481,5.119,5.0431,5.0024,4.9124,4.7542,4.5519,4.3667,4.2048,3.849,3.5553,3.3343,3.0572,2.8219,2.6298,2.7068,2.7537,2.7812,3.1644,3.4754,3.7348,4.012,4.449,4.97,5.2372,5.4433,5.5958,5.6622,5.6899,5.6899,5.7116,5.7188,5.7152,5.6971,5.6899,5.6754,5.5957,5.5558,5.5305,5.4762,5.4291,5.3784,5.2987,5.2045,5.0923,4.951,4.8568,4.7772,4.6975,4.6142,4.5526,4.5309,4.3534,0.0,0.0,0.0,0.0,0.0,0.0,0.0,0.0,0.0,0.0,0.0,0.0,0.0,0.0,0.0,0.0,0.0,0.0,0.0,0.0,0.0,5.617,5.7927,5.9078,5.9816,6.011,6.0898,6.1234,6.1022,6.1234,6.1234,6.1022,6.1176,6.1176,6.0962,6.0344,6.0406,6.0962,6.0626,6.0747,6.1306,6.2305,6.3454,6.4721,6.5439,6.5141,6.4497,2.644,2.7931,3.0109,3.263,3.3968,3.5229,3.6642,3.8706,4.0998,4.3558,4.5354,4.7226,4.9404,5.0359,5.1391,5.269,5.2805,5.2564,5.1942,5.1865,5.1294,5.0038,4.8517,4.6846,4.4973,4.1968,3.9014,3.6045,3.2953,3.0337,2.8191,2.7934,2.8146,2.8881,3.2208,3.5214,3.8099,4.2775,4.7119,5.1128,5.3399,5.528,0.0,5.7107,5.7289,5.7289,5.7338,5.7289,5.7188,5.7188,5.7239,5.7216,5.6731,5.6635,5.6576,5.6079,5.5716,5.5366,5.4834,5.3892,5.2806,5.19,5.1067,5.0379,4.9908,4.8894,4.8061,4.8061,4.6142,4.4476,0.0,0.0,0.0,0.0,0.0,0.0,0.0,0.0,0.0,0.0,0.0,0.0,0.0,0.0,0.0,0.0,0.0,0.0,0.0,0.0,5.5857,5.7702,5.8895,5.9673,6.0088,6.1207,6.1784,6.1784,6.1784,6.1784,6.1728,6.1672,6.1708,6.1672,6.1234,6.1292,6.1672,6.1257,6.135,6.1816,6.2817,6.3788,6.4819,6.5838,6.5922,6.5439,2.8657,3.0452,3.286,3.5267,3.7712,3.9431,3.9775,4.1074,4.287,4.5316,4.7073,4.8793,5.0436,5.1505,5.2422,5.3225,5.3378,5.3315,5.3034,5.3289,5.2972,5.1858,5.1154,4.9671,4.7226,4.508,4.2366,3.8936,3.5423,3.2683,3.065,2.9145,2.9159,3.0515,3.2966,3.604,3.9804,4.5809,4.972,5.201,5.4282,5.6127,5.7437,5.7437,5.7437,5.7437,5.7534,5.7437,5.7239,5.7239,5.7338,5.7388,5.7289,5.7388,5.7534,5.7289,5.6866,5.6334,5.6187,5.5136,5.4001,5.4001,5.3385,5.2806,5.2806,5.1692,5.0605,5.0605,4.8684,4.6975,4.6975,0.0,0.0,0.0,0.0,0.0,0.0,0.0,0.0,0.0,0.0,0.0,0.0,0.0,0.0,0.0,0.0,0.0,0.0,0.0,5.545,5.6971,5.8601,5.9506,5.9615,6.11,6.1933,6.2005,6.2005,6.2005,6.2005,6.184,6.184,6.184,6.184,6.184,6.1876,6.195,6.1968,6.2109,6.3437,6.418,6.4527,6.6007,6.6488,6.6269,3.2898,3.435,3.6184,3.8018,3.9852,4.1762,4.3864,4.4437,4.5277,4.7111,4.8831,5.0512,5.2193,5.3798,5.5059,5.5861,5.6587,5.6981,5.6916,5.6981,5.6599,5.5694,5.4231,5.2575,5.0741,4.7438,4.4613,4.2359,3.8801,3.5736,3.3146,3.2192,3.1873,3.2276,3.4734,3.8731,4.3866,4.7755,5.0725,5.3103,5.5386,5.6922,5.7715,5.7583,5.7534,5.7534,5.7583,5.7534,5.7534,5.7534,5.7534,5.7534,5.7534,5.7534,5.7583,5.7534,5.7462,5.7352,5.717,5.643,5.5741,5.5644,5.5015,5.4472,5.4578,5.3852,5.3244,5.3244,5.1318,4.9604,4.9517,0.0,0.0,0.0,0.0,0.0,0.0,0.0,0.0,0.0,0.0,0.0,0.0,0.0,0.0,0.0,0.0,0.0,0.0,0.0,5.4617,0.0,5.7768,5.8927,0.0,0.0,6.1353,6.2005,6.2005,6.2005,6.2005,6.195,6.195,6.195,6.195,6.195,6.195,6.2005,6.2404,6.3036,6.3977,6.4737,6.5461,6.6401,6.6727,6.6668,3.6489,3.7597,3.9126,4.1227,4.2641,4.4322,4.6882,4.7608,4.8181,4.8984,5.0971,5.2766,5.4027,5.567,5.6855,5.7237,5.7657,5.7886,5.7886,5.7886,5.7695,5.7275,5.567,5.3989,5.227,4.9234,4.6516,4.4071,4.0954,3.8201,3.5917,3.4512,3.41,3.4651,3.7955,4.1625,4.5553,4.882,5.161,5.3995,5.5843,5.7078,5.781,5.7763,5.7679,5.7679,5.781,5.781,5.781,5.7631,5.7631,5.7679,5.7583,5.7715,5.781,5.7631,5.7631,5.7679,5.7534,5.7195,5.6903,5.6855,5.6552,5.6346,5.6357,5.5738,5.5192,5.5192,5.3636,5.1806,5.0439,4.9191,0.0,0.0,0.0,0.0,0.0,0.0,0.0,0.0,0.0,0.0,0.0,0.0,0.0,0.0,0.0,0.0,0.0,0.0,5.4399,0.0,0.0,0.0,5.9615,0.0,6.1208,6.2005,6.2005,6.2005,6.2005,6.2005,6.2005,6.2005,6.2005,6.2005,6.2005,6.2005,6.2476,6.3273,6.407,6.4867,6.57,6.6496,6.6786,6.6822,3.989,4.0769,4.2106,4.4399,4.5507,4.698,4.948,5.0588,5.1123,5.1123,5.3034,5.4753,5.5823,5.7275,5.8154,5.8154,5.8307,5.8421,5.8421,5.8421,5.8421,5.8421,5.7008,5.5365,5.3645,5.1162,4.8624,4.5949,4.3064,4.0365,3.7899,3.6676,3.6618,3.7734,4.1258,4.4158,4.6617,4.9921,5.2527,5.4546,5.6255,5.7308,5.7857,5.7857,5.7857,5.7857,5.795,5.7997,5.795,5.7763,5.7763,5.7857,5.7715,5.7857,5.795,5.7763,5.7763,5.781,5.7679,5.7631,5.7667,5.7583,5.7583,5.7583,5.7667,5.7156,5.6682,5.6682,5.555,5.3827,5.1515,5.0983,0.0,0.0,0.0,0.0,0.0,0.0,0.0,0.0,0.0,0.0,0.0,0.0,0.0,0.0,0.0,0.0,0.0,0.0,0.0,0.0,0.0,5.8601,5.9615,0.0,6.1027,6.2005,6.2005,6.2005,6.2005,6.2005,6.2005,6.2005,6.2005,6.2005,6.2005,6.2005,6.2585,6.349,6.4142,6.5011,6.5917,6.6569,6.6786,6.6786,4.3367,4.4286,4.5454,4.715,4.8187,4.9586,5.204,5.3187,5.376,5.376,5.4639,5.5899,5.7504,5.8459,5.8994,5.8994,5.972,6.0179,6.0179,6.0179,6.0179,6.0179,5.9262,5.7963,5.6282,5.376,5.1484,4.944,4.6114,4.2297,3.8026,3.9222,4.0503,4.1809,4.3681,4.581,4.8306,5.1573,5.3518,5.462,5.6932,5.7923,5.7997,5.7997,5.7997,5.7997,5.7997,5.7997,5.7997,5.7997,5.7997,5.7997,5.795,5.7997,5.7997,5.795,5.7997,5.795,5.781,5.781,5.7763,5.7631,5.7583,5.7631,5.7763,5.7737,5.77,5.77,5.6875,5.565,5.3972,5.359,5.3326,0.0,0.0,0.0,0.0,0.0,0.0,0.0,0.0,0.0,0.0,0.0,0.0,0.0,0.0,0.0,0.0,0.0,0.0,5.4943,5.65,5.8058,5.9579,5.9687,6.0484,6.2005,6.2005,6.2005,6.2005,6.2005,6.2005,6.2005,6.2005,6.2005,6.2005,6.2005,6.2911,6.4287,6.4359,6.5337,6.6714,6.6786,6.6786,6.6786,4.7086,4.7492,4.8196,4.9854,5.0811,5.2035,5.4065,5.5059,5.5976,5.6969,5.739,5.7886,5.8536,5.9376,5.9873,5.9873,6.0179,6.0408,6.0408,6.0408,6.0408,6.0408,5.9568,5.8574,5.739,5.4868,5.2717,5.0901,4.8353,4.566,4.2913,4.3369,4.4101,4.5177,4.6561,4.853,5.0971,5.3056,5.4656,5.5978,5.7409,5.7997,5.7997,5.7997,5.7997,5.7997,5.7997,5.7997,5.7997,5.7997,5.7997,5.7997,5.7997,5.7997,5.7997,5.7997,5.7997,5.7997,5.795,5.7904,5.7904,5.7857,5.7857,5.7857,5.7904,5.7904,5.7904,5.7904,5.7554,5.6922,5.5789,5.5477,5.513,5.441,0.0,0.0,0.0,0.0,0.0,0.0,0.0,0.0,0.0,0.0,0.0,0.0,0.0,0.0,0.0,0.0,0.0,5.487,0.0,5.7985,5.9579,5.9615,6.0412,6.2005,6.2005,6.2005,6.2005,6.2005,6.2005,6.2005,6.2005,6.2005,6.2005,6.2005,6.2947,6.4396,6.4396,6.5374,6.6786,6.6786,6.6786,6.6786,5.0306,5.047,5.0988,5.2893,5.3651,5.4585,5.6257,5.6996,5.7848,5.93,5.9491,5.9491,5.9491,6.0026,6.0408,6.0408,6.0408,6.0408,6.0408,6.0408,6.0408,6.0408,5.9797,5.9109,5.8268,5.6243,5.4409,5.2728,5.0761,4.8606,4.6201,4.5644,4.6488,4.8491,4.9599,5.1262,5.3311,5.47,5.5889,5.6859,5.7666,5.7997,5.7997,5.7997,5.7997,5.7997,5.7997,5.7997,5.7997,5.7997,5.7997,5.7997,5.7997,5.7997,5.7997,5.7997,5.7997,5.7997,5.7997,5.7997,5.7997,5.7997,5.7997,5.7997,5.7997,5.7997,5.7997,5.7997,5.795,5.7674,5.7134,5.6885,5.6656,5.6108,0.0,0.0,0.0,5.3862,0.0,0.0,5.1592,5.046,4.8611,0.0,0.0,0.0,0.0,0.0,0.0,0.0,0.0,0.0,0.0,0.0,5.9579,5.9832,6.0665,6.2005,6.2005,6.2005,6.2005,6.2005,6.2005,6.2005,6.2005,6.2005,6.2041,6.2259,6.3164,6.4432,6.4649,6.5591,6.6786,6.6786,6.6786,6.6786,5.2833,5.3219,5.3975,5.6322,5.675,5.7301,5.8936,5.9125,5.9376,6.0255,6.037,6.037,6.037,6.037,6.0408,6.0408,6.0408,6.0408,6.0408,6.0408,6.0408,6.0408,6.037,5.9988,5.9109,5.8268,5.7046,5.5365,5.3607,5.0517,4.6259,4.5117,4.7222,5.1876,5.2704,5.3784,5.5059,5.6655,5.7149,5.6859,5.7666,5.7997,5.7997,5.7997,5.7997,5.7997,5.7997,5.7997,5.7997,5.7997,5.7997,5.7997,5.7997,5.7997,5.7997,5.7997,5.7997,5.7997,5.7997,5.7997,5.7997,5.7997,5.7997,5.7997,5.7997,5.7997,5.7997,5.7997,5.7997,5.7997,5.7997,5.7867,5.7821,5.796,5.7078,0.0,0.0,5.5779,0.0,5.4045,5.3918,5.2881,5.0526,0.0,0.0,0.0,0.0,0.0,0.0,0.0,0.0,5.487,5.7188,0.0,5.9615,6.0412,6.1208,6.2005,6.2005,6.2005,6.2005,6.2005,6.2005,6.2005,6.2005,6.2005,6.2078,6.2875,6.3671,6.4468,6.5265,6.6098,6.6786,6.6786,6.6786,6.6786,5.5874,5.6001,5.6348,5.752,5.8155,5.8681,5.9128,5.966,6.0102,6.037,6.0408,6.0408,6.0408,6.0408,6.0408,6.0408,6.0408,6.0408,6.0408,6.0408,6.0408,6.0408,6.0408,6.0255,5.9988,5.9147,5.8192,5.7084,5.5938,5.4384,5.2501,5.212,5.3095,5.5123,5.5148,5.5983,5.7397,5.7714,5.7896,5.8085,5.8598,5.8628,5.8455,5.871,5.8628,5.8455,5.871,5.8628,5.8412,5.8412,5.8412,5.8369,5.8088,5.7997,5.7997,5.7997,5.7997,5.7997,5.7997,5.7997,5.7997,5.7997,5.7997,5.7997,5.7997,5.7997,5.7997,5.7997,5.7997,5.7997,5.7997,5.795,5.795,5.7997,5.7637,5.7361,5.7408,0.0,5.6525,5.5723,5.565,5.4875,0.0,5.2999,0.0,0.0,0.0,0.0,0.0,0.0,0.0,0.0,5.7442,0.0,5.9615,6.0412,6.1208,6.2005,6.2005,6.2005,6.2005,6.2005,6.2005,6.2005,6.2005,6.2005,6.2078,6.2875,6.3671,6.4468,6.5301,6.6098,6.6786,6.6786,6.6786,6.6786,5.8293,5.8348,5.8445,5.9143,5.9557,5.9754,5.9728,6.0108,6.0408,6.0408,6.0408,6.0408,6.0408,6.0408,6.0408,6.0408,6.0408,6.0408,6.0408,6.0408,6.0408,6.0408,6.0408,6.0408,6.0408,5.9873,5.9185,5.8345,5.7504,5.6816,5.6358,5.6358,5.6778,5.7542,5.7311,5.7886,5.8976,5.8744,5.8727,5.887,5.9103,5.9065,5.887,5.9103,5.9065,5.887,5.9103,5.9065,5.8831,5.8831,5.8831,5.8791,5.854,5.8455,5.8369,5.8088,5.7997,5.7997,5.7997,5.7997,5.7997,5.7997,5.7997,5.7997,5.7997,5.7997,5.7997,5.7997,5.7997,5.7997,5.7997,5.7997,5.7997,5.7997,5.795,5.7904,5.7904,5.781,5.7543,0.0,0.0,0.0,0.0,5.4875,5.4672,0.0,0.0,0.0,0.0,0.0,5.5522,5.5993,5.784,5.9108,5.9615,6.0701,6.1498,6.2005,6.2005,6.2005,6.2005,6.2005,6.2005,6.2005,6.2005,6.2186,6.2512,6.3309,6.4106,6.4939,6.5736,6.6351,6.6786,6.6786,6.6786,6.6786,6.0174,6.0188,6.0289,6.0923,6.0773,6.061,6.0585,6.0518,6.0398,6.0398,6.0398,6.0436,6.0436,6.0436,6.0436,6.0408,6.0408,6.0408,6.0408,6.0408,6.0408,6.0408,6.0408,6.0408,6.0408,6.0408,5.9988,5.9185,5.8459,5.8077,5.8077,5.8077,5.8459,5.9185,5.9185,5.9435,5.9842,5.9842,5.9605,5.9252,5.9289,5.9326,5.9327,5.9364,5.9401,5.9402,5.9439,5.9401,5.9327,5.9327,5.929,5.9252,5.9215,5.9215,5.9065,5.8282,5.8088,5.8042,5.8042,5.8042,5.7997,5.8042,5.8042,5.8042,5.7997,5.8042,5.8042,5.8042,5.8088,5.8051,5.8042,5.8042,5.8042,5.7997,5.7997,5.7997,5.7997,5.7997,5.7997,5.7997,0.0,0.0,5.6795,5.6583,5.6113,0.0,0.0,0.0,0.0,0.0,5.621,5.6174,5.8383,5.9651,5.9687,6.1245,6.2005,6.2005,6.2005,6.2005,6.2005,6.2005,6.2005,6.2005,6.2005,6.2476,6.3237,6.407,6.4867,6.5663,6.6496,6.6786,6.6786,6.6786,6.6786,6.6786,6.1197,6.1159,6.111,6.1018,6.0905,6.0817,6.0685,6.0585,6.0533,6.0533,6.0533,6.0506,6.0453,6.0491,6.0464,6.037,6.0408,6.0408,6.0408,6.0408,6.0408,6.0408,6.0408,6.0408,6.0408,6.0408,6.0293,6.0102,5.9911,5.9797,5.9797,5.9797,5.9911,6.0102,6.0102,6.0151,6.0256,6.0256,6.0038,5.9673,5.9969,6.0317,6.0619,6.0881,6.1267,6.1599,6.1901,6.1386,6.0547,6.0547,6.0169,5.9605,5.9289,5.9215,5.9178,5.8988,5.871,5.8455,5.8455,5.8231,5.8051,5.8369,5.8455,5.8369,5.8088,5.8231,5.8455,5.8455,5.871,5.8831,5.8503,5.8455,5.8369,5.8042,5.7997,5.7997,5.7997,5.7997,5.7997,5.7997,5.7997,5.7877,5.7694,5.7564,5.7397,0.0,0.0,5.8141,5.7992,5.8573,5.8558,5.784,5.8999,5.9905,6.052,6.1498,6.2005,6.2005,6.2005,6.2005,6.2005,6.2005,6.2005,6.2005,6.2005,6.2476,6.3237,6.407,6.4867,6.5663,6.6496,6.6786,6.6786,6.6786,6.6786,6.6786,6.1595,6.1556,6.1401,6.1136,6.0982,6.0843,6.0734,6.0635,6.0585,6.0585,6.0585,6.0597,6.0533,6.0571,6.0545,6.0425,6.0436,6.0408,6.0408,6.0408,6.0408,6.0408,6.0408,6.0408,6.0408,6.0408,6.0408,6.0408,6.0408,6.0408,6.0408,6.0408,6.0408,6.0408,6.0408,6.0408,6.0408,6.0408,6.0475,6.0632,6.0848,6.1315,6.1888,6.2107,6.2353,6.2573,6.2833,6.2468,6.1856,6.1856,6.1286,6.057,6.0373,6.0042,5.9777,5.9777,5.9361,5.887,5.887,5.871,5.8586,5.8831,5.887,5.8831,5.8586,5.871,5.887,5.887,5.9065,5.914,5.891,5.887,5.875,5.8326,5.8238,5.8342,5.8557,5.8547,5.8694,5.9061,5.9098,5.9098,5.9098,5.9051,5.8956,5.8908,5.9262,0.0,5.9233,5.9634,5.9605,5.8963,5.9724,6.0375,6.081,6.1607,6.2005,6.2005,6.2005,6.2005,6.2005,6.2005,6.2005,6.2041,6.2404,6.3019,6.3816,6.4613,6.541,6.6207,6.6641,6.6786,6.6786,6.6786,6.6786,6.6786,6.172,6.1595,6.1481,6.1279,6.1081,6.0945,6.0766,6.071,6.066,6.061,6.061,6.0649,6.0649,6.0649,6.0559,6.0506,6.0425,6.0436,6.0408,6.0408,6.0408,6.0408,6.0408,6.0408,6.0408,6.0408,6.0408,6.0408,6.0408,6.0408,6.0408,6.0408,6.0408,6.0408,6.0408,6.0446,6.0561,6.0561,6.1058,6.1784,6.1784,6.2319,6.3121,6.3121,6.3159,6.3274,6.3274,6.3197,6.3121,6.3121,6.251,6.1784,6.1784,6.1325,6.079,6.079,6.021,5.9512,5.9363,5.9289,5.9289,5.9215,5.9252,5.9289,5.9215,5.9252,5.9289,5.9289,5.9361,5.9361,5.9325,5.9289,5.9178,5.875,5.8821,5.899,5.9283,5.9412,5.9742,6.0309,6.0419,6.0419,6.0419,6.0419,6.0334,6.0237,6.0347,6.0322,6.0222,6.0332,6.0253,6.003,6.0574,6.0936,6.0991,6.1679,6.2005,6.2005,6.2005,6.2005,6.2005,6.2005,6.2078,6.2223,6.2911,6.3708,6.4613,6.5301,6.6062,6.6786,6.6786,6.6786,6.6786,6.6786,6.6786,6.6786,6.172,6.1671,6.1609,6.1481,6.145,6.1318,6.1002,6.0925,6.0902,6.0781,6.0757,6.0734,6.0685,6.0685,6.0635,6.0585,6.0506,6.0491,6.037,6.0408,6.0408,6.0408,6.0408,6.0408,6.0408,6.0408,6.0408,6.0408,6.0408,6.0408,6.0408,6.0408,6.0408,6.0408,6.0408,6.079,6.1402,6.1402,6.1898,6.2701,6.2701,6.3236,6.4,6.4,6.442,6.4993,6.4993,6.4573,6.4,6.4,6.3427,6.2701,6.2701,6.2624,6.251,6.251,6.1917,6.1005,5.9961,5.9744,5.9605,5.9289,5.9467,5.9605,5.9289,5.9467,5.9744,5.9744,5.9969,6.0099,5.9777,5.9744,5.9571,5.9178,5.9703,6.0073,5.977,6.0358,6.07,6.043,6.0419,6.0419,6.0419,6.0419,6.0419,6.0371,6.0995,6.1312,6.1163,6.1821,6.2135,6.198,6.1433,6.1418,6.195,6.1987,6.2005,6.2005,6.2005,6.2005,6.2005,6.2005,6.2367,6.3019,6.3128,6.4033,6.541,6.5555,6.6062,6.6786,6.6786,6.6786,6.6786,6.6786,6.6786,6.6786,6.172,6.172,6.166,6.1509,6.149,6.1401,6.1151,6.1074,6.0964,6.0902,6.0834,6.0781,6.0757,6.0734,6.071,6.066,6.061,6.0559,6.0506,6.0464,6.0408,6.0408,6.0408,6.0408,6.0408,6.0408,6.0408,6.0408,6.0408,6.0408,6.0408,6.0828,6.1058,6.1058,6.1554,6.1936,6.2319,6.2319,6.2815,6.3579,6.3579,6.4114,6.484,6.484,6.507,6.5413,6.5413,6.5146,6.484,6.484,6.4305,6.3579,6.3579,6.3274,6.2892,6.2892,6.228,6.1373,6.0387,6.0129,6.0099,5.9906,5.9969,6.0182,6.0443,6.0653,6.089,6.1385,6.1239,6.0991,6.0806,6.0776,6.0615,6.0214,6.0896,6.1467,6.1497,6.1827,6.2071,6.2068,6.2096,6.1956,6.1704,6.1704,6.1704,6.1704,6.2034,6.2205,6.2155,6.2522,6.2654,6.2603,6.2068,6.1875,6.2185,6.206,6.2005,6.2005,6.2005,6.2005,6.2005,6.2005,6.244,6.32,6.3635,6.4504,6.5627,6.6062,6.646,6.6786,6.6786,6.6786,6.6786,6.6786,6.6786,6.6786,6.172,6.172,6.1666,6.1573,6.1564,6.149,6.1304,6.1182,6.1092,6.1002,6.0902,6.085,6.0781,6.0781,6.0757,6.071,6.071,6.066,6.061,6.0506,6.0464,6.0398,6.0436,6.0408,6.0408,6.0408,6.0485,6.0676,6.0676,6.079,6.0981,6.1593,6.1898,6.1936,6.2586,6.3006,6.3197,6.3197,6.3694,6.4458,6.4458,6.484,6.5413,6.5413,6.5413,6.5413,6.5413,6.5413,6.5413,6.5413,6.4993,6.4458,6.4458,6.4,6.3503,6.3503,6.2853,6.2013,6.1211,6.0981,6.0981,6.0981,6.0981,6.1134,6.1745,6.1898,6.2089,6.2777,6.2204,6.1669,6.186,6.1745,6.1544,6.1451,6.2178,6.2838,6.3013,6.32,6.3421,6.36,6.3631,6.349,6.3014,6.2965,6.2953,6.2805,6.2805,6.2805,6.2805,6.2805,6.2805,6.2805,6.2449,6.2291,6.2291,6.2114,6.206,6.206,6.2005,6.2005,6.2041,6.2186,6.273,6.349,6.4323,6.512,6.5917,6.6533,6.6786,6.6786,6.6786,6.6786,6.6786,6.6786,6.6786,6.6786,6.172,6.172,6.1715,6.1676,6.1676,6.1654,6.149,6.1471,6.1343,6.1039,6.0983,6.0943,6.0804,6.0781,6.0781,6.0781,6.0734,6.0685,6.0685,6.061,6.0571,6.0518,6.0425,6.0408,6.0408,6.0408,6.0752,6.1516,6.1516,6.1936,6.2739,6.2777,6.2815,6.2815,6.2892,6.335,6.4076,6.4076,6.4573,6.5299,6.5299,6.5337,6.5413,6.5413,6.5413,6.5413,6.5413,6.5413,6.5413,6.5413,6.5375,6.5299,6.5299,6.5261,6.5222,6.5222,6.4649,6.3809,6.2968,6.2739,6.2739,6.2739,6.2739,6.2739,6.2777,6.2815,6.2815,6.2892,6.2204,6.186,6.2662,6.2128,6.186,6.2633,6.3473,6.3924,6.3524,6.4133,6.4519,6.4096,6.4056,6.393,6.349,6.3445,6.3299,6.2855,6.2805,6.2805,6.2805,6.2805,6.2805,6.2805,6.2654,6.2552,6.2552,6.2291,6.2222,6.2185,6.206,6.2005,6.2041,6.2766,6.3526,6.4359,6.5156,6.5953,6.6714,6.6786,6.6786,6.6786,6.6786,6.6786,6.6786,6.6786,6.6786,6.6786,6.172,6.172,6.172,6.172,6.172,6.1671,6.1609,6.1564,6.1461,6.1331,6.1196,6.107,6.0943,6.0923,6.0899,6.0804,6.0757,6.0757,6.0757,6.0685,6.061,6.048,6.095,6.119,6.1134,6.1669,6.2089,6.2433,6.2433,6.2586,6.293,6.3465,6.3694,6.3732,6.4229,6.4649,6.4955,6.4955,6.5108,6.5413,6.5413,6.5413,6.5413,6.5413,6.5413,6.5413,6.5413,6.5413,6.5413,6.5413,6.5413,6.5413,6.5413,6.5413,6.5413,6.5413,6.5184,6.4879,6.4535,6.3694,6.2892,6.2892,6.2892,6.3045,6.3579,6.3694,6.3847,6.4344,6.377,6.3312,6.3656,6.3427,6.3312,6.3656,6.4382,6.4886,6.4692,6.4959,6.5019,6.4557,6.452,6.4369,6.393,6.3631,6.34,6.3252,6.2965,6.2805,6.2805,6.2805,6.2805,6.2805,6.2755,6.2705,6.2603,6.2397,6.2291,6.2291,6.2222,6.2114,6.2114,6.2967,6.3747,6.4432,6.5343,6.6141,6.6786,6.6786,6.6786,6.6786,6.6786,6.6786,6.6786,6.6786,6.6786,6.6786,6.172,6.172,6.172,6.172,6.172,6.172,6.172,6.1609,6.1564,6.149,6.139,6.1239,6.107,6.1039,6.0945,6.0877,6.0827,6.0781,6.0781,6.0734,6.066,6.0571,6.131,6.1743,6.1715,6.2529,6.3074,6.3341,6.3312,6.3427,6.3694,6.4305,6.4573,6.4611,6.5146,6.5413,6.5413,6.5413,6.5413,6.5413,6.5413,6.5413,6.5413,6.5413,6.5413,6.5413,6.5413,6.5413,6.5413,6.5413,6.5413,6.5413,6.5413,6.5413,6.5413,6.5413,6.5413,6.5413,6.5413,6.4573,6.3694,6.3694,6.3694,6.3847,6.442,6.4573,6.4726,6.5299,6.4764,6.4267,6.4535,6.4344,6.4267,6.4535,6.5031,6.5413,6.5413,6.5413,6.5283,6.5019,6.4985,6.481,6.4369,6.4094,6.3846,6.3674,6.34,6.3121,6.3014,6.2904,6.2805,6.2805,6.2805,6.2755,6.2654,6.25,6.2449,6.2449,6.2291,6.2384,6.2639,6.3439,6.422,6.4964,6.582,6.6453,6.6845,6.6786,6.6786,6.6786,6.6786,6.6786,6.6786,6.6786,6.6786,6.6786,6.172,6.172,6.172,6.172,6.172,6.172,6.172,6.172,6.166,6.15,6.149,6.1412,6.1214,6.1087,6.1002,6.1002,6.0877,6.0781,6.0781,6.0781,6.0734,6.0623,6.1428,6.1888,6.1888,6.264,6.3427,6.4307,6.425,6.4611,6.5413,6.5413,6.5413,6.5413,6.5413,6.5413,6.5413,6.5413,6.5413,6.5413,6.5413,6.5413,6.5413,6.5413,6.5413,6.5413,6.5413,6.5413,6.5413,6.5413,6.5413,6.5413,6.5413,6.5413,6.5413,6.5413,6.5413,6.5413,6.5413,6.5413,6.5413,6.5413,6.5413,6.5413,6.5413,6.5413,6.5413,6.5413,6.4764,6.4458,6.5261,6.4764,6.4458,6.5261,6.5413,6.5413,6.5413,6.5413,6.5413,6.5413,6.5413,6.5252,6.4845,6.4775,6.4631,6.4136,6.4096,6.393,6.3535,6.3062,6.2805,6.2805,6.2805,6.2805,6.2805,6.2654,6.2603,6.2603,6.2449,6.2834,6.3636,6.4439,6.5241,6.6043,6.6713,6.6983,6.7019,6.6845,6.6786,6.6786,6.6786,6.6786,6.6786,6.6786,6.6786,6.6786,6.172,6.172,6.172,6.172,6.172,6.172,6.172,6.172,6.1676,6.1654,6.1654,6.1588,6.1412,6.1367,6.1266,6.1167,6.102,6.0882,6.0804,6.0781,6.0757,6.0734,6.2068,6.2785,6.2732,6.4123,6.4967,6.5235,6.5207,6.5293,6.5465,6.5465,6.5435,6.5413,6.5413,6.5413,6.5413,6.5413,6.5413,6.5413,6.5413,6.5413,6.5413,6.5413,6.5413,6.5413,6.5413,6.5413,6.5413,6.5413,6.5413,6.5413,6.5413,6.5413,6.5413,6.5413,6.5413,6.5413,6.5413,6.5413,6.5413,6.5413,6.5413,6.5413,6.5413,6.5413,6.5413,6.5413,6.5222,6.5108,6.5375,6.5184,6.5108,6.5375,6.5413,6.5413,6.5413,6.5413,6.5413,6.5413,6.5413,6.5345,6.5252,6.4985,6.4739,6.4593,6.4292,6.4056,6.393,6.3498,6.3262,6.3262,6.2965,6.2805,6.2805,6.2755,6.2755,6.2755,6.2603,6.2991,6.3795,6.4636,6.5386,6.6043,6.6938,6.7303,6.7154,6.7097,6.7019,6.6961,6.6961,6.6903,6.6786,6.6786,6.6786,6.6786,6.172,6.172,6.172,6.172,6.172,6.172,6.172,6.172,6.172,6.172,6.172,6.1666,6.1588,6.1509,6.1461,6.1316,6.1182,6.1039,6.0899,6.0877,6.0834,6.0781,6.2348,6.3245,6.3194,6.4819,6.5674,6.5674,6.5608,6.558,6.5552,6.5523,6.5465,6.5435,6.5413,6.5413,6.5413,6.5413,6.5413,6.5413,6.5413,6.5413,6.5413,6.5413,6.5413,6.5413,6.5413,6.5413,6.5413,6.5413,6.5413,6.5413,6.5413,6.5413,6.5413,6.5413,6.5413,6.5413,6.5413,6.5413,6.5413,6.5413,6.5413,6.5413,6.5413,6.5413,6.5413,6.5413,6.5413,6.5413,6.5413,6.5413,6.5413,6.5413,6.5413,6.5413,6.5413,6.5413,6.5413,6.5413,6.5413,6.5413,6.5413,6.5188,6.5052,6.5052,6.463,6.4369,6.4369,6.3971,6.3631,6.349,6.3215,6.2965,6.2805,6.2805,6.2805,6.2805,6.3035,6.3621,6.4412,6.5307,6.6023,6.6683,6.725,6.7414,6.7322,6.721,6.7154,6.7097,6.7097,6.7019,6.6903,6.6903,6.6845,6.6786,6.172,6.172,6.172,6.172,6.172,6.172,6.172,6.172,6.172,6.172,6.172,6.172,6.172,6.1588,6.15,6.15,6.1328,6.1182,6.1039,6.102,6.0983,6.0927,6.2483,6.3344,6.3421,6.5,6.5793,6.5793,6.5701,6.5608,6.5608,6.5552,6.5523,6.5494,6.5435,6.5413,6.5413,6.5413,6.5413,6.5413,6.5413,6.5413,6.5413,6.5413,6.5413,6.5413,6.5413,6.5413,6.5413,6.5413,6.5413,6.5413,6.5413,6.5413,6.5413,6.5413,6.5413,6.5413,6.5413,6.5413,6.5413,6.5413,6.5413,6.5413,6.5413,6.5413,6.5413,6.5413,6.5413,6.5413,6.5413,6.5413,6.5413,6.5413,6.5413,6.5413,6.5413,6.5413,6.5413,6.5413,6.5413,6.5413,6.5413,6.5413,6.5413,6.5413,6.5052,6.4845,6.4845,6.4407,6.3975,6.3624,6.3535,6.3262,6.2855,6.2805,6.2805,6.2805,6.3686,6.453,6.5338,6.6145,6.6953,6.7687,6.7579,6.7561,6.747,6.7322,6.7266,6.721,6.721,6.7154,6.7019,6.7019,6.6961,6.6845,6.172,6.172,6.172,6.172,6.172,6.172,6.172,6.172,6.172,6.172,6.172,6.172,6.172,6.1671,6.166,6.166,6.1517,6.1367,6.1182,6.1182,6.1438,6.2105,6.3033,6.3822,6.4461,6.5418,6.5872,6.5872,6.5872,6.582,6.5767,6.5767,6.5674,6.558,6.5494,6.5465,6.5465,6.5405,6.5413,6.5413,6.5413,6.5413,6.5413,6.5413,6.5413,6.5413,6.5413,6.5413,6.5413,6.5413,6.5413,6.5413,6.5413,6.5413,6.5413,6.5413,6.5413,6.5413,6.5413,6.5413,6.5413,6.5413,6.5413,6.5413,6.5413,6.5413,6.5413,6.5413,6.5413,6.5413,6.5413,6.5413,6.5413,6.5413,6.5413,6.5413,6.5413,6.5413,6.5413,6.5413,6.5413,6.5413,6.5413,6.5413,6.5413,6.5413,6.5314,6.5283,6.5283,6.4879,6.4631,6.452,6.3846,6.3445,6.3354,6.2965,6.2805,6.2805,6.3686,6.453,6.5338,6.6145,6.6953,6.7687,6.7687,6.7633,6.7633,6.7633,6.7524,6.7414,6.7414,6.7359,6.7154,6.7154,6.7154,6.7097,6.172,6.172,6.172,6.172,6.172,6.172,6.172,6.172,6.172,6.172,6.172,6.172,6.172,6.172,6.172,6.172,6.1654,6.1517,6.1328,6.1328,6.1693,6.2482,6.3285,6.4089,6.4903,6.5683,6.6019,6.5897,6.5897,6.5872,6.5846,6.582,6.5767,6.5701,6.558,6.5523,6.5494,6.5465,6.5405,6.5413,6.5413,6.5413,6.5413,6.5413,6.5413,6.5413,6.5413,6.5413,6.5413,6.5413,6.5413,6.5413,6.5413,6.5413,6.5413,6.5413,6.5413,6.5413,6.5413,6.5413,6.5413,6.5413,6.5413,6.5413,6.5413,6.5413,6.5413,6.5413,6.5413,6.5413,6.5413,6.5413,6.5413,6.5413,6.5413,6.5413,6.5413,6.5413,6.5413,6.5413,6.5413,6.5413,6.5413,6.5413,6.5413,6.5413,6.5413,6.5413,6.5413,6.522,6.5019,6.481,6.4331,6.393,6.349,6.3252,6.3235,6.3429,6.4273,6.5081,6.5888,6.6696,6.7283,6.7687,6.7687,6.7687,6.7687,6.7687,6.7633,6.7579,6.7579,6.747,6.7322,6.7322,6.7266,6.721,6.172,6.172,6.172,6.172,6.172,6.172,6.172,6.172,6.172,6.172,6.172,6.172,6.172,6.172,6.172,6.172,6.172,6.166,6.1556,6.1673,6.2065,6.2782,6.3612,6.4454,6.5362,6.598,6.6185,6.5933,6.5933,6.5909,6.5897,6.5846,6.582,6.582,6.5701,6.558,6.5523,6.5523,6.5465,6.5444,6.5444,6.5413,6.5413,6.5405,6.5444,6.5444,6.5405,6.5405,6.5405,6.5444,6.5444,6.5444,6.5413,6.5413,6.5413,6.5413,6.5413,6.5413,6.5413,6.5413,6.5413,6.5413,6.5413,6.5413,6.5413,6.5413,6.5413,6.5413,6.5413,6.5413,6.5413,6.5413,6.5413,6.5413,6.5413,6.5413,6.5413,6.5413,6.5413,6.5413,6.5413,6.5413,6.5413,6.5413,6.5413,6.5413,6.5413,6.5413,6.5413,6.5413,6.5252,6.4917,6.4848,6.4445,6.3718,6.3729,6.3975,6.4425,6.5169,6.5852,6.6512,6.732,6.7687,6.7687,6.7687,6.7687,6.7687,6.7687,6.7687,6.7687,6.7687,6.7633,6.7524,6.7524,6.7414,6.7266,6.172,6.172,6.172,6.172,6.172,6.172,6.172,6.172,6.172,6.172,6.172,6.172,6.172,6.172,6.172,6.172,6.172,6.1676,6.1671,6.2374,6.3149,6.4001,6.4714,6.5522,6.6379,6.6347,6.6217,6.6067,6.6067,6.5997,6.5897,6.5897,6.5897,6.5872,6.582,6.5767,6.5767,6.5646,6.5552,6.5494,6.5494,6.5435,6.5413,6.5465,6.5494,6.5494,6.5552,6.558,6.5552,6.5494,6.5494,6.5465,6.5444,6.5413,6.5413,6.5413,6.5413,6.5413,6.5413,6.5413,6.5413,6.5413,6.5413,6.5413,6.5413,6.5413,6.5413,6.5413,6.5413,6.5413,6.5413,6.5413,6.5413,6.5413,6.5413,6.5413,6.5413,6.5413,6.5413,6.5413,6.5413,6.5413,6.5413,6.5413,6.5413,6.5413,6.5413,6.5413,6.5413,6.5413,6.5383,6.5314,6.4985,6.4739,6.4631,6.4556,6.493,6.5652,6.6095,6.6402,6.6512,6.732,6.7687,6.7687,6.7687,6.7687,6.7687,6.7687,6.7687,6.7687,6.7687,6.7687,6.7687,6.7687,6.7633,6.7633,6.172,6.172,6.172,6.172,6.172,6.172,6.172,6.172,6.172,6.172,6.172,6.172,6.172,6.172,6.172,6.172,6.172,6.1915,6.2384,6.2774,6.3594,6.496,6.5322,6.5854,6.6674,6.6633,6.6524,6.6383,6.6185,6.6067,6.5997,6.5933,6.5897,6.5897,6.5872,6.582,6.5793,6.5767,6.5674,6.5552,6.5552,6.5523,6.5494,6.5552,6.5552,6.5552,6.558,6.5608,6.5608,6.5552,6.5552,6.5552,6.5523,6.5465,6.5435,6.5435,6.5405,6.5413,6.5413,6.5413,6.5413,6.5413,6.5413,6.5413,6.5413,6.5413,6.5413,6.5413,6.5413,6.5413,6.5413,6.5413,6.5413,6.5413,6.5413,6.5413,6.5413,6.5413,6.5413,6.5413,6.5413,6.5413,6.5413,6.5413,6.5413,6.5413,6.5413,6.5413,6.5413,6.5413,6.5413,6.5413,6.5252,6.5019,6.4775,6.5237,6.5619,6.5895,6.6556,6.7008,6.7173,6.754,6.7687,6.7687,6.7687,6.7687,6.7687,6.7687,6.7687,6.7687,6.7687,6.7687,6.7687,6.7687,6.7687,6.7687]},{"header":{"parameterUnit":"m.s-1","parameterCategory":1,"la1":30.6,"la2":28.766,"lo1":-90.7593,"lo2":-88.6598,"dx":0.0162,"dy":0.0183,"nx":116,"ny":114,"refTime":"2022-12-12T18:00:00:Z","depth":0,"parameterNumber":3,"parameterNumberName":"V-component_of_WINDS"},"data":[0.0,0.0,0.0,0.0,0.0,0.0,0.0,0.0,0.0,0.0,0.0,0.0,0.0,0.0,0.0,0.0,0.0,0.0,0.0,0.0,0.0,0.0,0.0,0.0,0.0,0.0,0.0,0.0,0.0,0.0,0.0,0.0,0.0,0.0,0.0,0.0,0.0,0.0,0.0,0.0,0.0,0.0,0.0,0.0,0.0,0.0,0.0,0.0,0.0,0.0,0.0,0.0,0.0,0.0,0.0,0.0,0.0,0.0,0.0,0.0,0.0,0.0,0.0,0.0,0.0,0.0,0.0,0.0,0.0,0.0,0.0,0.0,0.0,0.0,0.0,0.0,0.0,0.0,0.0,0.0,0.0,0.0,0.0,0.0,0.0,0.0,0.0,0.0,0.0,0.0,0.0,0.0,0.0,0.0,0.0,0.0,0.0,0.0,0.0,0.0,0.0,0.0,0.0,0.0,0.0,0.0,0.0,0.0,0.0,0.0,0.0,0.0,0.0,0.0,0.0,0.0,0.0,0.0,0.0,0.0,0.0,0.0,0.0,0.0,0.0,0.0,0.0,0.0,0.0,0.0,0.0,0.0,0.0,0.0,0.0,0.0,0.0,0.0,0.0,0.0,0.0,0.0,0.0,0.0,0.0,0.0,0.0,0.0,0.0,0.0,0.0,0.0,0.0,0.0,0.0,0.0,0.0,0.0,0.0,0.0,0.0,0.0,0.0,0.0,0.0,0.0,0.0,0.0,0.0,0.0,0.0,0.0,0.0,0.0,0.0,0.0,0.0,0.0,0.0,0.0,0.0,0.0,0.0,0.0,0.0,0.0,0.0,0.0,0.0,0.0,0.0,0.0,0.0,0.0,0.0,0.0,0.0,0.0,0.0,0.0,0.0,0.0,0.0,0.0,0.0,0.0,0.0,0.0,0.0,0.0,0.0,0.0,0.0,0.0,0.0,0.0,0.0,0.0,0.0,0.0,0.0,0.0,0.0,0.0,0.0,0.0,0.0,0.0,0.0,0.0,0.0,0.0,0.0,0.0,0.0,0.0,0.0,0.0,0.0,0.0,0.0,0.0,0.0,0.0,0.0,0.0,0.0,0.0,0.0,0.0,0.0,0.0,0.0,0.0,0.0,0.0,0.0,0.0,0.0,0.0,0.0,0.0,0.0,0.0,0.0,0.0,0.0,0.0,0.0,0.0,0.0,0.0,0.0,0.0,0.0,0.0,0.0,0.0,0.0,0.0,0.0,0.0,0.0,0.0,0.0,0.0,0.0,0.0,0.0,0.0,0.0,0.0,0.0,0.0,0.0,0.0,0.0,0.0,0.0,0.0,0.0,0.0,0.0,0.0,0.0,0.0,0.0,0.0,0.0,0.0,0.0,0.0,0.0,0.0,0.0,0.0,0.0,0.0,0.0,0.0,0.0,0.0,0.0,0.0,0.0,0.0,0.0,0.0,0.0,0.0,0.0,0.0,0.0,0.0,0.0,0.0,0.0,0.0,0.0,0.0,0.0,0.0,0.0,0.0,0.0,0.0,0.0,0.0,0.0,0.0,0.0,0.0,0.0,0.0,0.0,0.0,0.0,0.0,0.0,0.0,0.0,0.0,0.0,0.0,0.0,0.0,0.0,0.0,0.0,0.0,0.0,0.0,0.0,0.0,0.0,0.0,0.0,0.0,0.0,0.0,0.0,0.0,0.0,0.0,0.0,0.0,0.0,0.0,0.0,0.0,0.0,0.0,0.0,0.0,0.0,0.0,0.0,0.0,0.0,0.0,0.0,0.0,0.0,0.0,0.0,0.0,0.0,0.0,0.0,0.0,0.0,0.0,0.0,0.0,0.0,0.0,0.0,0.0,0.0,0.0,0.0,0.0,0.0,0.0,0.0,0.0,0.0,0.0,0.0,0.0,0.0,0.0,0.0,0.0,0.0,0.0,0.0,0.0,0.0,0.0,0.0,0.0,0.0,0.0,0.0,0.0,0.0,0.0,0.0,0.0,0.0,0.0,0.0,0.0,0.0,0.0,0.0,0.0,0.0,0.0,0.0,0.0,0.0,0.0,0.0,0.0,0.0,0.0,0.0,0.0,0.0,0.0,0.0,0.0,0.0,0.0,0.0,0.0,0.0,0.0,0.0,0.0,0.0,0.0,0.0,0.0,0.0,0.0,0.0,0.0,0.0,0.0,0.0,0.0,0.0,0.0,0.0,0.0,0.0,0.0,0.0,0.0,0.0,0.0,0.0,0.0,0.0,0.0,0.0,0.0,0.0,0.0,0.0,0.0,0.0,0.0,0.0,0.0,0.0,0.0,0.0,0.0,0.0,0.0,0.0,0.0,0.0,0.0,0.0,0.0,0.0,0.0,0.0,0.0,0.0,0.0,0.0,0.0,0.0,0.0,0.0,0.0,0.0,0.0,0.0,0.0,0.0,0.0,0.0,0.0,0.0,0.0,0.0,0.0,0.0,0.0,0.0,0.0,0.0,0.0,0.0,0.0,0.0,0.0,0.0,0.0,0.0,0.0,0.0,0.0,0.0,0.0,0.0,0.0,0.0,0.0,0.0,0.0,0.0,0.0,0.0,0.0,0.0,0.0,0.0,0.0,0.0,0.0,0.0,0.0,0.0,0.0,0.0,0.0,0.0,0.0,0.0,0.0,0.0,0.0,0.0,0.0,0.0,0.0,0.0,0.0,0.0,0.0,0.0,0.0,0.0,0.0,0.0,0.0,0.0,0.0,0.0,0.0,0.0,0.0,0.0,0.0,0.0,0.0,0.0,0.0,0.0,0.0,0.0,0.0,0.0,0.0,0.0,0.0,0.0,0.0,0.0,0.0,0.0,0.0,0.0,0.0,0.0,0.0,0.0,0.0,0.0,0.0,0.0,0.0,0.0,0.0,0.0,0.0,0.0,0.0,0.0,0.0,0.0,0.0,0.0,0.0,0.0,0.0,0.0,0.0,0.0,0.0,0.0,0.0,0.0,0.0,0.0,0.0,0.0,0.0,0.0,0.0,0.0,0.0,0.0,0.0,0.0,0.0,0.0,0.0,0.0,0.0,0.0,0.0,0.0,0.0,0.0,0.0,0.0,0.0,0.0,0.0,0.0,0.0,0.0,0.0,0.0,0.0,0.0,0.0,0.0,0.0,0.0,0.0,0.0,0.0,0.0,0.0,0.0,0.0,0.0,0.0,0.0,0.0,0.0,0.0,0.0,0.0,0.0,0.0,0.0,0.0,0.0,0.0,0.0,0.0,0.0,0.0,0.0,0.0,0.0,0.0,0.0,0.0,0.0,0.0,0.0,0.0,0.0,0.0,0.0,0.0,0.0,0.0,0.0,0.0,0.0,0.0,0.0,0.0,0.0,0.0,0.0,0.0,0.0,0.0,0.0,0.0,0.0,0.0,0.0,0.0,0.0,0.0,0.0,0.0,0.0,0.0,0.0,0.0,0.0,0.0,0.0,0.0,0.0,0.0,0.0,0.0,0.0,0.0,0.0,0.0,0.0,0.0,0.0,0.0,0.0,0.0,0.0,0.0,0.0,0.0,0.0,0.0,0.0,0.0,0.0,0.0,0.0,0.0,0.0,0.0,0.0,0.0,0.0,0.0,0.0,0.0,0.0,0.0,0.0,0.0,0.0,0.0,0.0,0.0,0.0,0.0,0.0,0.0,0.0,0.0,0.0,0.0,0.0,0.0,0.0,0.0,0.0,0.0,0.0,0.0,0.0,0.0,0.0,0.0,0.0,0.0,0.0,0.0,0.0,0.0,0.0,0.0,0.0,0.0,0.0,0.0,0.0,0.0,0.0,0.0,0.0,0.0,0.0,0.0,0.0,0.0,0.0,0.0,0.0,0.0,0.0,0.0,0.0,0.0,0.0,0.0,0.0,0.0,0.0,0.0,0.0,0.0,0.0,0.0,0.0,0.0,0.0,0.0,0.0,0.0,0.0,0.0,0.0,0.0,0.0,0.0,0.0,0.0,0.0,0.0,0.0,0.0,0.0,0.0,0.0,0.0,0.0,0.0,0.0,0.0,0.0,0.0,0.0,0.0,0.0,0.0,0.0,0.0,0.0,0.0,0.0,0.0,0.0,0.0,0.0,0.0,0.0,0.0,0.0,0.0,0.0,0.0,0.0,0.0,0.0,0.0,0.0,0.0,0.0,0.0,0.0,0.0,0.0,0.0,0.0,0.0,0.0,0.0,0.0,0.0,0.0,0.0,0.0,0.0,0.0,0.0,0.0,0.0,0.0,0.0,0.0,0.0,0.0,0.0,0.0,0.0,0.0,0.0,0.0,0.0,0.0,0.0,0.0,0.0,0.0,0.0,0.0,0.0,0.0,0.0,0.0,0.0,0.0,0.0,0.0,0.0,0.0,0.0,0.0,0.0,0.0,0.0,0.0,0.0,0.0,0.0,0.0,0.0,0.0,0.0,0.0,0.0,0.0,0.0,0.0,0.0,0.0,0.0,0.0,0.0,0.0,0.0,0.0,0.0,0.0,0.0,0.0,0.0,0.0,0.0,0.0,0.0,0.0,0.0,0.0,0.0,0.0,0.0,0.0,0.0,0.0,0.0,0.0,0.0,0.0,0.0,0.0,0.0,0.0,0.0,0.0,0.0,0.0,0.0,0.0,0.0,0.0,0.0,0.0,0.0,0.0,0.0,0.0,0.0,0.0,0.0,0.0,0.0,0.0,0.0,0.0,0.0,0.0,0.0,0.0,0.0,0.0,0.0,0.0,0.0,0.0,0.0,0.0,0.0,0.0,0.0,0.0,0.0,0.0,0.0,0.0,0.0,0.0,0.0,0.0,0.0,0.0,0.0,0.0,0.0,0.0,0.0,0.0,0.0,0.0,0.0,0.0,0.0,0.0,0.0,0.0,0.0,0.0,0.0,0.0,0.0,0.0,0.0,0.0,0.0,0.0,0.0,0.0,0.0,0.0,0.0,0.0,0.0,0.0,0.0,0.0,0.0,0.0,0.0,0.0,0.0,0.0,0.0,0.0,0.0,0.0,0.0,0.0,0.0,0.0,0.0,0.0,0.0,0.0,0.0,0.0,0.0,0.0,0.0,0.0,0.0,0.0,0.0,0.0,0.0,0.0,0.0,0.0,0.0,0.0,0.0,0.0,0.0,0.0,0.0,0.0,0.0,0.0,0.0,0.0,0.0,0.0,0.0,0.0,0.0,0.0,0.0,0.0,0.0,0.0,0.0,0.0,0.0,0.0,0.0,0.0,0.0,0.0,0.0,0.0,0.0,0.0,0.0,0.0,0.0,0.0,0.0,0.0,0.0,0.0,0.0,0.0,0.0,0.0,0.0,0.0,0.0,0.0,0.0,0.0,0.0,0.0,0.0,0.0,0.0,0.0,0.0,0.0,0.0,0.0,0.0,0.0,0.0,0.0,0.0,0.0,0.0,0.0,0.0,0.0,0.0,0.0,0.0,0.0,0.0,0.0,0.0,0.0,0.0,0.0,0.0,0.0,0.0,0.0,0.0,0.0,0.0,0.0,0.0,0.0,0.0,0.0,0.0,0.0,0.0,0.0,0.0,0.0,0.0,0.0,0.0,0.0,0.0,0.0,0.0,0.0,0.0,0.0,0.0,0.0,0.0,0.0,0.0,0.0,0.0,0.0,0.0,0.0,0.0,0.0,0.0,0.0,0.0,0.0,0.0,0.0,0.0,0.0,0.0,0.0,0.0,0.0,0.0,0.0,0.0,0.0,0.0,0.0,0.0,0.0,0.0,0.0,0.0,0.0,0.0,0.0,0.0,0.0,0.0,0.0,0.0,0.0,0.0,0.0,0.0,0.0,0.0,0.0,0.0,0.0,0.0,0.0,0.0,0.0,0.0,0.0,0.0,0.0,0.0,0.0,0.0,0.0,0.0,0.0,0.0,0.0,0.0,0.0,0.0,0.0,0.0,0.0,0.0,0.0,0.0,0.0,0.0,0.0,0.0,0.0,0.0,0.0,0.0,0.0,0.0,0.0,0.0,0.0,0.0,0.0,0.0,0.0,0.0,0.0,0.0,0.0,0.0,0.0,0.0,0.0,0.0,0.0,0.0,0.0,0.0,0.0,0.0,0.0,0.0,0.0,0.0,0.0,0.0,0.0,0.0,0.0,0.0,-1.9969,-1.861,0.0,0.0,0.0,0.0,0.0,0.0,0.0,0.0,0.0,0.0,0.0,0.0,0.0,0.0,0.0,0.0,0.0,0.0,0.0,0.0,0.0,0.0,0.0,-0.891,-0.9081,-0.905,-0.9081,0.0,0.0,0.0,0.0,0.0,0.0,0.0,0.0,0.0,-1.0743,-1.1608,-1.1994,-1.2809,-1.3973,-1.331,-1.2786,-1.2428,0.0,0.0,0.0,0.0,0.0,0.0,0.0,0.0,0.0,0.0,0.0,0.0,0.0,0.0,0.0,0.0,0.0,0.0,0.0,0.0,0.0,0.0,0.0,0.0,0.0,0.0,0.0,0.0,0.0,0.0,0.0,0.0,0.0,0.0,0.0,0.0,0.0,0.0,0.0,0.0,0.0,0.0,0.0,0.0,0.0,0.0,0.0,0.0,0.0,0.0,0.0,0.0,0.0,0.0,0.0,0.0,0.0,0.0,0.0,0.0,0.0,0.0,0.0,0.0,0.0,0.0,0.0,0.0,0.0,0.0,-2.2008,-2.044,0.0,0.0,0.0,0.0,0.0,0.0,0.0,0.0,0.0,0.0,0.0,0.0,0.0,0.0,0.0,0.0,0.0,0.0,0.0,0.0,0.0,-0.9266,-0.9482,-1.0024,-1.0395,-1.0484,-1.0519,-1.0519,-1.0466,-1.0343,0.0,0.0,0.0,0.0,0.0,-1.1482,-1.2376,-1.3044,-1.417,-1.5077,-1.5763,-1.6203,-1.5979,-1.5154,-1.4722,0.0,0.0,0.0,0.0,0.0,0.0,0.0,0.0,0.0,0.0,0.0,0.0,0.0,0.0,0.0,0.0,0.0,0.0,0.0,0.0,0.0,0.0,0.0,0.0,0.0,0.0,0.0,0.0,0.0,0.0,0.0,0.0,0.0,0.0,0.0,0.0,0.0,0.0,0.0,0.0,0.0,0.0,0.0,0.0,0.0,0.0,0.0,0.0,0.0,0.0,0.0,0.0,0.0,0.0,0.0,0.0,0.0,0.0,0.0,0.0,0.0,0.0,0.0,-2.4909,-2.572,-2.6295,-2.6765,-2.7027,-2.6974,-2.3995,-2.2479,-2.2086,-2.1616,0.0,0.0,0.0,0.0,0.0,0.0,0.0,0.0,0.0,0.0,0.0,0.0,0.0,0.0,0.0,0.0,0.0,0.0,0.0,-0.9606,-1.0865,-1.0996,-1.1254,-1.1962,-1.1953,-1.1933,-1.1933,-1.1328,0.0,0.0,0.0,0.0,-1.1933,-1.2867,-1.3835,-1.4774,-1.6426,-1.7248,-1.7223,-1.8329,-1.8755,-1.8558,-1.649,-1.5212,-1.4606,0.0,0.0,0.0,0.0,0.0,0.0,0.0,0.0,0.0,0.0,0.0,0.0,0.0,0.0,0.0,0.0,0.0,0.0,0.0,0.0,0.0,0.0,0.0,0.0,0.0,0.0,0.0,0.0,0.0,0.0,0.0,0.0,0.0,0.0,0.0,0.0,0.0,0.0,0.0,0.0,0.0,-1.5759,-1.6955,0.0,0.0,0.0,0.0,0.0,0.0,0.0,0.0,0.0,0.0,0.0,0.0,0.0,-2.3289,-2.4446,-2.504,-2.5667,-2.6216,-2.687,-2.7497,-2.8046,-2.8124,-2.8438,-2.8882,-2.7889,0.0,-2.4491,-2.4498,0.0,0.0,0.0,0.0,0.0,0.0,0.0,0.0,0.0,0.0,0.0,0.0,0.0,0.0,0.0,0.0,0.0,0.0,0.0,0.0,0.0,-1.2808,-1.359,-1.3899,-1.393,-1.393,-1.3883,-1.3236,0.0,0.0,0.0,-1.3575,-1.3883,-1.4616,-1.5513,-1.6537,-1.7505,-1.8269,-1.8932,-1.937,-1.9793,-2.003,-1.8666,-1.7418,-1.6384,-1.6384,0.0,0.0,0.0,0.0,0.0,0.0,0.0,0.0,0.0,0.0,0.0,0.0,0.0,0.0,0.0,0.0,0.0,0.0,0.0,0.0,0.0,0.0,0.0,0.0,0.0,0.0,0.0,0.0,0.0,0.0,0.0,0.0,0.0,0.0,0.0,0.0,0.0,0.0,0.0,-1.6166,-1.7016,-1.8524,-1.8662,-1.8976,0.0,0.0,0.0,0.0,0.0,0.0,0.0,0.0,0.0,-2.4308,-2.4857,-2.572,-2.687,-2.7131,-2.7549,-2.815,-2.8726,-2.9301,-2.9849,-3.0189,-3.0634,-3.1156,-3.0581,-2.9562,-2.8255,-2.6948,-2.6112,-2.5615,0.0,0.0,0.0,0.0,-2.4308,-2.436,0.0,0.0,0.0,0.0,0.0,0.0,0.0,0.0,0.0,0.0,0.0,0.0,-1.318,-1.4609,-1.5659,-1.6003,-1.6034,-1.6034,-1.5948,-1.536,-1.4991,-1.4991,-1.5426,-1.5676,-1.5564,-1.6262,-1.7227,-1.835,-1.8693,-1.9377,-2.0377,-2.0437,-2.0675,-2.1118,-2.0649,-1.9593,-1.8067,-1.7909,-1.697,-1.5512,0.0,0.0,0.0,0.0,0.0,0.0,0.0,0.0,0.0,0.0,0.0,0.0,0.0,0.0,0.0,0.0,0.0,0.0,0.0,0.0,0.0,0.0,0.0,0.0,0.0,0.0,0.0,0.0,0.0,0.0,0.0,0.0,0.0,0.0,0.0,0.0,0.0,-1.7817,-1.8506,-2.0257,-2.0466,-2.0753,0.0,0.0,0.0,0.0,0.0,0.0,-2.3502,-2.5048,-2.6033,-2.6452,-2.7027,-2.7889,-2.9039,-2.9039,-2.9431,-3.0163,-3.0581,-3.0999,-3.1444,-3.1862,-3.2306,-3.2672,-3.2254,-3.181,-3.1261,-2.9091,-2.8098,-2.7941,-2.7497,-2.734,-2.7288,-2.687,-2.6713,-2.6791,0.0,0.0,0.0,0.0,0.0,0.0,0.0,0.0,0.0,0.0,0.0,-1.318,-1.5805,-1.6126,-1.6743,-1.8129,-1.813,-1.8069,-1.8069,-1.7423,-1.7055,-1.7055,-1.7085,-1.6938,-1.6517,-1.7539,-1.874,-2.008,-2.0475,-2.0933,-2.1433,-2.1982,-2.2297,-2.2323,-2.2297,-2.1328,-1.963,-1.9054,-1.8184,-1.7192,-1.7192,0.0,0.0,0.0,0.0,0.0,0.0,0.0,0.0,0.0,0.0,0.0,0.0,0.0,0.0,0.0,0.0,0.0,0.0,0.0,0.0,0.0,0.0,0.0,0.0,0.0,0.0,0.0,0.0,0.0,0.0,0.0,0.0,0.0,0.0,0.0,0.0,0.0,0.0,-2.2088,-2.2269,0.0,0.0,0.0,0.0,-2.47,-2.5301,-2.5876,-2.6425,-2.7575,-2.8229,-2.8255,-2.883,-2.9693,-3.0843,-3.0843,-3.1418,-3.2515,-3.2542,-3.2594,-3.262,-3.2646,-3.2672,-3.2698,-3.2672,-3.2646,-3.2463,-3.0712,-2.9693,-2.9196,-2.917,-2.9144,-2.9144,-2.9118,-2.9118,-2.9196,0.0,0.0,0.0,-0.8109,-0.8109,-0.8339,-0.9049,-0.9965,-1.0976,-1.2106,-1.376,-1.5216,-1.6181,-1.7421,-1.8408,-1.8933,-1.8932,-1.89,-1.89,-1.8222,-1.7854,-1.7854,-1.8315,-1.8637,-1.8782,-1.9611,-2.0216,-2.0726,-2.1162,-2.1852,-2.2799,-2.3267,-2.3738,-2.4195,-2.3712,-2.3158,-2.2479,-2.0753,-1.9625,-1.8891,-1.8613,-1.7681,0.0,0.0,0.0,0.0,0.0,0.0,0.0,0.0,0.0,0.0,0.0,0.0,0.0,0.0,0.0,0.0,0.0,0.0,0.0,0.0,0.0,0.0,0.0,0.0,0.0,0.0,0.0,0.0,0.0,0.0,0.0,0.0,0.0,0.0,0.0,0.0,0.0,-2.4334,-2.4596,0.0,-2.619,-2.6321,-2.6399,-2.6608,-2.7157,-2.7549,-2.7758,-2.9222,-3.0059,-3.0059,-3.0973,-3.1679,-3.2071,-3.2071,-3.228,-3.2698,-3.2698,-3.2908,-3.3273,-3.3273,-3.3666,-3.4345,-3.3953,-3.4005,-3.4293,-3.33,-3.2333,-3.147,-3.147,-3.147,-3.147,-3.147,-3.147,-3.1548,0.0,0.0,0.0,-0.8109,-0.8308,-0.8694,-0.9437,-1.0727,-1.2033,-1.3184,-1.5061,-1.6552,-1.7235,-1.8685,-1.9734,-1.995,-2.0196,-2.032,-2.032,-1.9854,-1.9574,-1.9574,-1.9797,-2.0101,-2.0668,-2.0907,-2.1376,-2.1976,-2.2406,-2.3091,-2.4068,-2.4472,-2.4943,-2.5345,-2.4917,-2.47,-2.457,-2.2635,-2.1276,-2.0335,-1.9856,-1.9042,-1.807,0.0,0.0,0.0,0.0,0.0,0.0,0.0,0.0,0.0,0.0,0.0,0.0,0.0,0.0,0.0,0.0,0.0,0.0,0.0,0.0,0.0,0.0,0.0,0.0,0.0,0.0,0.0,0.0,0.0,0.0,0.0,0.0,0.0,0.0,-2.2923,-2.4256,-2.6164,-2.6556,-2.7053,-2.802,-2.8124,-2.8281,-2.8673,-2.9039,-2.9431,-2.9823,-3.0921,-3.1548,-3.1548,-3.2306,-3.2881,-3.3273,-3.3273,-3.3456,-3.3849,-3.3849,-3.4058,-3.4424,-3.4424,-3.4868,-3.5547,-3.5155,-3.5208,-3.5547,-3.5129,-3.4528,-3.3796,-3.3404,-3.3273,-3.3273,-3.3273,-3.3273,-3.3352,0.0,0.0,-0.8109,-0.8109,-0.8708,-0.9453,-1.012,-1.1411,-1.3059,-1.5067,-1.5933,-1.7111,-1.9086,-1.9919,-2.0597,-2.1245,-2.1886,-2.2286,-2.2286,-2.2286,-2.2286,-2.2286,-2.1465,-2.1327,-2.2021,-2.1561,-2.2183,-2.3931,-2.4213,-2.4622,-2.5229,-2.5651,-2.585,-2.585,-2.585,-2.585,-2.5772,-2.4648,-2.3184,-2.159,-2.1013,-2.0361,-1.9682,0.0,0.0,0.0,0.0,0.0,0.0,0.0,0.0,0.0,0.0,0.0,0.0,0.0,0.0,0.0,0.0,0.0,0.0,0.0,0.0,0.0,0.0,0.0,0.0,0.0,0.0,0.0,0.0,0.0,0.0,0.0,0.0,0.0,-2.3393,-2.4805,-2.6321,-2.7471,-2.8098,-2.8673,-2.9301,-2.9353,-2.9823,-3.0947,-3.1026,-3.1522,-3.262,-3.2725,-3.2751,-3.2751,-3.2777,-3.3326,-3.445,-3.445,-3.4999,-3.6096,-3.6096,-3.6096,-3.6096,-3.6096,-3.6123,-3.6123,-3.6123,-3.6149,-3.6149,-3.6149,-3.6061,-3.5957,-3.4894,-3.445,-3.445,-3.445,-3.445,-3.447,-0.8109,-0.8109,-0.8109,-0.8109,-0.8708,-0.9608,-1.0807,-1.2187,-1.3843,-1.5827,-1.7104,-1.8192,-1.9179,-2.035,-2.1121,-2.127,-2.1886,-2.2286,-2.2286,-2.2286,-2.2171,-2.1792,-2.1773,-2.1823,-2.1974,-2.2838,-2.3717,-2.4549,-2.4909,-2.5435,-2.602,-2.6291,-2.6489,-2.6553,-2.6516,-2.6425,-2.6399,-2.5667,-2.5066,-2.4465,-2.2635,-2.1564,-2.0936,0.0,0.0,0.0,0.0,0.0,0.0,0.0,0.0,0.0,0.0,0.0,0.0,0.0,0.0,0.0,0.0,0.0,0.0,0.0,0.0,0.0,0.0,0.0,0.0,0.0,0.0,0.0,0.0,0.0,0.0,0.0,-2.4857,-2.5929,-2.5746,-2.6844,-2.8098,-2.9274,-2.9562,-3.0032,-3.1052,-3.113,-3.1444,-3.2176,-3.2228,-3.2359,-3.2672,-3.3483,-3.3927,-3.3927,-3.4737,-3.5312,-3.5626,-3.5626,-3.5783,-3.6096,-3.6096,-3.6096,-3.6096,-3.6096,-3.6358,-3.675,-3.675,-3.7011,-3.7313,-3.6529,-3.6227,-3.6218,-3.5807,-3.5192,-3.4578,-3.4578,-3.4832,-3.5161,-0.8109,-0.8109,-0.8109,-0.8109,-0.8956,-0.9981,-1.1069,-1.2707,-1.4514,-1.6514,-1.7666,-1.8686,-1.961,-2.069,-2.1393,-2.167,-2.2317,-2.284,-2.3117,-2.3193,-2.2903,-2.2265,-2.2583,-2.2908,-2.3234,-2.4041,-2.4797,-2.5517,-2.5955,-2.6286,-2.6542,-2.6895,-2.7092,-2.7157,-2.7092,-2.7027,-2.7,-2.6425,-2.619,-2.6033,-2.4465,-2.3315,-2.2505,-2.1694,-2.1041,-2.044,-1.9839,-1.963,-1.9499,-1.8629,0.0,0.0,0.0,0.0,0.0,0.0,0.0,0.0,0.0,0.0,0.0,0.0,0.0,0.0,0.0,0.0,0.0,0.0,0.0,0.0,0.0,0.0,0.0,0.0,-2.6634,-2.7941,-2.8412,-2.9065,-2.9719,-3.0398,-3.0921,-3.147,-3.2123,-3.2202,-3.2437,-3.3012,-3.3273,-3.3509,-3.377,-3.4633,-3.5103,-3.5103,-3.5757,-3.6227,-3.6488,-3.6488,-3.6593,-3.6854,-3.709,-3.7194,-3.7194,-3.7456,-3.7769,-3.8083,-3.8083,-3.8292,-3.8512,-3.7921,-3.7705,-3.7508,0.0,0.0,0.0,0.0,-3.5473,-3.5719,-0.8109,-0.8109,-0.8109,-0.8202,-0.9312,-1.0492,-1.1311,-1.3078,-1.5036,-1.7142,-1.7884,-1.8714,-2.0165,-2.0905,-2.1553,-2.2132,-2.2871,-2.3538,-2.4173,-2.4297,-2.3973,-2.3146,-2.3593,-2.4251,-2.4964,-2.5016,-2.5581,-2.6585,-2.6996,-2.7099,-2.7024,-2.7354,-2.7523,-2.7523,-2.7523,-2.7523,-2.7497,-2.6974,-2.6765,-2.6739,-2.6216,-2.5328,-2.4178,-2.3106,-2.2374,-2.1825,-2.1302,-2.104,-2.0858,-2.0234,0.0,0.0,0.0,0.0,0.0,0.0,0.0,0.0,0.0,0.0,0.0,0.0,0.0,0.0,0.0,0.0,0.0,0.0,0.0,0.0,0.0,0.0,0.0,0.0,-2.8386,-2.9849,-3.0921,-3.1209,-3.1261,-3.1182,-3.2071,-3.2725,-3.2777,-3.2855,-3.3143,-3.3744,-3.4293,-3.4816,-3.5365,-3.5913,0.0,0.0,0.0,-3.6593,-3.7194,-3.7194,-3.7508,-3.8109,-3.8579,-3.8815,-3.8841,-3.9364,-3.9599,-3.9599,-3.9599,-3.9599,-3.9599,-3.931,-3.9143,-3.8728,-3.6579,-3.5764,-3.5813,-3.6069,-3.6237,-3.6213,-0.8109,-0.8109,-0.8264,-0.8804,-0.9622,-1.0803,-1.2624,-1.3698,-1.5247,-1.785,-1.8192,-1.8714,-2.0165,-2.0905,-2.1368,-2.1455,-2.2594,-2.3417,-2.3721,-2.3531,-2.3291,-2.3097,-2.373,-2.4395,-2.4991,-2.5307,-2.6082,-2.7238,-2.7057,-2.7155,-2.7604,-2.7537,-2.7523,-2.7523,-2.7523,-2.7523,-2.7523,-2.7419,-2.7366,-2.7366,-2.7236,-2.6504,-2.5432,-2.4726,-2.4387,-2.423,-2.3655,-2.3132,-2.258,-2.1441,-2.0797,-2.0265,-1.9711,-1.9032,0.0,0.0,0.0,0.0,0.0,0.0,0.0,0.0,0.0,0.0,0.0,0.0,0.0,0.0,0.0,0.0,0.0,0.0,0.0,-2.8673,-2.9823,-3.0895,-3.1575,-3.2489,-3.2908,-3.2411,-3.2568,-3.2881,-3.3378,-3.3822,-3.4319,-3.492,-3.5469,-3.5835,-3.594,-3.6515,-3.6828,-3.6828,-3.7299,-3.7821,-3.837,-3.837,-3.8684,-3.9285,-3.939,0.0,-3.9442,-3.9547,-3.9599,-3.9599,-3.9599,-3.9599,-3.9503,-3.7643,-3.6169,-3.5055,-3.6792,-3.7493,-3.7419,-3.6594,-3.6314,-3.6111,-0.787,-0.7998,-0.8325,-0.8988,-0.9682,-1.0736,-1.2468,-1.359,-1.498,-1.7018,-1.7823,-1.8591,-1.9672,-2.0412,-2.0936,-2.1275,-2.2308,-2.2896,-2.273,-2.3226,-2.3426,-2.3174,-2.4041,-2.4991,-2.5887,-2.6094,-2.6701,-2.7755,-2.7561,-2.759,-2.7656,-2.7523,-2.7523,-2.7523,-2.7523,-2.7523,-2.7523,-2.7523,-2.7523,-2.7523,-2.7523,-2.7183,-2.6608,-2.6033,-2.5641,-2.5354,-2.5066,-2.4779,-2.438,-2.3489,-2.2808,-2.2189,-2.1626,-2.0859,-2.0246,0.0,0.0,0.0,0.0,0.0,0.0,0.0,0.0,0.0,0.0,0.0,0.0,0.0,0.0,-2.6425,-2.7,0.0,-2.9457,-3.0032,-3.0843,-3.1705,-3.2594,-3.3456,-3.377,-3.3221,-3.3639,-3.411,-3.4424,-3.4946,-3.5391,-3.5678,-3.6227,-3.6541,-3.6541,-3.7116,-3.7586,-3.7848,-3.8161,-3.8579,-3.9155,-3.9155,-3.9311,-3.9599,-3.9886,-4.0017,-4.0017,-4.0331,-4.0461,-4.0461,-4.0461,-4.014,-3.952,-3.7829,-3.6649,-3.601,-3.7412,-3.7236,-3.6192,-3.5557,-3.5344,-3.5344,-0.7936,-0.8124,-0.8467,-0.9126,-0.98,-1.0718,-1.2159,-1.3421,-1.4683,-1.601,-1.7239,-1.8346,-1.921,-1.9795,-2.0443,-2.1245,-2.1913,-2.214,-2.1946,-2.3082,-2.3616,-2.3228,-2.4367,-2.5588,-2.6782,-2.6749,-2.722,-2.8079,-2.8079,-2.7881,-2.7523,-2.7523,-2.7523,-2.7523,-2.7523,-2.7523,-2.7523,-2.7523,-2.7523,-2.7523,-2.7523,-2.7523,-2.7471,-2.7027,-2.6556,-2.6164,-2.6164,-2.6086,-2.5929,-2.5335,-2.465,-2.4027,-2.3534,-2.2545,-2.1666,-2.1798,-2.1433,0.0,0.0,0.0,0.0,0.0,0.0,0.0,0.0,-2.4413,-2.5772,-2.6216,-2.7236,-2.8203,-2.8778,-2.9745,-3.066,-3.1235,-3.181,-3.2542,-3.3587,-3.4214,-3.445,-3.411,-3.4894,-3.5443,-3.5443,-3.594,-3.6279,-3.6279,-3.6828,-3.722,-3.7325,-3.7795,-3.8318,-3.8867,-3.8893,-3.9181,-3.9756,-3.9756,-3.9834,-3.9939,-4.0383,-4.0592,-4.0618,-4.0889,-4.1097,-4.1324,-4.1324,-4.0668,-3.9494,-3.8847,-3.8323,-3.7902,-3.8113,-3.6942,-3.5157,-3.4958,-3.4847,-3.4847,-0.9093,-0.8975,-0.9012,-0.9675,-1.0301,-1.1263,-1.2845,-1.3729,-1.4683,-1.601,-1.684,-1.7823,-1.9148,-1.9364,-1.9919,-2.1214,-2.1178,-2.1336,-2.1845,-2.2742,-2.3228,-2.3175,-2.4367,-2.5588,-2.6782,-2.6627,-2.7068,-2.8079,-2.7921,-2.7723,-2.7523,-2.7523,-2.7523,-2.7523,-2.7523,-2.7523,-2.7523,-2.7523,-2.7523,-2.7523,-2.7523,-2.7523,-2.7523,-2.7445,-2.7392,-2.734,-2.734,-2.7,-2.6492,-2.583,-2.4899,-2.3977,-2.3901,-2.3119,-2.2268,-2.286,-2.2609,-2.2219,-2.2217,-2.2557,-2.3054,-2.3602,-2.4596,-2.5432,0.0,-2.6765,-2.802,-2.8072,-2.9039,-3.0006,-3.0581,-3.1209,-3.1836,-3.2411,-3.3012,-3.3613,-3.4214,-3.4816,-3.5338,-3.5783,-3.594,-3.6018,-3.6018,-3.6541,-3.6907,-3.6907,-3.7456,-3.8004,-3.8501,-3.8579,-3.8893,-3.9494,-3.952,-3.9782,-4.0331,-4.0331,-4.0592,-4.1115,-4.1193,-4.1219,-4.1219,-4.0211,-4.0338,-4.1324,-4.1324,-4.0668,-3.9699,-4.0567,-3.9699,-3.8007,-3.8951,-3.8638,-3.737,-3.634,-3.6013,-3.6013,-0.9052,-0.9407,-0.9783,-1.0181,-1.0642,-1.1352,-1.2467,-1.3175,-1.3975,-1.4929,-1.5948,-1.6993,-1.7976,-1.8809,-1.9672,-2.0659,-2.0487,-2.0616,-2.1252,-2.1833,-2.2444,-2.3148,-2.4042,-2.5046,-2.6267,-2.6207,-2.662,-2.7573,-2.7508,-2.7472,-2.7523,-2.7523,-2.7523,-2.7523,-2.7523,-2.7523,-2.7523,-2.7523,-2.7523,-2.7523,-2.7523,-2.7523,-2.7497,-2.7157,-2.7027,-2.7079,-2.7419,-2.7157,0.0,-2.6401,-2.5524,-2.4571,-2.4571,-2.4262,-2.3875,-2.4171,-2.4308,-2.4465,-2.4805,-2.5066,-2.538,-2.5955,-2.6713,-2.7314,-2.7314,-2.8386,-2.9483,-2.9823,-3.0555,-3.1313,-3.1862,-3.2176,-3.2515,-3.3117,-3.3692,-3.4267,-3.4842,-3.5704,-3.6384,-3.6593,-3.6933,-3.7011,-3.6671,-3.7168,-3.7665,-3.7978,-3.824,-3.8632,-3.9207,-3.9233,-3.9494,-4.0069,-4.0069,-4.0357,-4.0932,-4.0932,-4.1063,-4.1324,-4.1324,-4.1324,-4.1324,-4.0795,-4.0896,-4.1224,-4.0567,-4.0032,-3.9494,-3.8662,-3.782,-3.6858,-3.675,-3.6317,-3.5904,-3.6122,-3.6231,-3.6122,-0.9325,-0.9784,-1.0293,-1.0691,-1.1051,-1.1495,-1.2097,-1.2774,-1.3359,-1.3852,-1.5114,-1.6256,-1.7116,-1.8438,-1.9487,-1.998,-2.0094,-2.0313,-2.0616,-2.1248,-2.1915,-2.2634,-2.3635,-2.4611,-2.5615,-2.5805,-2.6283,-2.7023,-2.696,-2.6982,-2.7053,-2.721,-2.7288,-2.7288,-2.7445,-2.7523,-2.7523,-2.7523,-2.7523,-2.7523,-2.7366,-2.7288,-2.7236,-2.6661,-2.6425,-2.6504,-2.6896,-2.6791,-2.6425,-2.6425,-2.5772,-2.5048,-2.5145,-2.5092,-2.4988,-2.5145,-2.5615,-2.6216,-2.6948,-2.7131,-2.7288,-2.7863,-2.8438,-2.8856,-2.8856,-2.964,-3.0529,-3.1104,-3.1548,-3.2071,-3.2803,-3.2934,-3.3195,-3.3953,-3.4397,-3.492,-3.5652,-3.6488,-3.7063,-3.722,-3.7769,-3.7952,-3.7508,-3.7874,-3.837,-3.8919,-3.8972,-3.9207,-3.9808,-3.9834,-4.0095,-4.0644,-4.0671,-4.088,-4.1324,-4.1324,-4.1324,-4.1324,-4.1324,-4.1324,-4.1324,-4.1324,-4.0997,-4.0364,-4.0134,-3.9699,-3.908,-3.7713,-3.6965,-3.6534,-3.5795,-3.5488,-3.5466,-3.6013,-3.6013,-3.5708,-1.0436,-1.0295,-1.0362,-1.1226,-1.1608,-1.1876,-1.2169,-1.2774,-1.3205,-1.3236,-1.4406,-1.5733,-1.7055,-1.8438,-1.9302,-1.9333,-2.011,-2.0419,-2.002,-2.1264,-2.1841,-2.1464,-2.3173,-2.4394,-2.5018,-2.5588,-2.6067,-2.6505,-2.6382,-2.6224,-2.6064,-2.6516,-2.6687,-2.6713,-2.7288,-2.7523,-2.7523,-2.7523,-2.7523,-2.7471,-2.6922,-2.6687,-2.6634,-2.6059,-2.585,-2.585,-2.5876,-2.585,-2.585,-2.585,-2.5458,-2.5066,-2.5615,-2.5406,-2.5066,-2.5641,-2.619,-2.6896,-2.802,-2.8333,-2.8464,-2.9065,-2.9666,-3.0085,-3.0085,-3.0529,-3.113,-3.1705,-3.1759,-3.2202,-3.3352,-3.3561,-3.3927,-3.5077,-3.526,-3.5652,-3.6802,-3.6985,-3.722,-3.7795,-3.8344,-3.8684,-3.8658,-3.8684,-3.8945,-3.9547,-3.9573,-3.9808,-4.0357,-4.0383,-4.0671,-4.1272,-4.1298,-4.1298,-4.1324,-4.1324,-4.1324,-4.1324,-4.1324,-4.1324,-4.1324,-4.1324,-4.0134,-3.8113,-4.0338,-4.0032,-3.8007,-3.908,-3.8847,-3.7796,-3.7796,-3.7796,-3.769,-3.6534,-3.5488,-3.4736,-1.047,-1.0627,-1.08,-1.1089,-1.137,-1.1571,-1.1659,-1.2152,-1.2704,-1.3144,-1.4375,0.0,0.0,0.0,0.0,0.0,-1.933,-1.9647,-2.0321,-2.0312,-2.0745,-2.1758,-2.2128,-2.2793,-2.3744,-2.4015,-2.45,-2.5383,-2.5325,-2.5548,-2.6011,-2.6133,-2.6175,-2.6112,-2.6321,-2.6399,-2.6399,-2.6399,-2.6399,-2.6373,-2.619,-2.6112,-2.6007,-2.5066,-2.47,-2.4648,0.0,-2.4596,-2.5249,-2.5249,-2.4883,-2.4491,-2.5066,-2.538,-2.5798,-2.7131,-2.7941,-2.8569,-2.9327,-2.9536,-2.9693,-3.0268,-3.0843,-3.1033,-3.0471,-3.0933,-3.1578,-3.1924,-3.2169,-3.2751,-3.3927,-3.4136,-3.4371,-3.5182,-3.56,-3.6096,-3.6907,-3.7665,-3.8214,-3.8423,-3.8945,-3.9442,-3.9808,-3.952,-3.9547,-4.0095,-4.0148,-4.0409,-4.0984,-4.101,-4.1115,-4.1298,-4.1324,-4.1324,-4.1324,-4.1324,-4.1324,-4.1324,-4.1324,-4.1324,-4.1324,-4.1324,-4.0465,-3.9055,-3.9827,-3.9287,-3.7902,-3.7501,-3.7073,-3.6642,-3.5904,-3.5866,-3.6049,-3.5737,-3.5508,-3.5501,-1.0449,-1.0645,-1.0839,-1.0958,-1.1118,0.0,0.0,0.0,0.0,0.0,0.0,0.0,0.0,0.0,0.0,0.0,0.0,-1.92,-1.9863,-1.9875,-2.0255,-2.1235,-2.1443,-2.1979,-2.3053,-2.3252,-2.373,-2.4477,-2.4422,-2.4579,-2.4951,-2.5044,-2.5004,-2.4943,-2.5118,-2.5223,-2.5223,-2.5223,-2.5563,-2.6059,-2.5223,-2.5275,-2.5641,-2.4073,-2.3498,0.0,-2.3054,-2.3524,-2.4387,-2.4596,-2.4413,-2.4256,-2.504,-2.5955,-2.7027,-2.8569,-2.9274,-2.9719,-3.0294,-3.0424,-3.0507,-3.0751,-3.1087,-3.1032,-3.0134,-3.0637,-3.1315,-3.1543,-3.1983,-3.2751,-3.3901,-3.411,-3.4424,-3.5417,-3.5887,-3.6462,-3.7482,-3.824,-3.8789,-3.8998,-3.9547,-4.0043,-4.0383,-4.0305,-4.0357,-4.0723,-4.0749,-4.0906,-4.1298,-4.1324,-4.1324,-4.1324,-4.1324,-4.1324,-4.1324,-4.1324,-4.1097,-4.0668,-4.0668,-4.0465,-4.0134,-4.0134,-3.9494,-3.8453,-3.8964,-3.8403,-3.6898,-3.6801,-3.645,-3.6027,-3.5376,-3.5212,-3.5474,-3.5474,-3.5692,-3.5889,-1.0374,-1.0399,-1.0498,0.0,0.0,0.0,0.0,0.0,0.0,0.0,0.0,0.0,0.0,0.0,0.0,0.0,0.0,0.0,-1.8736,-1.9863,-2.0389,-2.003,-2.1037,-2.196,-2.2698,-2.3259,-2.3655,-2.3755,-2.3682,-2.343,-2.299,-2.3282,-2.3382,-2.3408,-2.3817,-2.4021,-2.4021,-2.4021,-2.4962,-2.6269,-2.4047,-2.4151,-2.5406,-2.3158,-2.2376,-2.2376,-2.2376,-2.2662,-2.3237,-2.3864,-2.4125,-2.4387,-2.5511,-2.7053,-2.8647,-2.9797,-3.0163,-3.0294,-3.0768,-3.0924,-3.0853,-3.0486,-3.0398,-3.0263,-2.9455,-2.9917,-3.0478,-3.0608,-3.1214,-3.2098,-3.3326,-3.3561,-3.411,-3.5757,-3.607,-3.6698,-3.8423,-3.871,-3.8972,-3.9573,-4.0122,-4.0461,-4.0461,-4.0984,-4.1324,-4.1324,-4.1324,-4.1324,-4.1324,-4.1324,-4.1324,-4.1324,-4.1324,-4.1324,-4.1324,-4.1198,-4.0668,-3.9597,-3.9494,-3.8976,-3.7902,-3.8031,-3.7418,-3.6409,-3.8071,-3.7432,-3.5505,-3.7088,-3.7086,-3.607,-3.5954,-3.5976,-3.5998,-3.5998,-3.602,-3.6042,0.0,0.0,0.0,0.0,0.0,0.0,0.0,0.0,0.0,0.0,0.0,0.0,0.0,0.0,0.0,0.0,0.0,0.0,-1.914,-1.9657,-2.0065,-2.0427,-2.0429,-2.0732,-2.1368,-2.157,-2.1859,-2.2255,-2.2769,-2.2969,-2.2803,-2.3354,-2.3365,-2.2936,-2.3095,-2.3065,-2.301,-2.301,-2.3191,-2.3476,-2.2818,-2.2844,-2.3132,-2.2113,-2.1721,-2.1721,-2.1721,-2.1825,-2.2113,-2.3106,-2.4308,-2.5511,-2.6242,-2.7654,-2.9196,-2.9928,-3.0424,-3.0641,-3.0139,-3.0264,-3.0514,-3.0532,-3.0778,-3.0973,-3.081,-3.0673,-3.0658,-3.106,-3.0994,-3.134,-3.2697,-3.33,-3.3875,-3.4685,-3.5547,-3.6567,-3.7926,-3.8841,-3.9599,-4.0148,-4.0723,-4.1089,-4.1089,-4.1219,-4.1324,-4.1324,-4.1324,-4.1324,-4.1324,-4.1324,-4.1324,-4.1324,-4.1324,-4.1324,-4.1324,-4.0465,-3.993,-3.9597,-3.8742,-3.8218,-3.7902,-3.929,-3.9169,-3.8227,-3.9922,-3.9818,-3.8389,-3.8016,-3.7633,-3.7292,-3.6302,-3.6195,-3.65,-3.65,-3.6719,-3.7025,0.0,0.0,0.0,0.0,0.0,0.0,0.0,0.0,0.0,0.0,0.0,0.0,0.0,0.0,0.0,0.0,0.0,0.0,0.0,-1.9104,-1.9667,-1.9995,-2.0115,-2.0414,-2.1069,-2.1099,-2.1425,-2.2059,-2.2047,-2.2026,-2.2094,-2.1939,-2.1703,-2.1336,-2.1286,-2.1236,-2.1136,-2.1136,-2.1508,0.0,0.0,-2.1354,-2.1877,-2.078,-2.0361,-2.0414,-2.0675,-2.125,-2.206,-2.321,-2.4596,-2.6007,-2.7079,-2.8281,-2.9431,-3.0268,-3.0738,-3.095,-3.0727,-3.0542,-3.0343,-3.035,-3.054,-3.0523,-2.9973,-3.0195,-3.0557,-3.0608,-3.0722,-3.1009,-3.1652,-3.2037,-3.2495,-3.3073,-3.4331,-3.5775,-3.7423,-3.8739,-3.9913,-4.0723,-4.1115,-4.1324,-4.1324,-4.1324,-4.1324,-4.1324,-4.1324,-4.1324,-4.1324,-4.1324,-4.1097,-4.0567,-4.0997,-4.1097,-4.0567,-3.993,-3.908,-3.8137,-3.7715,-3.7161,-3.6749,-3.7942,-3.8201,-3.7669,-3.8718,-3.8953,-3.8296,-3.7836,-3.7601,-3.7601,-3.692,-3.6762,-3.7003,-3.7003,-3.7156,-3.7374,0.0,0.0,0.0,0.0,0.0,0.0,0.0,0.0,0.0,-1.3953,-1.4652,-1.5132,-1.5251,-1.5771,0.0,0.0,0.0,0.0,0.0,0.0,-1.921,-1.9302,-1.9857,-2.0474,-2.1152,-2.1183,-2.1515,-2.2274,-2.1392,-2.1037,-2.1107,-2.0086,-1.9557,-1.9512,-1.9405,-1.936,-1.9314,-1.9288,-2.0072,-2.1193,-1.9693,-1.9935,-2.0989,0.0,-1.8898,-1.8976,-1.9577,-2.091,-2.2585,-2.3733,-2.4883,-2.6112,-2.7837,-2.8804,-2.951,-3.066,-3.0973,-3.1104,-3.1525,-3.1004,-3.0276,-3.006,-2.9846,-2.945,-2.8454,-2.9277,-3.0044,-2.9882,-3.0343,-3.0827,-3.0696,-3.0666,-3.0954,-3.1749,-3.3121,-3.4743,-3.6799,-3.8453,-3.9816,-4.0837,-4.1172,-4.1324,-4.1324,-4.1324,-4.1324,-4.1324,-4.1198,-4.1097,-4.1324,-4.1198,-4.0567,-3.939,-4.0465,-4.0567,-3.939,-3.9183,-3.8161,-3.6346,-3.6538,-3.623,-3.5321,-3.6055,-3.6274,-3.6413,-3.7038,-3.7237,-3.7281,-3.756,-3.7616,-3.7616,-3.7495,-3.7374,-3.7374,-3.7374,-3.7374,-3.7374,0.0,0.0,0.0,0.0,0.0,0.0,0.0,0.0,0.0,0.0,-1.5002,-1.4711,0.0,0.0,0.0,0.0,0.0,0.0,0.0,0.0,0.0,-1.9271,-1.9395,-1.9795,-2.0474,-2.0474,-2.0562,-2.0671,-2.073,-2.0578,-2.0217,-2.0232,-2.0069,-1.9655,-1.9655,-1.9494,-1.9314,-1.9423,-1.9429,-1.9389,-1.9193,-1.9199,-1.9316,-1.9028,0.0,0.0,-1.9577,-2.091,-2.2585,-2.3733,-2.4883,-2.6112,-2.7837,-2.8804,-2.951,-3.066,-3.0973,-3.0953,-3.08,-3.0375,-2.9977,-3.0157,-2.9508,-2.9028,-2.9935,-2.9389,-2.9101,-3.052,-3.0343,-3.0139,-3.0801,-3.1292,-3.1785,-3.2429,-3.3519,-3.4641,-3.5596,-3.751,-3.8999,-3.9295,-4.0485,-4.1324,-4.1324,-4.1324,-4.1324,-4.1324,-4.0465,-4.0364,-4.1224,-4.0465,-3.939,-3.8218,-3.9287,-3.939,-3.8218,-3.7287,-3.6742,-3.6718,-3.5938,-3.5637,-3.5961,-3.7447,-3.8113,-3.8136,-3.9684,-4.0382,-4.0266,-3.9311,-3.8885,-3.8766,-3.7834,-3.7374,-3.7374,-3.7374,-3.7374,-3.7374,0.0,0.0,0.0,0.0,0.0,0.0,0.0,-1.4835,-1.5386,-1.6055,-1.5544,-1.5403,-1.6293,-1.6093,-1.6009,0.0,0.0,0.0,0.0,0.0,0.0,0.0,0.0,0.0,-1.9765,-1.9897,-2.0264,-2.0844,0.0,-1.9903,-2.0059,-1.9307,-1.8892,-1.875,-1.8623,-1.8511,-1.8495,-1.8468,-1.8339,-1.8122,-1.8192,-1.8122,-1.8009,0.0,0.0,0.0,-1.9237,-2.0649,-2.2531,-2.3367,-2.4622,-2.619,-2.8203,-2.9039,-2.951,-3.066,-3.0973,-3.1107,-3.1576,-3.0636,-2.9594,-3.0132,-2.9235,-2.8486,-2.9278,-2.9032,-2.8946,-3.0306,-2.9999,-2.9574,-2.983,-3.0112,-3.024,-3.022,-3.1946,-3.3341,-3.3518,-3.5818,-3.7814,-3.8818,-3.9524,-4.0132,-4.044,-4.0465,-4.0134,-3.9597,-3.9055,-3.9183,-4.0338,-3.8767,-3.7796,-3.7902,-3.7796,-3.7607,-3.7073,-3.6703,-3.6405,-3.5982,-3.5945,-3.6107,-3.6369,-3.7495,-3.7955,-3.7955,-3.8771,-3.9121,-3.9121,-3.8529,-3.8291,-3.8194,-3.7616,-3.7374,-3.7374,-3.7374,-3.7374,-3.7374,0.0,0.0,0.0,0.0,0.0,0.0,0.0,-1.4963,-1.5299,-1.6102,-1.6257,-1.6518,-1.7071,-1.6564,-1.6243,0.0,0.0,0.0,0.0,0.0,0.0,0.0,0.0,0.0,0.0,0.0,0.0,-2.0946,-1.9597,0.0,0.0,0.0,0.0,0.0,-1.7611,-1.7529,-1.7638,-1.7529,-1.7447,0.0,0.0,-1.7308,0.0,0.0,0.0,0.0,0.0,-2.0257,-2.2165,-2.2949,-2.4204,-2.585,-2.8177,-2.9065,-2.951,-3.066,-3.0973,-3.1209,-3.2228,-3.0884,-2.9364,-2.9856,-2.8808,-2.7698,-2.8164,-2.8387,-2.8825,-2.9736,-2.9588,-2.9262,-2.8994,-2.8999,-2.8872,-2.8362,-3.0382,-3.1994,-3.1693,-3.4028,-3.6447,-3.8191,-3.8693,-3.9196,-3.9879,-3.9699,-3.9287,-3.8323,-3.7796,-3.7902,-3.8871,-3.7394,-3.675,-3.7156,-3.6534,-3.6168,-3.5954,-3.6339,-3.6185,-3.5539,-3.6326,-3.6741,-3.685,-3.7221,-3.7374,-3.7374,-3.7374,-3.7374,-3.7374,-3.7374,-3.7374,-3.7374,-3.7374,-3.7374,-3.7374,-3.7374,-3.7374,-3.7374,0.0,0.0,0.0,0.0,0.0,0.0,0.0,-1.5559,-1.5992,-1.7142,-1.7396,-1.7558,-1.7639,-1.6885,-1.6263,0.0,0.0,0.0,0.0,0.0,0.0,0.0,0.0,0.0,0.0,0.0,0.0,-1.9852,-1.8874,0.0,0.0,0.0,0.0,0.0,0.0,-1.7447,-1.7432,-1.7488,0.0,0.0,0.0,0.0,0.0,0.0,0.0,0.0,0.0,-1.9734,-2.1118,-2.2688,-2.3681,-2.4674,-2.6974,-2.8412,-2.951,-3.066,-3.0973,-3.113,-3.1757,-3.0583,-2.9186,-2.9316,-2.805,-2.6874,-2.7553,-2.7681,-2.8047,-2.9145,-2.9301,-2.9301,-2.9256,-2.9626,-2.9877,-2.9601,-3.0548,-3.1318,-3.1066,-3.2889,-3.48,-3.6521,-3.8065,-3.9524,-4.1045,-4.0236,-3.9597,-3.9494,-3.7501,-3.6449,-3.6557,-3.7263,-3.6834,-3.4825,-3.5708,-3.5911,-3.5238,-3.5282,-3.5764,-3.6566,-3.6653,-3.6915,-3.7309,-3.7352,-3.7374,-3.7374,-3.7374,-3.7374,-3.7374,-3.7374,-3.7374,-3.7374,-3.7374,-3.7374,-3.7374,-3.7374,-3.7374,-3.7374,0.0,0.0,0.0,0.0,0.0,0.0,-1.5134,-1.5537,-1.5995,-1.7259,-1.7474,-1.7515,-1.757,-1.725,-1.6769,-1.6222,0.0,0.0,0.0,0.0,0.0,0.0,0.0,0.0,0.0,0.0,-1.8884,-1.9221,-1.8616,0.0,0.0,0.0,0.0,0.0,0.0,-1.7323,-1.7418,-1.7323,0.0,0.0,0.0,0.0,0.0,0.0,0.0,0.0,0.0,0.0,-2.0856,-2.1851,-2.3054,-2.4334,-2.5589,-2.7027,-2.8516,-3.0032,-3.0712,-3.1104,-3.1679,-3.0699,-2.9475,-2.9334,-2.8279,-2.7312,-2.7496,-2.7429,-2.7503,-2.8127,-2.7941,-2.7811,-2.815,-2.8699,-2.8924,-2.8519,-3.0209,-3.1066,-2.9421,-3.1343,-3.3434,-3.4863,-3.644,-3.791,-3.9084,-3.8847,-3.8007,-3.6642,-3.5685,-3.5157,-3.5157,-3.5576,-3.5488,-3.4534,-3.5223,-3.5467,-3.5212,-3.5569,-3.6047,-3.6459,-3.6741,-3.698,-3.7154,-3.7253,-3.7374,-3.7374,-3.7374,-3.7374,-3.7374,-3.7374,-3.7374,-3.7374,-3.7374,-3.7374,-3.7374,-3.7374,-3.7374,-3.7418,0.0,0.0,0.0,0.0,0.0,-1.2745,-1.5134,-1.55,-1.5956,-1.7192,-1.735,-1.7432,-1.7447,-1.7432,-1.7037,-1.62,-1.5506,0.0,0.0,0.0,0.0,0.0,0.0,0.0,0.0,0.0,-1.8383,-1.8664,-1.8226,-1.8068,0.0,0.0,-1.7391,-1.7406,0.0,0.0,0.0,0.0,0.0,0.0,0.0,0.0,0.0,0.0,0.0,0.0,0.0,0.0,0.0,0.0,0.0,-2.3498,-2.4439,-2.5667,-2.7157,-2.9065,-3.0137,-3.0817,-3.1235,-3.0522,-2.9599,-2.8955,-2.8186,-2.756,-2.7172,-2.6993,-2.6955,-2.7193,-2.6817,-2.6582,-2.7157,-2.7732,-2.8004,-2.7375,-2.9245,-3.0146,-2.8232,-2.9942,-3.2065,-3.3853,-3.5216,-3.6542,-3.7805,-3.7583,-3.6642,-3.4624,-3.4423,-3.4423,-3.4534,-3.4289,-3.4311,-3.4423,-3.488,-3.5049,-3.5201,-3.579,-3.6144,-3.6415,-3.676,-3.6911,-3.7032,-3.7275,-3.7374,-3.7374,-3.7253,-3.7275,-3.7275,-3.7275,-3.7275,-3.7275,-3.7374,-3.7374,-3.7374,-3.7374,-3.7461,-3.7636,0.0,0.0,0.0,0.0,0.0,0.0,-1.5134,-1.55,-1.5918,-1.7042,-1.7308,-1.7418,-1.7418,-1.7418,-1.6942,-1.5819,-1.5649,0.0,0.0,0.0,0.0,0.0,0.0,0.0,0.0,0.0,-1.7707,-1.8092,-1.7652,-1.7638,-1.7988,-1.7447,-1.7199,-1.7199,0.0,0.0,0.0,0.0,0.0,0.0,0.0,0.0,0.0,0.0,0.0,0.0,0.0,0.0,0.0,0.0,0.0,0.0,0.0,-2.4517,-2.5432,-2.7732,-2.9222,-3.0137,-3.0163,-2.9933,-2.9399,-2.8086,-2.7633,-2.7292,-2.6236,-2.6184,-2.6425,-2.6661,-2.6216,-2.6007,-2.6582,-2.7157,-2.7344,-2.6769,-2.7598,-2.8269,-2.8008,-2.8877,-3.0674,-3.3752,-3.4521,-3.5608,-3.77,-3.6858,-3.5708,-3.4624,-3.4199,-3.4199,-3.4534,-3.3974,-3.3749,-3.4086,-3.4561,-3.4898,-3.4997,-3.5465,-3.6075,-3.6911,-3.6932,-3.7032,-3.7374,-3.7374,-3.7374,-3.7374,-3.7032,-3.6932,-3.6932,-3.6932,-3.6932,-3.6911,-3.7253,-3.7374,-3.7374,-3.7374,-3.768,-3.8095,0.0,0.0,0.0,0.0,0.0,0.0,0.0,-1.4862,-1.5291,-1.6493,-1.669,-1.669,-1.669,-1.669,-1.6218,-1.5076,-1.5301,0.0,0.0,0.0,0.0,0.0,0.0,0.0,0.0,-1.709,-1.7529,-1.7611,-1.7474,-1.7474,-1.7597,-1.7323,-1.7199,-1.7199,-1.7199,-1.7199,0.0,0.0,0.0,0.0,0.0,0.0,0.0,0.0,0.0,0.0,0.0,0.0,0.0,0.0,0.0,0.0,0.0,0.0,0.0,-2.5249,-2.7105,-2.9013,-2.9431,-2.9522,-2.9164,-2.8126,-2.8021,-2.7784,-2.6491,-2.64,-2.6401,-2.5694,-2.5354,-2.5406,-2.5981,-2.6142,-2.6246,-2.6622,-2.7363,-2.781,-2.7591,-2.881,-3.0449,-3.2218,-3.4388,-3.5972,-3.6379,-3.6317,-3.5708,-3.4311,-3.4199,-3.4199,-3.4534,-3.3974,-3.3898,-3.4582,-3.4804,-3.5136,-3.5487,-3.5713,-3.603,-3.6545,-3.6545,-3.6667,-3.6789,-3.6911,-3.6911,-3.6667,-3.6545,-3.6545,-3.6545,-3.6545,-3.6667,-3.6911,-3.7032,-3.7154,-3.7418,-3.7745,-3.7964,-3.8204,0.0,0.0,0.0,0.0,0.0,0.0,0.0,-1.4375,-1.4915,-1.5879,-1.6049,-1.6049,-1.6049,-1.6049,-1.5657,-1.4689,-1.4925,0.0,0.0,0.0,0.0,0.0,0.0,0.0,-1.6455,-1.7074,-1.7365,-1.7308,-1.7545,-1.765,-1.765,-1.7581,-1.7539,-1.7539,-1.7303,-1.7199,0.0,0.0,0.0,0.0,0.0,0.0,-1.7199,0.0,0.0,0.0,0.0,0.0,0.0,0.0,0.0,0.0,0.0,0.0,0.0,0.0,-2.538,-2.7053,-2.8281,-2.8778,-2.8742,-2.7637,-2.7754,-2.766,-2.6055,-2.5909,-2.5762,-2.4787,-2.4658,-2.4823,-2.5329,-2.547,-2.5747,-2.6598,-2.699,-2.7232,-2.7283,-2.8588,-3.017,-3.1994,-3.4177,-3.5466,-3.5135,-3.5356,-3.5046,-3.3974,-3.3861,-3.3974,-3.4177,-3.3636,-3.3705,-3.4688,-3.4731,-3.4994,-3.536,-3.5558,-3.5911,-3.6423,-3.63,-3.63,-3.6545,-3.6667,-3.6545,-3.6423,-3.63,-3.6178,0.0,-3.63,-3.6545,-3.6789,-3.7032,-3.7275,-3.744,-3.792,-3.8226,-3.8488,0.0,0.0,0.0,0.0,0.0,0.0,0.0,-1.396,-1.4598,-1.5257,-1.5384,-1.5421,-1.5421,-1.5421,-1.5186,-1.4585,0.0,0.0,0.0,0.0,0.0,0.0,0.0,0.0,-1.6441,-1.699,-1.7251,-1.7251,-1.7852,-1.8166,-1.8166,-1.8166,-1.8166,-1.814,-1.7539,-1.7225,0.0,0.0,0.0,0.0,-1.7199,-1.7199,0.0,0.0,0.0,0.0,0.0,0.0,0.0,0.0,0.0,0.0,0.0,0.0,0.0,0.0,0.0,0.0,0.0,-2.7732,-2.7936,-2.6764,-2.6909,-2.6985,-2.5163,-2.4998,0.0,-2.414,-2.415,-2.439,-2.4773,-2.5103,-2.566,-2.6524,-2.6496,-2.6513,-2.7239,-2.8309,-3.0013,-3.2743,-3.3923,-3.4311,-3.4086,-3.4311,-3.4177,-3.3636,-3.3523,-3.3636,-3.3636,-3.3069,-3.3256,-3.4484,-3.4526,-3.4539,-3.4797,-3.5211,-3.5665,-3.6423,-3.6055,-3.6178,-3.681,-3.6545,-3.63,-3.63,-3.6055,-3.5911,-3.5932,-3.6178,-3.63,-3.6423,-3.7132,-3.7396,-3.7483,-3.7986,-3.8466,-3.8821,0.0,0.0,0.0,0.0,0.0,0.0,0.0,0.0,0.0,0.0,-1.4738,-1.4774,-1.482,-1.4794,-1.4585,0.0,0.0,0.0,0.0,0.0,0.0,0.0,0.0,0.0,-1.699,-1.7591,-1.7878,-1.7878,-1.8453,-1.8715,-1.8715,-1.8715,-1.8715,-1.8689,-1.814,-1.7617,0.0,0.0,0.0,0.0,-1.7199,-1.7199,0.0,0.0,0.0,0.0,-1.7199,-1.7591,0.0,0.0,0.0,0.0,0.0,0.0,0.0,0.0,-2.274,-2.3655,-2.4648,0.0,-2.644,-2.6596,-2.6739,-2.6622,0.0,-2.5933,-2.5818,-2.4167,-2.4679,-2.5366,-2.53,-2.5271,-2.5492,-2.6521,-2.6325,-2.6381,-2.7676,-2.9991,-3.181,-3.262,-3.3593,-3.3974,-3.3409,-3.3636,-3.3636,-3.3296,-3.3296,-3.3409,-3.3636,-3.3069,-3.3256,-3.4484,-3.4289,-3.4565,-3.5252,-3.5376,-3.5541,-3.6055,-3.5932,-3.5932,-3.6178,-3.6055,-3.5911,-3.5665,-3.5541,-3.5541,-3.5541,-3.5541,-3.5932,-3.6423,-3.6545,-3.7126,-3.7986,-3.8488,-3.8969,-3.9449,0.0,0.0,0.0,0.0,0.0,0.0,0.0,0.0,0.0,0.0,0.0,-1.3692,-1.3726,-1.3994,0.0,0.0,0.0,0.0,0.0,0.0,0.0,0.0,0.0,-1.6441,-1.7591,-1.7931,-1.8349,-1.8872,-1.9447,-1.9839,-2.01,-1.9839,-1.9708,-1.9656,-1.8584,-1.7774,0.0,0.0,0.0,-1.7199,-1.7199,0.0,0.0,0.0,0.0,0.0,-1.7199,-1.7408,0.0,-1.8009,-1.8506,-1.9107,0.0,0.0,0.0,0.0,-2.1903,-2.2525,-2.3358,-2.4484,-2.5511,-2.5824,-2.6086,-2.6138,-2.5563,-2.5876,-2.5832,-2.4087,-2.5078,-2.5923,-2.4998,-2.5326,-2.5988,-2.6722,-2.6266,-2.6606,-2.8581,-3.0752,-3.2423,-3.2879,-3.3523,-3.3636,-3.3182,-3.3409,-3.3409,-3.2955,-3.3069,-3.3182,-3.3182,-3.2841,-3.3256,-3.4268,-3.4191,-3.4507,-3.5418,-3.5418,-3.5541,-3.5932,-3.5788,-3.5788,-3.5911,-3.5788,-3.5541,-3.5418,-3.5418,-3.5418,-3.5418,-3.5541,-3.5788,-3.6178,-3.6545,-3.7068,-3.7687,-3.8391,-3.8741,-3.9088,0.0,0.0,0.0,0.0,0.0,0.0,0.0,0.0,0.0,0.0,0.0,0.0,0.0,0.0,0.0,0.0,0.0,0.0,0.0,0.0,0.0,0.0,-1.6075,-1.6937,-1.8087,-1.827,-1.8872,-1.9943,-2.0646,-2.1223,-2.1616,-2.1118,-2.0699,-2.0384,-1.8872,-1.7826,-1.7199,-1.7199,-1.7199,-1.7199,-1.7199,0.0,0.0,0.0,0.0,0.0,0.0,0.0,0.0,-1.7757,-1.8035,-1.827,-1.9191,0.0,0.0,0.0,0.0,0.0,-2.2596,-2.3774,-2.4693,-2.4849,-2.5344,-2.5631,-2.5223,-2.5543,-2.5588,-2.422,-2.5511,-2.6291,-2.456,-2.5494,-2.6605,-2.6839,-2.6582,-2.7195,-2.9612,-3.1094,-3.2276,-3.3157,-3.345,-3.3409,-3.3203,-3.3296,-3.3296,-3.2727,-3.2955,-3.2955,-3.2727,-3.2789,-3.3203,-3.4051,-3.4134,-3.4569,-3.5418,-3.5418,-3.5541,-3.5809,-3.5541,-3.5541,-3.5788,-3.5541,-3.5418,-3.5418,-3.5418,-3.5418,-3.5418,-3.5685,-3.5788,-3.5932,-3.663,-3.6951,-3.7295,-3.7995,-3.8466,-3.8678,0.0,0.0,0.0,0.0,0.0,0.0,0.0,0.0,0.0,0.0,0.0,0.0,0.0,0.0,0.0,0.0,0.0,0.0,0.0,0.0,0.0,-1.5349,-1.6036,-1.6937,-1.8087,-1.9054,-1.9865,-2.0568,-2.1642,-2.2192,-2.2271,-2.1642,-2.0597,-1.9159,-1.8898,-1.8192,-1.7199,-1.7199,-1.7199,-1.7199,-1.7199,0.0,0.0,0.0,0.0,0.0,0.0,0.0,0.0,-1.7177,-1.7583,-1.807,-1.8029,0.0,0.0,0.0,0.0,0.0,-2.205,-2.2665,-2.3386,-2.4339,-2.5097,-2.561,-2.5532,-2.6212,-2.6482,-2.5202,-2.6331,-2.7066,-2.5318,-2.6031,-2.6767,-2.6498,-2.7453,-2.8828,-3.0402,-3.1466,-3.2187,-3.2517,-3.3001,-3.3069,-3.2841,-3.2841,-3.2841,-3.2727,-3.2727,-3.2727,-3.2727,-3.3078,-3.3513,-3.4051,-3.4445,-3.49,-3.5418,-3.5418,-3.5418,-3.5418,-3.5418,-3.5418,-3.5418,-3.5418,-3.5418,-3.5418,-3.5418,-3.5418,-3.5418,-3.5418,-3.5665,-3.5974,-3.6476,-3.7044,-3.7763,-3.8231,-3.8699,-3.8993,0.0,0.0,0.0,0.0,0.0,0.0,0.0,0.0,0.0,0.0,0.0,0.0,0.0,0.0,0.0,0.0,0.0,0.0,0.0,0.0,-1.5273,-1.5235,-1.6203,-1.7297,-1.8442,-1.9321,-2.0388,-2.1642,-2.2426,-2.3001,-2.3289,-2.24,-2.1041,-1.9368,-1.9054,-1.827,-1.7199,-1.7199,-1.7199,-1.7199,0.0,0.0,0.0,0.0,0.0,0.0,0.0,0.0,0.0,0.0,-1.7196,-1.7497,-1.7632,0.0,0.0,0.0,0.0,0.0,-2.1728,-2.2521,-2.3187,-2.348,-2.4165,-2.4843,-2.4952,-2.5606,-2.5973,-2.5136,-2.6217,-2.6736,-2.5134,-2.5954,-2.6864,-2.6797,-2.8561,-3.0066,-3.0874,-3.1782,-3.2432,-3.2805,-3.2943,-3.2841,-3.2727,-3.2727,-3.2727,-3.2727,-3.2727,-3.2727,-3.2727,-3.3141,-3.3596,-3.4051,-3.4527,-3.4962,-3.5418,-3.5418,-3.5418,-3.5418,-3.5418,-3.5418,-3.5418,-3.5418,-3.5418,-3.5418,-3.5418,-3.5418,-3.5418,-3.5418,-3.5541,-3.5706,-3.6311,-3.6897,-3.7401,-3.8115,-3.8513,-3.8702,0.0,0.0,0.0,0.0,0.0,0.0,0.0,0.0,0.0,0.0,0.0,0.0,0.0,0.0,0.0,0.0,0.0,0.0,0.0,-1.4163,-1.5005,-1.5005,-1.6125,-1.7401,-1.8693,-1.9608,-2.078,-2.2294,-2.3024,-2.3545,-2.3832,-2.2789,-2.1511,-1.9969,-1.9191,-1.8304,-1.7408,-1.7209,-1.7157,-1.7157,0.0,0.0,0.0,0.0,0.0,0.0,0.0,0.0,0.0,0.0,0.0,0.0,0.0,0.0,0.0,-1.9019,-1.9965,-2.0977,-2.1564,-2.2528,-2.3351,-2.3216,-2.3952,-2.467,-2.4519,-2.5125,-2.5628,-2.5172,-2.6075,-2.6507,-2.5016,-2.5916,-2.7076,-2.7702,-2.9404,-3.0748,-3.1207,-3.1918,-3.2546,-3.3027,-3.2841,-3.2727,-3.2727,-3.2727,-3.2727,-3.2727,-3.2727,-3.2727,-3.2727,-3.3244,-3.3699,-3.4051,-3.461,-3.5086,-3.5418,-3.5418,-3.5418,-3.5418,-3.5418,-3.5418,-3.5418,-3.5418,-3.5418,-3.5418,-3.5418,-3.5418,-3.5418,-3.5418,-3.548,-3.5625,-3.6352,-3.6874,-3.7218,-3.7922,-3.8191,-3.8191,0.0,0.0,0.0,0.0,0.0,0.0,0.0,0.0,0.0,0.0,0.0,0.0,0.0,0.0,0.0,0.0,0.0,0.0,0.0,-1.3574,-1.4411,-1.4426,-1.5536,-1.691,-1.858,-1.995,-2.1069,-2.1966,-2.3212,-2.358,-2.3062,-2.2496,-2.1641,-2.0594,-1.921,-1.8384,-1.8009,-1.7222,-1.6973,-1.6989,-1.6973,0.0,0.0,0.0,0.0,0.0,0.0,0.0,0.0,0.0,0.0,0.0,0.0,0.0,-1.8393,-1.8465,-1.956,-2.0844,-2.1538,-2.2412,-2.3318,-2.4159,-2.5413,-2.6133,-2.4612,-2.5611,-2.6581,-2.5699,-2.6235,-2.6645,-2.572,-2.648,-2.7648,-2.8938,-2.9622,-3.045,-3.1754,-3.2002,-3.2209,-3.2685,-3.2727,-3.2727,-3.2727,-3.2727,-3.2727,-3.2727,-3.2727,-3.2727,-3.2727,-3.3555,-3.4031,-3.4072,-3.4921,-3.5397,-3.5418,-3.5418,-3.5418,-3.5418,-3.5418,-3.5418,-3.5418,-3.5418,-3.5418,-3.5418,-3.5418,-3.5418,-3.5418,-3.5418,-3.5666,-3.6101,-3.6577,-3.7301,-3.8088,-3.8171,-3.8191,-3.8191,0.0,0.0,0.0,0.0,0.0,0.0,0.0,0.0,0.0,0.0,0.0,0.0,0.0,0.0,0.0,0.0,0.0,0.0,0.0,-1.3097,-1.4014,-1.4292,-1.5435,-1.6757,-1.832,-1.9371,-2.0527,-2.1911,-2.3122,-2.3585,-2.3328,-2.2459,-2.1609,-2.0888,-1.9294,-1.8318,-1.7816,-1.7162,-1.6931,-1.6931,-1.6931,-1.6888,0.0,0.0,0.0,0.0,0.0,0.0,0.0,0.0,-1.6607,-1.665,-1.6522,-1.7345,-1.8374,-1.8654,-1.9938,-2.1368,-2.2329,-2.3183,-2.4032,-2.4771,-2.5732,-2.6141,-2.507,-2.5587,-2.6035,-2.5466,-2.587,-2.633,-2.6647,-2.7461,-2.8462,-2.9559,-3.0367,-3.1133,-3.1919,-3.2292,-3.254,-3.2706,-3.2727,-3.2727,-3.2727,-3.2727,-3.2727,-3.2727,-3.2727,-3.2727,-3.2727,-3.3575,-3.4072,-3.4072,-3.4941,-3.5418,-3.5418,-3.5418,-3.5418,-3.5418,-3.5418,-3.5418,-3.5418,-3.5418,-3.5418,-3.5418,-3.5418,-3.5418,-3.5418,-3.5418,-3.5687,-3.6183,-3.6949,-3.7632,-3.8191,-3.8191,-3.8191,-3.8191,0.0,0.0,0.0,0.0,0.0,0.0,0.0,0.0,0.0,0.0,0.0,0.0,0.0,0.0,0.0,0.0,0.0,0.0,-1.1303,-1.2585,-1.3511,-1.3877,-1.4904,-1.6142,-1.7456,-1.8359,-1.9687,-2.1546,-2.2694,-2.3313,-2.3288,-2.2316,-2.1575,-2.1014,-1.9251,-1.8282,-1.7939,-1.7109,-1.6803,-1.6846,-1.6803,-1.6778,0.0,0.0,0.0,0.0,0.0,0.0,0.0,0.0,-1.6522,-1.6522,-1.6522,-1.73,-1.8304,-1.8857,-2.0188,-2.1663,-2.2526,-2.3474,-2.4467,-2.5016,-2.5814,-2.6358,-2.5782,-2.5819,-2.6,-2.5701,-2.6123,-2.6806,-2.7738,-2.8524,-2.9352,-3.0284,-3.1091,-3.1733,-3.2188,-3.254,-3.2727,-3.2727,-3.2727,-3.2727,-3.2727,-3.2727,-3.2727,-3.2727,-3.2727,-3.2727,-3.2727,-3.3575,-3.4072,-3.4072,-3.4941,-3.5418,-3.5418,-3.5418,-3.5418,-3.5418,-3.5418,-3.5418,-3.5418,-3.5418,-3.5418,-3.5418,-3.5418,-3.5418,-3.5438,-3.5583,-3.5997,-3.6618,-3.7405,-3.7902,-3.8191,-3.8191,-3.8191,-3.8191,0.0,0.0,0.0,0.0,0.0,0.0,0.0,0.0,0.0,0.0,0.0,0.0,0.0,0.0,0.0,0.0,0.0,0.0,-1.093,-1.2103,-1.2868,-1.2993,-1.3893,-1.4873,-1.5891,-1.6979,-1.8534,-2.0718,-2.1964,-2.2611,-2.2553,-2.197,-2.1495,-2.0989,-1.9079,-1.8371,-1.8482,-1.7087,-1.659,-1.6675,-1.6565,-1.6522,-1.6522,0.0,0.0,0.0,0.0,0.0,0.0,0.0,-1.6522,-1.6522,-1.6522,-1.73,-1.8304,-1.8882,-2.0213,-2.1549,-2.1922,-2.3173,-2.4423,-2.471,-2.588,-2.6888,-2.6623,-2.6476,-2.6497,-2.6576,-2.7303,-2.8214,-2.9145,-2.9684,-3.0305,-3.1236,-3.1754,-3.2209,-3.2664,-3.2727,-3.2727,-3.2727,-3.2727,-3.2727,-3.2727,-3.2727,-3.2727,-3.2727,-3.2727,-3.2727,-3.2727,-3.3575,-3.4072,-3.4072,-3.4941,-3.5418,-3.5418,-3.5418,-3.5418,-3.5418,-3.5418,-3.5418,-3.5418,-3.5418,-3.5418,-3.5418,-3.5418,-3.5418,-3.5459,-3.5914,-3.666,-3.755,-3.8005,-3.8191,-3.8191,-3.8191,-3.8191,-3.8191,0.0,0.0,0.0,0.0,0.0,0.0,0.0,0.0,0.0,0.0,0.0,0.0,0.0,0.0,0.0,0.0,0.0,0.0,-1.093,-1.188,-1.2637,-1.2951,-1.3893,-1.4873,-1.5891,-1.6569,-1.8157,-2.0718,-2.1448,-2.1857,-2.1832,-2.1277,-2.0923,-2.0775,-1.9409,-1.8629,-1.8248,-1.7471,-1.6898,-1.6565,-1.6522,-1.6522,-1.6522,0.0,0.0,0.0,0.0,0.0,0.0,0.0,0.0,0.0,-1.6522,-1.73,-1.838,-1.9309,-2.0765,-2.2414,-2.4101,-2.4536,-2.4904,-2.6382,-2.6251,-2.6065,-2.7214,-2.776,-2.8006,-2.8015,-2.8483,-2.9083,-2.9684,-3.018,-3.0781,-3.1692,-3.1961,-3.2209,-3.2664,-3.2727,-3.2727,-3.2727,-3.2727,-3.2727,-3.2727,-3.2727,-3.2727,-3.2727,-3.2727,-3.2727,-3.2727,-3.3575,-3.4072,-3.4072,-3.4941,-3.5418,-3.5418,-3.5418,-3.5418,-3.5418,-3.5418,-3.5418,-3.5418,-3.5418,-3.5418,-3.5418,-3.5418,-3.5418,-3.548,-3.6266,-3.6949,-3.755,-3.8005,-3.8191,-3.8191,-3.8191,-3.8191,-3.8191,0.0,0.0,0.0,0.0,0.0,0.0,0.0,0.0,-0.8197,-0.8197,-0.8197,-0.8466,0.0,0.0,0.0,-1.0541,-1.0788,-1.0891,-1.0891,-1.1592,-1.2236,-1.27,-1.3407,-1.4395,-1.5581,-1.5924,-1.7082,-1.912,-2.0064,-2.0667,-2.081,-2.0761,-2.0432,-1.997,-1.9054,-1.8339,-1.7797,-1.7254,-1.6846,-1.6479,-1.6306,-1.6324,-1.6479,0.0,0.0,0.0,0.0,0.0,0.0,0.0,0.0,0.0,-1.6522,-1.73,-1.8357,-1.9179,-2.0607,-2.2236,-2.3771,-2.4181,-2.4579,-2.5984,-2.5871,-2.5903,-2.7734,-2.8583,-2.89,-2.8873,-2.9415,-2.9932,-3.0222,-3.0801,-3.1402,-3.1961,-3.2188,-3.2416,-3.2685,-3.2727,-3.2727,-3.2727,-3.2727,-3.2727,-3.2727,-3.2727,-3.2727,-3.2727,-3.2727,-3.2809,-3.2975,-3.3679,-3.4155,-3.4341,-3.5045,-3.5418,-3.5418,-3.5418,-3.5418,-3.5418,-3.5418,-3.5418,-3.5418,-3.5418,-3.5418,-3.5418,-3.5418,-3.5625,-3.6018,-3.6577,-3.7177,-3.7798,-3.8088,-3.8191,-3.8191,-3.8191,-3.8191,-3.8191,0.0,0.0,0.0,0.0,0.0,0.0,0.0,-0.8176,-0.8176,-0.8176,-0.8176,-0.8363,0.0,0.0,0.0,-1.0149,-1.0623,-1.0891,-1.0891,-1.1323,-1.1758,-1.2214,-1.2668,-1.3563,-1.5006,-1.5077,-1.5541,-1.6508,-1.8168,-1.9143,-1.9569,-2.0187,-1.9941,-1.8922,-1.8366,-1.7766,-1.7194,-1.6717,-1.6466,-1.6349,-1.5932,-1.5976,-1.6349,-1.5888,0.0,0.0,0.0,0.0,0.0,0.0,0.0,0.0,-1.6479,-1.7255,-1.8213,-1.8662,-1.996,-2.1431,-2.2059,-2.2874,-2.3724,-2.4493,-2.5425,-2.6517,-2.8276,-2.9063,-2.9435,-2.9435,-3.0098,-3.0719,-3.0801,-3.1485,-3.2043,-3.2106,-3.2457,-3.2727,-3.2727,-3.2727,-3.2727,-3.2727,-3.2727,-3.2727,-3.2727,-3.2727,-3.2727,-3.2727,-3.2727,-3.2913,-3.3348,-3.3824,-3.4279,-3.4755,-3.519,-3.5418,-3.5418,-3.5418,-3.5418,-3.5418,-3.5418,-3.5418,-3.5418,-3.5418,-3.5418,-3.5418,-3.5418,-3.5956,-3.6804,-3.6804,-3.7343,-3.8191,-3.8191,-3.8191,-3.8191,-3.8191,-3.8191,-3.8191,0.0,0.0,0.0,0.0,0.0,0.0,-0.7956,-0.7956,-0.7956,-0.7956,-0.7956,-0.8167,-0.8705,-0.9091,0.0,-1.0062,-1.0528,-1.0833,-1.0833,-1.1204,-1.1531,-1.1757,-1.2503,-1.3232,-1.3936,-1.3957,-1.4216,-1.4829,-1.6809,-1.7827,-1.7944,-1.8447,-1.8534,-1.8309,-1.8139,-1.7583,-1.6726,-1.661,-1.6102,-1.5379,-1.5289,-1.5334,-1.5379,-1.5289,-1.5334,0.0,0.0,0.0,0.0,0.0,0.0,0.0,-1.6367,-1.7004,-1.78,-1.8558,-2.0222,-2.21,-2.3326,-2.3882,-2.4436,-2.57,-2.6816,-2.7779,-2.8897,-2.9787,-3.0387,-3.0387,-3.0553,-3.0905,-3.1609,-3.1919,-3.2168,-3.252,-3.2664,-3.2727,-3.2727,-3.2727,-3.2727,-3.2727,-3.2727,-3.2727,-3.2727,-3.2727,-3.2727,-3.2727,-3.2727,-3.2913,-3.3348,-3.3824,-3.4279,-3.4755,-3.519,-3.5418,-3.5418,-3.5418,-3.5418,-3.5418,-3.5418,-3.5418,-3.5418,-3.5418,-3.5418,-3.5418,-3.5418,-3.5956,-3.6804,-3.6804,-3.7343,-3.8191,-3.8191,-3.8191,-3.8191,-3.8191,-3.8191,-3.8191,0.0,0.0,0.0,0.0,0.0,0.0,0.0,0.0,-0.7898,-0.7898,-0.7898,-0.8007,-0.8288,-0.8703,0.0,0.0,-1.0148,-1.0511,-1.0677,-1.0921,-1.1185,-1.147,-1.2234,-1.2813,-1.3269,-1.3289,-1.3517,-1.3972,-1.5264,-1.618,-1.6683,-1.7191,-1.7276,-1.7036,-1.7261,-1.6759,-1.5841,-1.6087,-1.5785,-1.5062,-1.488,-1.488,-1.5062,-1.4834,-1.488,-1.5062,-1.4834,0.0,0.0,0.0,0.0,0.0,0.0,0.0,-1.6857,-1.745,-1.8931,-2.0637,-2.1945,-2.2854,-2.3892,-2.5743,-2.7264,-2.838,-2.8856,-2.987,-3.0739,-3.0967,-3.1195,-3.1485,-3.1961,-3.223,-3.2457,-3.2685,-3.2727,-3.2727,-3.2727,-3.2727,-3.2727,-3.2727,-3.2727,-3.2727,-3.2727,-3.2727,-3.2727,-3.2727,-3.2727,-3.3016,-3.3679,-3.3927,-3.4383,-3.5045,-3.5293,-3.5418,-3.5418,-3.5418,-3.5418,-3.5418,-3.5418,-3.5418,-3.5418,-3.5418,-3.5418,-3.5418,-3.5418,-3.5956,-3.6804,-3.6804,-3.7343,-3.8191,-3.8191,-3.8191,-3.8191,-3.8191,-3.8191,-3.8191,0.0,0.0,0.0,0.0,0.0,0.0,0.0,0.0,0.0,-0.7869,-0.7869,-0.7869,-0.7869,-0.8299,-0.874,0.0,0.0,0.0,-1.0562,-1.0621,-1.0862,-1.1348,-1.1881,-1.2358,-1.2748,-1.283,-1.3057,-1.3496,-1.3952,-1.4637,-1.5524,-1.6109,-1.6177,-1.5785,-1.6072,-1.5791,-1.5027,-1.5437,-1.534,-1.4923,-1.4639,-1.4711,-1.4923,-1.4639,-1.4755,-1.5036,-1.4573,-1.4691,-1.4993,-1.4534,0.0,0.0,0.0,0.0,-1.5882,-1.6282,-1.7427,-1.8822,-2.0052,-2.1611,-2.335,-2.5461,-2.7262,-2.8545,-2.869,-2.9808,-3.0905,-3.1298,-3.1733,-3.2064,-3.2147,-3.2478,-3.2727,-3.2727,-3.2727,-3.2727,-3.2727,-3.2727,-3.2727,-3.2727,-3.2727,-3.2727,-3.2727,-3.2727,-3.2727,-3.2727,-3.2727,-3.312,-3.401,-3.4072,-3.4486,-3.5397,-3.5418,-3.5418,-3.5418,-3.5418,-3.5418,-3.5418,-3.5418,-3.5418,-3.5418,-3.5418,-3.5418,-3.5418,-3.5418,-3.5956,-3.6804,-3.6804,-3.7343,-3.8191,-3.8191,-3.8191,-3.8191,-3.8191,-3.8191,-3.8191,0.0,0.0,0.0,0.0,0.0,0.0,0.0,0.0,0.0,0.0,-0.7715,-0.7744,-0.7802,-0.8167,-0.86,-0.908,-0.9571,-1.0009,-1.0389,0.0,0.0,-1.1145,-1.1511,-1.184,-1.2208,-1.2686,-1.2913,-1.2975,-1.3476,-1.3793,-1.3903,-1.4818,-1.5195,-1.5091,-1.5154,-1.5112,-1.5008,-1.507,-1.4851,-1.444,-1.4809,-1.4725,-1.4461,-1.4809,-1.4976,-1.4965,-1.4466,-1.4595,-1.4967,-1.4551,-1.4419,0.0,0.0,0.0,-1.5416,-1.6199,-1.7427,-1.8822,-2.0052,-2.2315,-2.4633,-2.6103,-2.7262,-2.8235,-2.9021,-3.0284,-3.1298,-3.136,-3.1733,-3.2168,-3.2561,-3.2685,-3.2727,-3.2727,-3.2727,-3.2727,-3.2727,-3.2727,-3.2727,-3.2727,-3.2727,-3.2727,-3.2727,-3.2727,-3.2727,-3.2727,-3.2727,-3.312,-3.401,-3.4072,-3.4486,-3.5397,-3.5418,-3.5418,-3.5418,-3.5418,-3.5418,-3.5418,-3.5418,-3.5418,-3.5418,-3.5418,-3.5418,-3.5418,-3.5418,-3.5956,-3.6804,-3.6804,-3.7343,-3.8191,-3.8191,-3.8191,-3.8191,-3.8191,-3.8191,-3.8191,0.0,0.0,0.0,0.0,0.0,0.0,0.0,0.0,0.0,0.0,0.0,-0.7526,-0.7814,-0.818,-0.8665,-0.9332,-0.9567,-0.9898,-1.0331,-1.0505,-1.0624,-1.0706,-1.0903,-1.1246,-1.1653,-1.2187,-1.258,-1.2847,-1.3346,-1.3621,-1.3621,-1.4035,-1.4221,-1.4242,-1.449,-1.4469,-1.4262,-1.478,-1.4738,-1.4345,-1.48,-1.4831,-1.4615,-1.4873,-1.4934,-1.4861,-1.4707,-1.4851,-1.4919,-1.4503,-1.4355,-1.4339,-1.4273,0.0,0.0,0.0,-1.6072,-1.7476,-1.9796,-2.2066,-2.4053,-2.515,-2.6496,-2.7717,-2.838,-2.9601,-3.0739,-3.1278,-3.1733,-3.2188,-3.2644,-3.2727,-3.2727,-3.2727,-3.2727,-3.2727,-3.2727,-3.2727,-3.2727,-3.2727,-3.2727,-3.2727,-3.2727,-3.2727,-3.2727,-3.2727,-3.2727,-3.312,-3.401,-3.4072,-3.4486,-3.5397,-3.5418,-3.5418,-3.5418,-3.5418,-3.5418,-3.5418,-3.5418,-3.5418,-3.5418,-3.5418,-3.5418,-3.5418,-3.5418,-3.5956,-3.6804,-3.6804,-3.7343,-3.8191,-3.8191,-3.8191,-3.8191,-3.8191,-3.8191,-3.8191,0.0,0.0,0.0,0.0,0.0,0.0,0.0,0.0,0.0,0.0,0.0,-0.7458,-0.781,0.0,0.0,0.0,-0.9373,-0.9619,-1.0079,-1.0176,-1.0215,-1.0215,-1.0467,-1.0743,-1.1065,-1.1633,-1.2124,-1.2638,-1.3181,-1.3496,-1.3621,-1.3621,-1.3621,-1.3621,-1.3972,-1.4014,-1.3848,-1.4656,-1.48,-1.4531,-1.5058,-1.5231,-1.5124,-1.5301,-1.5369,-1.5395,-1.5437,-1.5334,-1.517,-1.4749,-1.4389,-1.4142,-1.3862,-1.3608,0.0,0.0,0.0,-1.6622,-1.9334,-2.1342,-2.2936,-2.4095,-2.5564,-2.6931,-2.7593,-2.8814,-3.0056,-3.0864,-3.1567,-3.2147,-3.2499,-3.2644,-3.2727,-3.2727,-3.2727,-3.2727,-3.2727,-3.2727,-3.2727,-3.2727,-3.2727,-3.2727,-3.2727,-3.2727,-3.2727,-3.2727,-3.2727,-3.312,-3.401,-3.4072,-3.4486,-3.5397,-3.5418,-3.5418,-3.5418,-3.5418,-3.5418,-3.5418,-3.5418,-3.5418,-3.5418,-3.5418,-3.5418,-3.5418,-3.5418,-3.5956,-3.6804,-3.6804,-3.7343,-3.8191,-3.8191,-3.8191,-3.8191,-3.8191,-3.8191,-3.8191,0.0,0.0,0.0,0.0,0.0,0.0,0.0,0.0,0.0,0.0,0.0,-0.7668,-0.7685,-0.7737,-0.7925,-0.8428,-0.88,-0.9206,-0.9591,-0.9785,-0.9785,-0.9667,-1.0254,0.0,-1.0448,-1.1085,-1.1654,-1.2167,-1.2641,-1.3186,-1.3621,-1.3621,-1.3621,-1.3621,-1.3641,-1.389,-1.4304,-1.48,-1.4987,-1.5028,-1.5751,-1.6042,-1.6026,-1.6296,-1.6658,-1.704,-1.6778,-1.6372,-1.5773,-1.5477,-1.4712,-1.3922,-1.4033,-1.3658,-1.3347,0.0,0.0,0.0,-1.8754,-2.0162,-2.1652,-2.3474,-2.4633,-2.5689,-2.6993,-2.8359,-2.9477,-2.9973,-3.1112,-3.2043,-3.2064,-3.2437,-3.2727,-3.2727,-3.2727,-3.2727,-3.2727,-3.2727,-3.2727,-3.2727,-3.2727,-3.2727,-3.2727,-3.2727,-3.2727,-3.2727,-3.2727,-3.312,-3.401,-3.4072,-3.4486,-3.5397,-3.5418,-3.5418,-3.5418,-3.5418,-3.5418,-3.5418,-3.5418,-3.5418,-3.5418,-3.5418,-3.5418,-3.5418,-3.5418,-3.5956,-3.6804,-3.6804,-3.7343,-3.8191,-3.8191,-3.8191,-3.8191,-3.8191,-3.8191,-3.8191,0.0,0.0,0.0,0.0,0.0,0.0,0.0,0.0,0.0,0.0,0.0,0.0,0.0,-0.8015,-0.8316,-0.8728,-0.892,-0.905,-0.9191,-0.9509,-0.9649,-0.9628,-0.9825,-1.006,-1.0312,-1.0643,-1.1018,-1.1446,-1.2301,-1.2792,-1.2955,-1.324,-1.3314,-1.3362,-1.3525,-1.3655,-1.3764,-1.4574,-1.4882,-1.4932,-1.5968,-1.6375,-1.6456,-1.7059,-1.7376,-1.7471,-1.7785,-1.7543,-1.7039,-1.6638,-1.5914,-1.5109,-1.4526,-1.4023,-1.3701,-1.3942,-1.5034,-1.6337,-1.7226,-1.8783,-2.0473,-2.1994,-2.3289,-2.4605,-2.6434,-2.7655,-2.8711,-2.9766,-3.0864,-3.1692,-3.1981,-3.2416,-3.2727,-3.2727,-3.2727,-3.2727,-3.2727,-3.2727,-3.2727,-3.2727,-3.2727,-3.2727,-3.2727,-3.2727,-3.2727,-3.2727,-3.2996,-3.341,-3.4031,-3.4341,-3.4797,-3.5397,-3.5418,-3.5418,-3.5418,-3.5418,-3.5418,-3.5418,-3.5418,-3.5418,-3.5418,-3.5418,-3.5418,-3.5418,-3.5418,-3.5956,-3.6804,-3.6804,-3.7343,-3.8191,-3.8191,-3.8191,-3.8191,-3.8191,-3.8191,-3.8191,0.0,0.0,0.0,0.0,0.0,0.0,0.0,0.0,-0.6913,-0.7015,0.0,0.0,0.0,0.0,-0.861,-0.8907,-0.8725,-0.8618,-0.8781,-0.9047,-0.9191,-0.9191,-0.931,-0.9588,-1.0079,-1.0035,-1.0424,-1.1083,-1.1646,-1.2176,-1.262,-1.2856,-1.3077,-1.3218,-1.3362,-1.3409,-1.3375,-1.4338,-1.4806,-1.5016,-1.6197,-1.6837,-1.7196,-1.8009,-1.8359,-1.8468,-1.9063,-1.8924,-1.8418,-1.8068,-1.7233,-1.6238,-1.5362,-1.452,-1.3872,-1.3851,-1.453,-1.5444,-1.6009,-1.7529,-1.928,-2.0696,-2.2063,-2.3492,-2.5324,-2.6516,-2.7662,-2.8755,-3.0056,-3.1008,-3.1298,-3.1981,-3.254,-3.2706,-3.2727,-3.2727,-3.2727,-3.2727,-3.2727,-3.2727,-3.2727,-3.2727,-3.2727,-3.2727,-3.2727,-3.2727,-3.3141,-3.3575,-3.4051,-3.4507,-3.4962,-3.5418,-3.5418,-3.5418,-3.5418,-3.5418,-3.5418,-3.5418,-3.5418,-3.5418,-3.5418,-3.5418,-3.5418,-3.5418,-3.5418,-3.5956,-3.6804,-3.6804,-3.7343,-3.8191,-3.8191,-3.8191,-3.8191,-3.8191,-3.8191,-3.8191,0.0,0.0,0.0,0.0,0.0,0.0,0.0,0.0,-0.735,-0.7697,0.0,0.0,0.0,0.0,0.0,-0.8798,-0.813,-0.7893,-0.8348,-0.8389,-0.8414,-0.8414,-0.8781,-0.9168,-0.9588,-0.9318,-0.9791,-1.1063,-1.0725,-1.1266,-1.2554,-1.2574,-1.2795,-1.317,-1.317,-1.317,-1.323,-1.4184,-1.4827,-1.5315,-1.6536,-1.7506,-1.8291,-1.9056,-1.959,-2.0039,-2.0604,-2.0485,-1.9922,-1.9732,-1.8655,-1.735,-1.6552,-1.5203,-1.3912,-1.3739,-1.414,-1.472,0.0,0.0,0.0,-1.9545,-2.0823,-2.2171,-2.3539,-2.5027,-2.6268,-2.6737,-2.8469,-2.9953,-2.9953,-3.1071,-3.2147,-3.2602,-3.2706,-3.2727,-3.2727,-3.2727,-3.2727,-3.2727,-3.2727,-3.2727,-3.2727,-3.2727,-3.2727,-3.2727,-3.3141,-3.3596,-3.4051,-3.4527,-3.4983,-3.5418,-3.5418,-3.5418,-3.5418,-3.5418,-3.5418,-3.5418,-3.5418,-3.5418,-3.5418,-3.5418,-3.5418,-3.5418,-3.5418,-3.5956,-3.6804,-3.6804,-3.7343,-3.8191,-3.8191,-3.8191,-3.8191,-3.8191,-3.8191,-3.8191,0.0,0.0,0.0,0.0,0.0,-0.7385,-0.7714,-0.8077,-0.8312,0.0,0.0,0.0,-0.8677,-0.8692,-0.8695,-0.8745,-0.8298,-0.8106,-0.8237,-0.8349,-0.8414,-0.8414,-0.8496,-0.8886,-0.9588,-0.8984,-0.9076,-1.0033,-1.0262,-1.0526,-1.0795,-1.1842,-1.2347,-1.2412,-1.2803,-1.2968,-1.3027,-1.3977,-1.4845,-1.5661,-1.6806,-1.7849,-1.8824,-1.984,-2.0684,-2.1348,-2.1565,-2.1526,-2.1269,-2.0938,-1.9844,-1.8496,-1.7076,-1.5704,-1.4592,-1.4116,-1.4493,-1.4954,-1.4538,0.0,0.0,0.0,0.0,0.0,-2.2895,-2.421,-2.527,-2.606,-2.7377,-2.8472,-2.8472,-2.9697,-3.0765,-3.0997,-3.1973,-3.2727,-3.2727,-3.2727,-3.2727,-3.2727,-3.2727,-3.2727,-3.2727,-3.2727,-3.2727,-3.2727,-3.3451,-3.3927,-3.4051,-3.4817,-3.5293,-3.5418,-3.5418,-3.5418,-3.5418,-3.5418,-3.5418,-3.5418,-3.5418,-3.5418,-3.5418,-3.5418,-3.5418,-3.5418,-3.5418,-3.5956,-3.6804,-3.6804,-3.7343,-3.8191,-3.8191,-3.8191,-3.8191,-3.8191,-3.8191,-3.8191,0.0,0.0,-0.6775,-0.7305,-0.7532,-0.7744,-0.816,-0.8421,-0.858,0.0,0.0,0.0,-0.896,-0.881,-0.8738,-0.8772,-0.8482,-0.8354,-0.8399,-0.8489,-0.8453,-0.83,-0.83,-0.8558,-0.9088,-0.8455,-0.8495,-0.935,-0.9462,-0.9659,-0.9915,-1.0886,-1.1425,-1.1585,-1.2258,-1.262,-1.2772,-1.4014,-1.4916,-1.5684,-1.6708,-1.7758,-1.8877,-2.0136,-2.1148,-2.1912,-2.2446,-2.2676,-2.2617,-2.2187,-2.0937,-1.9316,-1.7949,-1.6703,-1.5605,-1.4844,-1.4956,-1.513,-1.4531,-1.5272,-1.6533,-1.7678,0.0,0.0,-2.167,-2.3008,-2.4075,-2.4776,-2.6074,-2.7077,-2.7077,-2.8269,-2.9286,-2.9286,-3.0642,-3.189,-3.2395,-3.2602,-3.2727,-3.2727,-3.2727,-3.2727,-3.2727,-3.2727,-3.2727,-3.2727,-3.3389,-3.3948,-3.4341,-3.4859,-3.5231,-3.5418,-3.5418,-3.5418,-3.5418,-3.5418,-3.5418,-3.5418,-3.5418,-3.5418,-3.5418,-3.5418,-3.5418,-3.5418,-3.5418,-3.5832,-3.6535,-3.6722,-3.7343,-3.8191,-3.8191,-3.8191,-3.8191,-3.8191,-3.8191,-3.8191,0.0,-0.6613,-0.7059,-0.7683,-0.7836,-0.7976,-0.8301,-0.8371,-0.8545,0.0,-0.9026,-0.9154,-0.9439,-0.908,-0.8847,-0.8998,-0.8719,-0.8627,-0.8736,-0.8707,-0.856,-0.8268,-0.8224,-0.828,-0.8437,-0.7968,-0.8095,-0.8943,-0.8587,-0.8768,-0.9511,-0.9939,-1.0314,-1.0788,-1.1608,-1.2129,-1.2419,-1.3961,-1.485,-1.5405,-1.6407,-1.7497,-1.8632,-2.0007,-2.1039,-2.1788,-2.3119,-2.3563,-2.3486,-2.3055,-2.1467,-1.9678,-1.8904,-1.7696,-1.6504,-1.5838,-1.5527,-1.5332,-1.498,-1.5449,-1.6331,-1.7109,-1.791,0.0,-2.0137,-2.1568,-2.276,-2.3196,-2.4506,-2.5631,-2.5631,-2.6697,-2.7683,-2.7683,-2.8981,-3.0396,-3.1622,-3.2292,-3.2602,-3.2644,-3.2664,-3.2664,-3.2727,-3.2727,-3.2727,-3.2727,-3.3141,-3.3762,-3.4631,-3.4734,-3.4941,-3.5335,-3.5397,-3.5418,-3.5418,-3.5418,-3.5418,-3.5418,-3.5418,-3.5418,-3.5418,-3.5418,-3.5418,-3.5418,-3.5418,-3.5687,-3.6142,-3.6618,-3.7322,-3.8109,-3.8171,-3.8191,-3.8191,-3.8191,-3.8191,-3.8191,-0.6632,-0.6821,-0.6969,-0.7544,-0.8104,-0.8497,-0.8602,-0.8875,-0.9141,-0.9503,-0.9701,-0.9883,-0.9939,-0.9673,-0.9545,-0.9707,-0.9177,-0.8911,-0.9087,-0.8838,-0.8663,-0.859,-0.8341,-0.8385,-0.87,-0.8036,-0.7982,-0.8537,-0.8415,-0.8543,-0.8913,-0.9694,-1.0262,-1.0495,-1.1133,-1.1559,-1.1933,-1.2841,-1.383,-1.488,-1.683,-1.7947,-1.8624,-1.9782,-2.068,-2.1483,-2.1961,-2.2197,-2.2153,-2.1042,-2.0044,-1.9164,-1.9006,-1.7728,-1.6351,-1.6854,-1.6357,-1.5526,-1.5312,-1.5664,-1.6191,-1.6719,-1.7246,0.0,-1.9238,-2.035,-2.1154,-2.1605,-2.2703,-2.3713,-2.3713,-2.4961,-2.5928,-2.5928,-2.7236,-2.8737,-3.0376,-3.123,-3.1774,-3.2126,-3.2168,-3.2313,-3.2685,-3.2727,-3.2727,-3.2727,-3.3141,-3.3617,-3.4176,-3.4548,-3.4797,-3.4879,-3.5231,-3.5418,-3.5418,-3.5418,-3.5418,-3.5418,-3.5418,-3.5418,-3.5418,-3.5418,-3.5418,-3.5418,-3.5418,-3.5687,-3.6142,-3.6618,-3.7136,-3.7653,-3.8046,-3.8191,-3.8191,-3.8191,-3.8191,-3.8191,-0.5888,-0.6201,-0.6498,-0.6917,-0.7328,-0.7733,-0.8229,-0.8593,-0.9004,-0.9494,-0.9907,-1.0182,-1.0182,-1.0196,-1.0127,-1.0091,-0.9785,-0.9603,-0.9624,-0.9415,-0.922,-0.9061,-0.8805,-0.8623,-0.8503,-0.812,-0.8,-0.8044,-0.8044,-0.8175,-0.8443,-0.9113,-0.9549,-0.9814,-1.0705,-1.121,-1.1494,-1.303,-1.4032,-1.4624,-1.6038,-1.7063,-1.7842,-1.9027,-2.0091,-2.1014,-2.1776,-2.2011,-2.2008,-2.1162,-2.0646,-2.0114,-1.9431,-1.8549,-1.7703,-1.7636,-1.7097,-1.6462,-1.6432,-1.6562,-1.6694,-1.6522,-1.6946,0.0,0.0,-1.9232,-2.0117,-2.0762,-2.1582,-2.2266,-2.248,-2.3487,-2.4303,-2.4303,-2.5585,-2.6895,-2.7804,-2.9186,-3.036,-3.1038,-3.1121,-3.1306,-3.1758,-3.2138,-3.2478,-3.2706,-3.2934,-3.3244,-3.3699,-3.4155,-3.4527,-3.4755,-3.519,-3.5418,-3.5418,-3.5418,-3.5418,-3.5418,-3.5418,-3.5418,-3.5418,-3.5418,-3.5418,-3.5418,-3.5418,-3.5562,-3.5811,-3.6266,-3.6742,-3.7218,-3.7922,-3.8191,-3.8191,-3.8191,-3.8191,-3.8191,-0.5091,-0.553,-0.5961,-0.6331,-0.6561,-0.6963,-0.7788,-0.8038,-0.849,-0.9289,-0.9987,-1.0448,-1.0573,-1.0725,-1.0752,-1.0567,-1.0499,-1.0397,-1.0272,-1.0137,-0.9866,-0.9606,-0.9351,-0.8985,-0.8399,-0.8326,-0.8136,-0.7814,-0.7814,-0.7975,-0.8297,-0.856,-0.8897,-0.9327,-1.0309,-1.0898,-1.1256,-1.3348,-1.4316,-1.4565,-1.526,-1.616,-1.7218,-1.8333,-1.938,-2.031,-2.1436,-2.189,-2.1841,-2.1478,-2.1168,-2.0772,-1.9692,-1.9093,-1.8672,-1.8113,-1.7596,-1.7206,-1.7217,-1.7263,-1.709,-1.6278,-1.6596,-1.7071,0.0,0.0,0.0,-1.9887,-2.0528,-2.1113,-2.1543,-2.2266,-2.2715,-2.2559,-2.39,-2.4802,-2.4723,-2.6516,-2.8228,-2.9338,-2.9733,-2.9977,-3.0478,-3.1359,-3.2076,-3.2561,-3.2571,-3.2757,-3.3223,-3.3782,-3.4238,-3.461,-3.5148,-3.5418,-3.5418,-3.5418,-3.5418,-3.5418,-3.5418,-3.5418,-3.5418,-3.5418,-3.5418,-3.5418,-3.5418,-3.5418,-3.5459,-3.5914,-3.639,-3.6887,-3.7715,-3.8109,-3.8191,-3.8191,-3.8191,-3.8191,-0.5437,-0.5698,-0.5858,-0.6315,-0.674,-0.7213,-0.7812,-0.7654,-0.7935,-0.9283,-1.019,-1.0962,-1.1663,-1.1774,-1.1666,-1.1492,-1.1234,-1.1012,-1.0899,-1.0592,-1.0345,-1.0208,-0.9678,-0.9307,-0.9072,-0.878,-0.8473,-0.8151,-0.8151,-0.8312,-0.8633,-0.8677,-0.8999,-0.9585,-0.9989,-1.0519,-1.1211,-1.2543,-1.3682,-1.456,-1.5771,-1.6639,-1.736,-1.8444,-1.9066,-1.9494,-2.0223,-2.0446,-2.0401,-2.0074,-1.9598,-1.9109,-1.9129,-1.8241,-1.7351,-1.8012,-1.7449,-1.6605,-1.6674,-1.6713,-1.6542,-1.5857,-1.5773,-1.579,-1.5859,0.0,-1.7731,-1.7823,0.0,-2.0195,-2.0644,0.0,0.0,-2.041,-2.1548,-2.2443,-2.2108,-2.3242,-2.4809,-2.657,-2.7597,-2.8405,-2.8937,-3.06,-3.1819,-3.2106,-3.2251,-3.2518,-3.2809,-3.3617,-3.4093,-3.4134,-3.4983,-3.5418,-3.5418,-3.5418,-3.5418,-3.5418,-3.5418,-3.5418,-3.5418,-3.5418,-3.5418,-3.5418,-3.5418,-3.5418,-3.5459,-3.5914,-3.639,-3.6846,-3.7363,-3.7819,-3.8191,-3.8191,-3.8191,-3.8191,-0.4815,-0.5023,-0.5242,-0.5438,-0.5779,-0.6311,-0.6981,-0.7944,-0.8935,-0.9898,-1.0962,-1.1883,-1.2612,-1.2799,-1.2542,-1.179,-1.1589,-1.1398,-1.0944,-1.0581,-1.0535,-1.0822,-1.0163,-0.9627,-0.9197,-0.8969,-0.8699,-0.8381,-0.8441,-0.8648,-0.897,-0.897,-0.9307,-0.9921,-1.0433,-1.1136,-1.1999,-1.3301,-1.4414,-1.5409,-1.6491,-1.7428,-1.8218,-1.8628,-1.9345,-2.0179,-2.0633,-2.0676,-2.0501,-2.0369,-2.03,-2.0086,-1.9396,-1.8889,-1.8582,-1.853,-1.7978,-1.7461,-1.7579,-1.7468,-1.7103,-1.6109,-1.6055,-1.606,-1.5462,-1.6054,-1.6756,-1.6828,0.0,0.0,0.0,0.0,0.0,0.0,-1.9627,-1.9876,0.0,0.0,-2.2621,-2.545,0.0,0.0,-2.6443,-2.877,-3.0287,-3.0458,-3.1369,-3.2096,-3.2706,-3.3575,-3.4072,-3.4072,-3.4941,-3.5418,-3.5418,-3.5418,-3.5418,-3.5418,-3.5418,-3.5418,-3.5418,-3.5418,-3.5418,-3.5418,-3.5418,-3.5418,-3.5438,-3.5625,-3.5473,-3.526,-3.5701,-3.6719,-3.8191,-3.8191,-3.8191,-3.8191,-0.4442,-0.4629,-0.4824,-0.4873,-0.5088,-0.5553,-0.6303,-0.7913,-0.9276,-0.991,-1.0929,-1.2035,-1.302,-1.315,-1.2866,-1.2182,-1.1817,-1.163,-1.1331,-1.0885,-1.0953,-1.1506,-1.0815,-1.0161,-0.9549,-0.9302,-0.8998,-0.8685,-0.8805,-0.8941,-0.9111,-0.9248,-0.9585,-1.0126,-1.0872,-1.175,-1.2745,-1.4048,-1.5204,-1.6257,-1.7208,-1.8233,-1.9199,-1.9389,-2.0091,-2.1028,-2.1364,-2.132,-2.1115,-2.1013,-2.1048,-2.1033,-1.9879,-1.9596,-1.9527,-1.8843,-1.8426,-1.8193,-1.8017,-1.7803,-1.7395,-1.6293,-1.6285,-1.6218,-1.5218,-1.5654,-1.6146,-1.6195,-1.668,0.0,0.0,0.0,0.0,0.0,0.0,-1.7839,0.0,-1.8673,0.0,0.0,0.0,0.0,0.0,-2.675,-2.833,-2.9056,-3.0201,-3.1305,-3.2363,-3.3105,-3.3455,-3.3455,-3.394,-3.4403,-3.4901,-3.4901,-3.5046,-3.5418,-3.5046,-3.5046,-3.5418,-3.5046,-3.5046,-3.5418,-3.5418,-3.5418,-3.5418,-3.5046,-3.4538,-3.4062,-3.41,-3.5137,-3.6898,-3.7441,-3.7904,-3.8191,-0.4792,-0.4792,-0.4865,-0.5043,-0.523,-0.5474,-0.6042,-0.7118,-0.8133,-0.897,-0.9599,-1.0763,-1.275,-1.2395,-1.2259,-1.2897,-1.1993,-1.1707,-1.2395,-1.1887,-1.1846,-1.2452,-1.1628,-1.0917,-1.0495,-1.0066,-0.9653,-0.9183,-0.9206,-0.9096,-0.8898,-0.9351,-0.9775,-1.0141,-1.1121,-1.2087,-1.3082,-1.4384,-1.5657,-1.6916,-1.7882,-1.9038,-2.0252,-2.0896,-2.135,-2.1715,-2.2037,-2.214,-2.2096,-2.1774,-2.1437,-2.1057,-2.0413,-1.9769,-1.9287,-1.8949,-1.8511,-1.8116,-1.7551,-1.736,-1.7139,-1.6111,-1.5877,-1.5786,-1.5057,-1.5538,-1.5984,-1.5713,-1.5964,-1.6365,0.0,0.0,0.0,0.0,0.0,0.0,0.0,0.0,0.0,0.0,0.0,0.0,0.0,-2.4783,-2.5901,0.0,-2.8653,-2.9776,-3.1767,-3.176,-3.1623,-3.1623,-3.1533,-3.2091,-3.3505,-3.3505,-3.4153,-3.5418,-3.4133,-3.4133,-3.5418,-3.4027,-3.4153,-3.5418,-3.5418,-3.5418,-3.5294,-3.4007,-3.376,-3.3934,-3.2898,-3.2924,-3.3619,-3.5394,-3.6924,-3.8191,-0.4987,-0.4987,-0.5003,-0.5068,-0.523,-0.5474,-0.6067,-0.7309,-0.8431,-0.9199,-1.0134,-1.1232,-1.2565,-1.2531,-1.2236,-1.1925,-1.1646,-1.1392,-1.1303,-1.1625,-1.1682,-1.1524,-1.2005,-1.165,-1.0393,-1.0438,-1.0214,-0.9659,-0.9573,-0.9372,-0.9109,-0.9472,-0.9893,-1.0364,-1.1551,-1.2677,-1.374,-1.5028,-1.6199,-1.7311,-1.8935,-2.0106,-2.0911,-2.113,-2.1408,-2.1745,-2.2067,-2.2184,-2.2169,-2.2052,-2.195,-2.1745,-2.1086,-2.0735,-2.0413,-1.9652,-1.936,-1.9125,-1.8467,-1.813,-1.7794,-1.7033,-1.6696,-1.6374,-1.5731,-1.5752,-1.5899,-1.5568,-1.5842,0.0,0.0,0.0,0.0,0.0,0.0,0.0,0.0,0.0,0.0,0.0,0.0,0.0,0.0,0.0,0.0,0.0,-2.6774,0.0,-2.8909,-3.0106,-3.0691,-3.0236,-3.05,-3.1029,-3.1963,-3.1963,-3.2218,-3.2727,-3.2218,-3.2218,-3.2727,-3.2218,-3.2218,-3.2727,-3.3631,-3.3505,-3.2727,-3.3253,-3.2441,-3.0947,-3.0944,-3.116,-3.1608,-3.3761,-3.4827,-3.5374,-0.5182,-0.5182,-0.5182,-0.5182,-0.5433,-0.5815,-0.6416,-0.7466,-0.847,-0.9144,-0.992,-1.0886,-1.2088,-1.1875,-1.1567,-1.1484,-1.1198,-1.1189,-1.16,-1.1682,-1.1734,-1.1982,-1.2182,-1.1611,-1.0315,-1.0565,-1.0393,-0.9762,-0.9806,-0.9618,-0.9272,-0.9632,-1.0123,-1.0653,-1.192,-1.3086,-1.4307,-1.5384,-1.6577,-1.7819,-1.9735,-2.0969,-2.1569,-2.1672,-2.1847,-2.2067,-2.2389,-2.252,-2.2491,-2.2374,-2.2345,-2.2242,-2.1715,-2.1481,-2.1262,-2.0633,-2.0281,-1.9989,-1.9447,-1.8979,-1.8525,-1.7984,-1.7604,-1.7238,-1.6711,-1.6506,-1.633,-1.6009,-1.6004,0.0,0.0,0.0,0.0,0.0,0.0,0.0,0.0,-1.4137,0.0,0.0,0.0,0.0,0.0,0.0,0.0,0.0,0.0,0.0,0.0,-2.8116,-2.862,-2.841,-2.8535,-2.9042,-3.0059,-3.0089,-3.0401,-3.0918,-3.0401,-3.0401,-3.0918,-3.0531,-3.066,-3.1176,-3.2072,-3.1944,-3.1176,-3.1433,-3.0549,-2.9053,-2.916,-2.934,-2.9951,-3.2191,-3.3291,-3.3845,-0.5297,-0.5313,-0.5329,-0.5361,-0.5839,-0.6416,-0.6966,-0.7577,-0.8219,-0.8763,-0.9145,-0.9892,-1.1171,-1.0526,-1.0408,-1.1539,-1.0837,-1.1141,-1.3193,-1.2079,-1.2063,-1.359,-1.2166,-1.0978,-1.0305,-1.0523,-1.0302,-0.9635,-0.9971,-0.9909,-0.9425,-0.9895,-1.0376,-1.0955,-1.2251,-1.3443,-1.466,-1.5503,-1.6907,-1.8597,-2.0477,-2.1628,-2.2242,-2.2535,-2.2652,-2.2681,-2.3003,-2.3106,-2.3062,-2.2754,-2.2652,-2.2593,-2.2301,-2.1993,-2.1745,-2.173,-2.1276,-2.072,-2.0398,-1.9842,-1.9286,-1.895,-1.8613,-1.8291,-1.7955,-1.7633,-1.7311,-1.7018,-1.6433,0.0,0.0,0.0,0.0,0.0,0.0,0.0,0.0,0.0,0.0,0.0,0.0,0.0,0.0,0.0,0.0,0.0,0.0,0.0,0.0,-2.5621,-2.5724,-2.5971,-2.5778,-2.6252,-2.7539,-2.79,-2.8723,-2.9995,-2.8723,-2.8723,-2.9995,-2.8969,-2.9361,-3.0513,-3.0642,-3.0642,-3.0384,-2.8854,-2.8328,-2.8493,-2.7566,-2.752,-2.8467,-3.0533,-3.2333,-3.3707,-0.5321,-0.5571,-0.5872,-0.627,-0.6448,-0.6725,-0.7261,-0.7845,-0.8414,-0.8958,-0.934,-0.9846,-1.0548,-1.051,-1.0716,-1.1251,-1.106,-1.1114,-1.1643,-1.201,-1.1907,-1.1304,-1.1984,-1.1803,-1.0581,-1.131,-1.1295,-1.0513,-1.0676,-1.0411,-0.9637,-0.9919,-1.0227,-1.0606,-1.2068,-1.3341,-1.443,-1.5602,-1.719,-1.9203,-2.063,-2.1579,-2.2184,-2.2733,-2.2988,-2.2988,-2.3076,-2.3106,-2.3091,-2.3018,-2.2988,-2.293,-2.2608,-2.2447,-2.2345,-2.2125,-2.1935,-2.173,-2.1408,-2.1028,-2.0574,-2.0003,-1.9623,-1.9301,-1.8979,-1.8642,-1.8394,-1.8306,-1.7589,0.0,0.0,0.0,0.0,0.0,0.0,0.0,0.0,0.0,0.0,0.0,0.0,0.0,0.0,0.0,0.0,0.0,0.0,0.0,0.0,0.0,-2.4715,-2.4589,-2.4774,-2.5237,-2.6137,-2.6479,-2.6784,-2.7169,-2.6784,-2.6784,-2.7169,-2.6918,-2.6918,-2.7302,-2.846,-2.8328,-2.7302,-2.7949,-2.7684,-2.6816,-2.6769,-2.7262,-2.7974,-2.8964,-3.0376,-3.1632,-0.562,-0.5937,-0.64,-0.6936,-0.722,-0.7488,-0.7789,-0.8227,-0.8714,-0.9259,-0.964,-1.0038,-1.0501,-1.0704,-1.0923,-1.12,-1.1224,-1.1413,-1.1872,-1.1855,-1.1724,-1.1437,-1.176,-1.1355,-1.028,-1.1049,-1.1187,-1.0762,-1.0707,-1.052,-1.0261,-1.0167,-1.0383,-1.087,-1.2122,-1.3341,-1.4435,-1.6206,-1.797,-1.9626,-2.09,-2.1775,0.0,-2.2783,-2.2856,-2.2856,-2.2731,-2.2856,-2.3106,-2.3106,-2.2981,-2.2827,-2.2777,-2.2595,-2.2428,-2.2515,-2.2369,-2.2089,-2.2154,-2.1774,-2.1335,-2.0969,-2.0633,-2.0355,-2.0164,-1.9755,-1.9418,-1.9418,-1.8642,-1.7969,0.0,0.0,0.0,0.0,0.0,0.0,0.0,0.0,0.0,0.0,0.0,0.0,0.0,0.0,0.0,0.0,0.0,0.0,0.0,0.0,-2.3566,-2.3606,-2.4094,-2.4565,-2.4889,-2.5353,-2.5592,-2.5592,-2.5592,-2.5592,-2.5727,-2.5861,-2.5876,-2.5861,-2.6784,-2.6651,-2.5861,-2.6635,-2.6517,-2.5922,-2.6664,-2.7076,-2.7347,-2.7946,-2.8835,-2.9822,-0.6091,-0.6473,-0.6985,-0.7496,-0.8016,-0.8381,-0.8455,-0.8731,-0.9112,-0.9632,-1.0006,-1.0371,-1.072,-1.0948,-1.1143,-1.1313,-1.1346,-1.182,-1.2855,-1.1936,-1.1744,-1.257,-1.1458,-1.0558,-1.0038,-1.0511,-1.076,-1.0889,-1.0661,-1.0777,-1.1156,-1.0608,-1.0685,-1.1409,-1.2326,-1.3475,-1.4783,-1.7127,-1.8713,-1.9835,-2.1109,-2.1968,-2.248,-2.248,-2.248,-2.248,-2.223,-2.248,-2.2981,-2.2981,-2.2731,-2.2606,-2.2856,-2.2606,-2.223,-2.2856,-2.2544,-2.219,-2.2559,-2.2137,-2.1818,-2.1818,-2.1569,-2.1335,-2.1335,-2.0754,-2.0317,-2.0317,-1.9546,-1.8979,-1.8979,0.0,0.0,0.0,0.0,0.0,0.0,0.0,0.0,0.0,0.0,0.0,0.0,0.0,0.0,0.0,0.0,0.0,0.0,0.0,-2.2403,-2.3018,-2.3676,-2.4042,-2.4086,-2.4686,-2.5022,-2.5052,-2.5052,-2.5052,-2.5052,-2.5457,-2.5457,-2.5457,-2.5457,-2.5457,-2.5472,-2.5187,-2.5352,-2.5726,-2.6601,-2.6748,-2.6728,-2.7341,-2.771,-2.813,-0.6993,-0.7301,-0.7691,-0.8081,-0.8471,-0.8877,-0.9324,-0.9445,-0.9624,-1.0014,-1.0379,-1.0737,-1.1094,-1.1435,-1.1703,-1.1874,-1.2028,-1.2242,-1.2358,-1.2242,-1.216,-1.2092,-1.1651,-1.1175,-1.0785,-1.1061,-1.1434,-1.1847,-1.177,-1.1871,-1.2064,-1.1717,-1.168,-1.1827,-1.2728,-1.4193,-1.6074,-1.7382,-1.8588,-1.9591,-2.0846,-2.1424,-2.1866,-2.2104,-2.223,-2.223,-2.2104,-2.223,-2.223,-2.223,-2.223,-2.223,-2.223,-2.223,-2.2104,-2.223,-2.2201,-2.2159,-2.252,-2.2371,-2.2097,-2.234,-2.2228,-2.2008,-2.1637,-2.1349,-2.0974,-2.0974,-2.0215,-1.9664,-1.9881,0.0,0.0,0.0,0.0,0.0,0.0,0.0,0.0,0.0,0.0,0.0,0.0,0.0,0.0,0.0,0.0,0.0,0.0,0.0,-2.2067,0.0,-2.334,-2.3808,0.0,0.0,-2.4788,-2.5052,-2.5052,-2.5052,-2.5052,-2.5187,-2.5187,-2.5187,-2.5187,-2.5187,-2.5187,-2.5052,-2.5213,-2.5628,-2.6011,-2.632,-2.6614,-2.6997,-2.7129,-2.7274,-0.7756,-0.7992,-0.8316,-0.8763,-0.9064,-0.9421,-0.9965,-1.0119,-1.0241,-1.0412,-1.0834,-1.1216,-1.1484,-1.1833,-1.2085,-1.2166,-1.2255,-1.2304,-1.2304,-1.2304,-1.2264,-1.2174,-1.1833,-1.1476,-1.111,-1.0915,-1.106,-1.15,-1.1647,-1.1862,-1.2192,-1.2306,-1.2412,-1.2612,-1.3814,-1.515,-1.658,-1.7769,-1.8784,-1.9653,-2.074,-2.1341,-2.1614,-2.174,-2.1853,-2.1853,-2.1614,-2.1614,-2.1614,-2.1978,-2.1978,-2.1853,-2.2104,-2.1866,-2.1614,-2.1978,-2.1978,-2.1853,-2.223,-2.2242,-2.2128,-2.2253,-2.2276,-2.2053,-2.1916,-2.1675,-2.1463,-2.1463,-2.0723,-2.0146,-1.9996,-1.975,0.0,0.0,0.0,0.0,0.0,0.0,0.0,0.0,0.0,0.0,0.0,0.0,0.0,0.0,0.0,0.0,0.0,0.0,-2.1979,0.0,0.0,0.0,-2.4086,0.0,-2.473,-2.5052,-2.5052,-2.5052,-2.5052,-2.5052,-2.5052,-2.5052,-2.5052,-2.5052,-2.5052,-2.5052,-2.5242,-2.5564,-2.5886,-2.6208,-2.6544,-2.6866,-2.6983,-2.6998,-0.8479,-0.8666,-0.895,-0.9437,-0.9673,-0.9879,-1.0517,-1.0753,-1.0867,-1.0867,-1.1273,-1.1638,-1.1866,-1.2174,-1.2361,-1.2361,-1.2393,-1.2418,-1.2418,-1.2418,-1.2418,-1.2418,-1.2117,-1.1768,-1.1403,-1.0875,-1.078,-1.1244,-1.1338,-1.1575,-1.204,-1.2628,-1.3147,-1.3734,-1.5017,-1.6072,-1.6967,-1.817,-1.9118,-1.9853,-2.0753,-2.1284,-2.1488,-2.1488,-2.1488,-2.1488,-2.1235,-2.1109,-2.1235,-2.174,-2.174,-2.1488,-2.1866,-2.1488,-2.1235,-2.174,-2.174,-2.1614,-2.1853,-2.1978,-2.1992,-2.2104,-2.2104,-2.2104,-2.1992,-2.1797,-2.1616,-2.1616,-2.1185,-2.0662,-2.0033,-2.0212,0.0,0.0,0.0,0.0,0.0,0.0,0.0,0.0,0.0,0.0,0.0,0.0,0.0,0.0,0.0,0.0,0.0,0.0,0.0,0.0,0.0,-2.3676,-2.4086,0.0,-2.4657,-2.5052,-2.5052,-2.5052,-2.5052,-2.5052,-2.5052,-2.5052,-2.5052,-2.5052,-2.5052,-2.5052,-2.5286,-2.5652,-2.5915,-2.6266,-2.6632,-2.6896,-2.6983,-2.6983,-0.9218,-0.9212,-0.9351,-1.0022,-1.0023,-1.0201,-1.1062,-1.1305,-1.1427,-1.1427,-1.1614,-1.1882,-1.2223,-1.2426,-1.254,-1.254,-1.2694,-1.2791,-1.2791,-1.2791,-1.2791,-1.2791,-1.2596,-1.232,-1.1963,-1.1427,-1.1414,-1.2098,-1.1391,-1.1333,-1.1898,-1.2649,-1.3749,-1.5217,-1.5899,-1.6673,-1.7582,-1.8771,-1.9479,-1.988,-2.0722,-2.1082,-2.1109,-2.1109,-2.1109,-2.1109,-2.1109,-2.1109,-2.1109,-2.1109,-2.1109,-2.1109,-2.1235,-2.1109,-2.1109,-2.1235,-2.1109,-2.1235,-2.1614,-2.1614,-2.174,-2.1978,-2.2104,-2.1978,-2.174,-2.1587,-2.1573,-2.1573,-2.1548,-2.1362,-2.0718,-2.084,-2.0872,0.0,0.0,0.0,0.0,0.0,0.0,0.0,0.0,0.0,0.0,0.0,0.0,0.0,0.0,0.0,0.0,0.0,0.0,-2.2198,-2.2828,-2.3457,-2.4071,-2.4115,-2.4437,-2.5052,-2.5052,-2.5052,-2.5052,-2.5052,-2.5052,-2.5052,-2.5052,-2.5052,-2.5052,-2.5052,-2.5418,-2.5974,-2.6003,-2.6398,-2.6954,-2.6983,-2.6983,-2.6983,-0.8303,-0.8909,-0.9587,-1.0256,-1.0453,-1.0705,-1.1492,-1.1703,-1.1898,-1.2109,-1.2199,-1.2304,-1.2442,-1.2621,-1.2726,-1.2726,-1.2791,-1.284,-1.284,-1.284,-1.284,-1.284,-1.2661,-1.245,-1.2199,-1.1663,-1.1446,-1.1518,-1.1608,-1.1596,-1.1599,-1.2436,-1.3273,-1.4028,-1.5466,-1.6474,-1.7302,-1.8918,-1.9893,-2.0374,-2.0895,-2.1109,-2.1109,-2.1109,-2.1109,-2.1109,-2.1109,-2.1109,-2.1109,-2.1109,-2.1109,-2.1109,-2.1109,-2.1109,-2.1109,-2.1109,-2.1109,-2.1109,-2.1235,-2.1362,-2.1362,-2.1488,-2.1488,-2.1488,-2.1362,-2.1362,-2.1362,-2.1362,-2.1519,-2.1424,-2.0997,-2.1157,-2.13,-2.0886,0.0,0.0,0.0,0.0,0.0,0.0,0.0,0.0,0.0,0.0,0.0,0.0,0.0,0.0,0.0,0.0,0.0,-2.2169,0.0,-2.3427,-2.4071,-2.4086,-2.4408,-2.5052,-2.5052,-2.5052,-2.5052,-2.5052,-2.5052,-2.5052,-2.5052,-2.5052,-2.5052,-2.5052,-2.5432,-2.6018,-2.6018,-2.6413,-2.6983,-2.6983,-2.6983,-2.6983,-0.7743,-0.8446,-0.9335,-1.0401,-1.0794,-1.1105,-1.1701,-1.1985,-1.2296,-1.2605,-1.2645,-1.2645,-1.2645,-1.2759,-1.284,-1.284,-1.284,-1.284,-1.284,-1.284,-1.284,-1.284,-1.271,-1.2564,-1.2385,-1.1955,-1.1565,-1.1208,-1.1603,-1.1557,-1.1199,-1.2124,-1.2892,-1.3562,-1.4928,-1.6163,-1.7322,-1.8835,-1.9929,-2.0695,-2.0989,-2.1109,-2.1109,-2.1109,-2.1109,-2.1109,-2.1109,-2.1109,-2.1109,-2.1109,-2.1109,-2.1109,-2.1109,-2.1109,-2.1109,-2.1109,-2.1109,-2.1109,-2.1109,-2.1109,-2.1109,-2.1109,-2.1109,-2.1109,-2.1109,-2.1109,-2.1109,-2.1109,-2.1235,-2.142,-2.1078,-2.141,-2.1465,-2.1257,0.0,0.0,0.0,-2.1217,0.0,0.0,-2.0583,-2.0259,-1.9517,0.0,0.0,0.0,0.0,0.0,0.0,0.0,0.0,0.0,0.0,0.0,-2.4071,-2.4174,-2.451,-2.5052,-2.5052,-2.5052,-2.5052,-2.5052,-2.5052,-2.5052,-2.5052,-2.5052,-2.5066,-2.5154,-2.552,-2.6032,-2.612,-2.65,-2.6983,-2.6983,-2.6983,-2.6983,-0.8014,-0.8072,-0.8549,-1.0566,-1.1031,-1.1268,-1.1857,-1.2298,-1.2621,-1.2808,-1.2832,-1.2832,-1.2832,-1.2832,-1.284,-1.284,-1.284,-1.284,-1.284,-1.284,-1.284,-1.284,-1.2832,-1.2751,-1.2564,-1.2385,-1.2125,-1.1768,-1.1395,-1.1084,-1.0786,-1.1668,-1.2874,-1.4509,-1.474,-1.5931,-1.7757,-1.8408,-1.9399,-2.0695,-2.0989,-2.1109,-2.1109,-2.1109,-2.1109,-2.1109,-2.1109,-2.1109,-2.1109,-2.1109,-2.1109,-2.1109,-2.1109,-2.1109,-2.1109,-2.1109,-2.1109,-2.1109,-2.1109,-2.1109,-2.1109,-2.1109,-2.1109,-2.1109,-2.1109,-2.1109,-2.1109,-2.1109,-2.1109,-2.1109,-2.1109,-2.1348,-2.1475,-2.1096,-2.1341,0.0,0.0,-2.1133,0.0,-2.0746,-2.0968,-2.083,-1.9775,0.0,0.0,0.0,0.0,0.0,0.0,0.0,0.0,-2.2169,-2.3106,0.0,-2.4086,-2.4408,-2.473,-2.5052,-2.5052,-2.5052,-2.5052,-2.5052,-2.5052,-2.5052,-2.5052,-2.5052,-2.5081,-2.5403,-2.5725,-2.6047,-2.6369,-2.6705,-2.6983,-2.6983,-2.6983,-2.6983,-0.649,-0.7373,-0.8547,-1.0531,-1.1173,-1.1539,-1.1895,-1.2409,-1.2775,-1.2832,-1.284,-1.284,-1.284,-1.284,-1.284,-1.284,-1.284,-1.284,-1.284,-1.284,-1.284,-1.284,-1.284,-1.2808,-1.2751,-1.2572,-1.2369,-1.2134,-1.189,-1.1684,-1.1519,-1.1793,-1.2258,-1.2853,-1.375,-1.4739,-1.5648,-1.6686,-1.8116,-1.9435,-1.8617,-1.8908,-1.9559,-1.8652,-1.8908,-1.9559,-1.8652,-1.8908,-1.9686,-1.9686,-1.9686,-1.9814,-2.0856,-2.1109,-2.1109,-2.1109,-2.1109,-2.1109,-2.1109,-2.1109,-2.1109,-2.1109,-2.1109,-2.1109,-2.1109,-2.1109,-2.1109,-2.1109,-2.1109,-2.1109,-2.1109,-2.1235,-2.1235,-2.1109,-2.1407,-2.1589,-2.1464,0.0,-2.1698,-2.139,-2.1362,-2.1202,0.0,-2.0743,0.0,0.0,0.0,0.0,0.0,0.0,0.0,0.0,-2.3208,0.0,-2.4086,-2.4408,-2.473,-2.5052,-2.5052,-2.5052,-2.5052,-2.5052,-2.5052,-2.5052,-2.5052,-2.5052,-2.5081,-2.5403,-2.5725,-2.6047,-2.6383,-2.6705,-2.6983,-2.6983,-2.6983,-2.6983,-0.51,-0.6519,-0.7954,-0.9632,-1.0904,-1.175,-1.1881,-1.2366,-1.284,-1.284,-1.284,-1.284,-1.284,-1.284,-1.284,-1.284,-1.284,-1.284,-1.284,-1.284,-1.284,-1.284,-1.284,-1.284,-1.284,-1.2726,-1.258,-1.2402,-1.2223,-1.2077,-1.1979,-1.1979,-1.2069,-1.2231,-1.31,-1.3897,-1.4704,-1.5603,-1.684,-1.8139,-1.7367,-1.7496,-1.8139,-1.7367,-1.7496,-1.8139,-1.7367,-1.7496,-1.8267,-1.8267,-1.8267,-1.8396,-1.9304,-1.9559,-1.9814,-2.0856,-2.1109,-2.1109,-2.1109,-2.1109,-2.1109,-2.1109,-2.1109,-2.1109,-2.1109,-2.1109,-2.1109,-2.1109,-2.1109,-2.1109,-2.1109,-2.1109,-2.1109,-2.1109,-2.1235,-2.1362,-2.1362,-2.1614,-2.1658,0.0,0.0,0.0,0.0,-2.1202,-2.1398,0.0,0.0,0.0,0.0,0.0,-2.2432,-2.2623,-2.3369,-2.3881,-2.4086,-2.4525,-2.4847,-2.5052,-2.5052,-2.5052,-2.5052,-2.5052,-2.5052,-2.5052,-2.5052,-2.5125,-2.5257,-2.5579,-2.59,-2.6237,-2.6559,-2.6808,-2.6983,-2.6983,-2.6983,-2.6983,-0.4076,-0.5398,-0.6736,-0.8291,-1.0306,-1.1644,-1.1776,-1.2312,-1.27,-1.27,-1.27,-1.2708,-1.2708,-1.2708,-1.2708,-1.284,-1.284,-1.284,-1.284,-1.284,-1.284,-1.284,-1.284,-1.284,-1.284,-1.284,-1.2751,-1.258,-1.2426,-1.2345,-1.2345,-1.2345,-1.2426,-1.258,-1.258,-1.3449,-1.4782,-1.4782,-1.5554,-1.685,-1.6721,-1.6732,-1.6872,-1.6742,-1.6753,-1.6893,-1.6764,-1.6753,-1.6872,-1.6872,-1.6861,-1.685,-1.698,-1.698,-1.7496,-2.0068,-2.0856,-2.0982,-2.0982,-2.0982,-2.1109,-2.0982,-2.0982,-2.0982,-2.1109,-2.0982,-2.0982,-2.0982,-2.0856,-2.0843,-2.0982,-2.0982,-2.0982,-2.1109,-2.1109,-2.1109,-2.1109,-2.1109,-2.1109,-2.1109,0.0,0.0,-2.1094,-2.1437,-2.168,0.0,0.0,0.0,0.0,0.0,-2.271,-2.2696,-2.3588,-2.4101,-2.4115,-2.4744,-2.5052,-2.5052,-2.5052,-2.5052,-2.5052,-2.5052,-2.5052,-2.5052,-2.5052,-2.5242,-2.5549,-2.5886,-2.6208,-2.653,-2.6866,-2.6983,-2.6983,-2.6983,-2.6983,-2.6983,-0.4011,-0.4545,-0.5615,-0.8169,-0.9238,-1.0041,-1.1247,-1.1776,-1.2041,-1.2041,-1.2041,-1.2173,-1.2437,-1.2444,-1.2576,-1.2832,-1.284,-1.284,-1.284,-1.284,-1.284,-1.284,-1.284,-1.284,-1.284,-1.284,-1.2816,-1.2775,-1.2735,-1.271,-1.271,-1.271,-1.2735,-1.2775,-1.2775,-1.2923,-1.3358,-1.3358,-1.4137,-1.5294,-1.4259,-1.4481,-1.5536,-1.4476,-1.4709,-1.5644,-1.4576,-1.4879,-1.5658,-1.5658,-1.5561,-1.5554,-1.6721,-1.698,-1.7109,-1.7753,-1.8652,-1.9559,-1.9559,-2.0335,-2.0843,-1.9814,-1.9559,-1.9814,-2.0856,-2.0335,-1.9559,-1.9559,-1.8652,-1.8267,-1.9291,-1.9559,-1.9814,-2.0982,-2.1109,-2.1109,-2.1109,-2.1109,-2.1109,-2.1109,-2.1109,-2.1209,-2.1141,-2.1379,-2.1603,0.0,0.0,-2.261,-2.299,-2.322,-2.3362,-2.3369,-2.3837,-2.4203,-2.4452,-2.4847,-2.5052,-2.5052,-2.5052,-2.5052,-2.5052,-2.5052,-2.5052,-2.5052,-2.5052,-2.5242,-2.5549,-2.5886,-2.6208,-2.653,-2.6866,-2.6983,-2.6983,-2.6983,-2.6983,-2.6983,-0.3228,-0.39,-0.4967,-0.7236,-0.8435,-0.9637,-1.0982,-1.1512,-1.1776,-1.1776,-1.1776,-1.1916,-1.2041,-1.2048,-1.218,-1.2568,-1.2708,-1.284,-1.284,-1.284,-1.284,-1.284,-1.284,-1.284,-1.284,-1.284,-1.284,-1.284,-1.284,-1.284,-1.284,-1.284,-1.284,-1.284,-1.284,-1.284,-1.284,-1.284,-1.3269,-1.3998,-1.3211,-1.3453,-1.4288,-1.3485,-1.3823,-1.4446,-1.3642,-1.3849,-1.4423,-1.4423,-1.429,-1.4262,-1.4913,-1.5109,-1.5043,-1.5043,-1.6462,-1.8139,-1.8139,-1.8652,-1.9036,-1.8267,-1.8139,-1.8267,-1.9036,-1.8652,-1.8139,-1.8139,-1.7496,-1.7238,-1.8011,-1.8139,-1.8524,-1.9941,-2.0195,-2.0374,-2.1168,-2.1309,-2.1363,-2.1496,-2.151,-2.151,-2.151,-2.1639,-2.1896,-2.2025,-2.2305,0.0,-2.3035,-2.319,-2.3479,-2.3823,-2.413,-2.4393,-2.4569,-2.4891,-2.5052,-2.5052,-2.5052,-2.5052,-2.5052,-2.5052,-2.5052,-2.5066,-2.5213,-2.5461,-2.5783,-2.6105,-2.6427,-2.6749,-2.6925,-2.6983,-2.6983,-2.6983,-2.6983,-2.6983,-0.2155,-0.3228,-0.4434,-0.59,-0.7365,-0.8972,-1.0578,-1.1115,-1.138,-1.1644,-1.1644,-1.1652,-1.1652,-1.1652,-1.1909,-1.2173,-1.2568,-1.2708,-1.284,-1.284,-1.284,-1.284,-1.284,-1.284,-1.284,-1.284,-1.284,-1.284,-1.284,-1.284,-1.284,-1.284,-1.284,-1.284,-1.284,-1.2848,-1.2873,-1.2873,-1.2978,-1.3133,-1.3133,-1.3246,-1.3417,-1.3417,-1.3425,-1.3449,-1.3449,-1.3433,-1.3417,-1.3417,-1.3287,-1.3133,-1.3133,-1.3035,-1.2921,-1.2921,-1.4594,-1.6504,-1.6602,-1.6721,-1.6721,-1.698,-1.685,-1.6721,-1.698,-1.685,-1.6721,-1.6721,-1.6462,-1.6462,-1.6592,-1.6721,-1.7109,-1.8524,-1.8688,-1.9309,-2.0993,-2.1331,-2.145,-2.1951,-2.1991,-2.1991,-2.1991,-2.1991,-2.2109,-2.2372,-2.2413,-2.2704,-2.2967,-2.3008,-2.3431,-2.4101,-2.432,-2.4465,-2.4642,-2.492,-2.5052,-2.5052,-2.5052,-2.5052,-2.5052,-2.5052,-2.5081,-2.514,-2.5418,-2.574,-2.6105,-2.6383,-2.6691,-2.6983,-2.6983,-2.6983,-2.6983,-2.6983,-2.6983,-2.6983,-0.2155,-0.2423,-0.2959,-0.4434,-0.4836,-0.5904,-0.8573,-0.9105,-0.951,-1.0717,-1.085,-1.0982,-1.1247,-1.1247,-1.1512,-1.1776,-1.2173,-1.2444,-1.2832,-1.284,-1.284,-1.284,-1.284,-1.284,-1.284,-1.284,-1.284,-1.284,-1.284,-1.284,-1.284,-1.284,-1.284,-1.284,-1.284,-1.2921,-1.3051,-1.3051,-1.3157,-1.3327,-1.3327,-1.3441,-1.3604,-1.3604,-1.3693,-1.3815,-1.3815,-1.3725,-1.3604,-1.3604,-1.3482,-1.3327,-1.3327,-1.3311,-1.3287,-1.3287,-1.3443,-1.3944,-1.495,-1.5173,-1.5554,-1.6721,-1.6073,-1.5554,-1.6721,-1.6073,-1.5173,-1.5173,-1.4259,-1.3875,-1.5043,-1.5173,-1.5684,-1.7109,-1.7402,-1.808,-1.9565,-1.9903,-2.0605,-2.1846,-2.1991,-2.1991,-2.1991,-2.1991,-2.1991,-2.2123,-2.2351,-2.2619,-2.302,-2.3268,-2.3541,-2.3947,-2.3736,-2.3884,-2.4559,-2.4887,-2.5052,-2.5052,-2.5052,-2.5052,-2.5052,-2.5052,-2.5198,-2.5461,-2.5505,-2.5871,-2.6427,-2.6486,-2.6691,-2.6983,-2.6983,-2.6983,-2.6983,-2.6983,-2.6983,-2.6983,-0.2155,-0.2155,-0.2692,-0.4031,-0.43,-0.4967,-0.7102,-0.8041,-0.8839,-0.951,-1.018,-1.0717,-1.085,-1.0982,-1.1115,-1.138,-1.1644,-1.1909,-1.2173,-1.2576,-1.284,-1.284,-1.284,-1.284,-1.284,-1.284,-1.284,-1.284,-1.284,-1.284,-1.284,-1.2929,-1.2978,-1.2978,-1.3084,-1.3165,-1.3246,-1.3246,-1.3352,-1.3514,-1.3514,-1.3628,-1.3782,-1.3782,-1.3831,-1.3904,-1.3904,-1.3847,-1.3782,-1.3782,-1.3669,-1.3514,-1.3514,-1.3449,-1.3368,-1.3368,-1.3238,-1.3185,-1.3664,-1.3744,-1.3875,-1.452,-1.4259,-1.4033,-1.479,-1.4422,-1.3918,-1.4031,-1.3436,-1.3103,-1.3759,-1.3892,-1.4412,-1.5853,-1.6175,-1.6758,-1.8362,-1.8755,-1.9422,-2.1069,-2.123,-2.1636,-2.2458,-2.2458,-2.2458,-2.2458,-2.2579,-2.2795,-2.293,-2.3065,-2.327,-2.3406,-2.3826,-2.4217,-2.4495,-2.4916,-2.5052,-2.5052,-2.5052,-2.5052,-2.5052,-2.5052,-2.5227,-2.5535,-2.571,-2.6061,-2.6515,-2.6691,-2.6852,-2.6983,-2.6983,-2.6983,-2.6983,-2.6983,-2.6983,-2.6983,-0.2155,-0.2155,-0.2558,-0.3631,-0.3765,-0.43,-0.5633,-0.6836,-0.7907,-0.8573,-0.951,-1.0319,-1.0717,-1.0717,-1.085,-1.1115,-1.1115,-1.138,-1.1644,-1.2173,-1.2576,-1.27,-1.2708,-1.284,-1.284,-1.284,-1.2856,-1.2897,-1.2897,-1.2921,-1.2962,-1.3092,-1.3157,-1.3165,-1.3303,-1.3392,-1.3433,-1.3433,-1.3539,-1.3701,-1.3701,-1.3782,-1.3904,-1.3904,-1.3904,-1.3904,-1.3904,-1.3904,-1.3904,-1.3904,-1.3815,-1.3701,-1.3701,-1.3604,-1.3498,-1.3498,-1.336,-1.3181,-1.3011,-1.2962,-1.2962,-1.2962,-1.2962,-1.2994,-1.3124,-1.3157,-1.3197,-1.3344,-1.3222,-1.3108,-1.3149,-1.3124,-1.3503,-1.4611,-1.4928,-1.5522,-1.7179,-1.7527,-1.8186,-1.99,-2.0063,-2.0629,-2.216,-2.2297,-2.2448,-2.2859,-2.2859,-2.2859,-2.2859,-2.2859,-2.2859,-2.2859,-2.3816,-2.4224,-2.4224,-2.4781,-2.4916,-2.4916,-2.5052,-2.5052,-2.5066,-2.5125,-2.5344,-2.5652,-2.5988,-2.631,-2.6632,-2.6881,-2.6983,-2.6983,-2.6983,-2.6983,-2.6983,-2.6983,-2.6983,-2.6983,-0.2155,-0.2155,-0.229,-0.2289,-0.2289,-0.2827,-0.43,-0.4568,-0.5637,-0.8307,-0.8706,-0.9244,-1.0585,-1.0717,-1.0717,-1.0717,-1.0982,-1.1247,-1.1247,-1.1644,-1.2048,-1.2312,-1.2568,-1.284,-1.284,-1.284,-1.2913,-1.3076,-1.3076,-1.3165,-1.3336,-1.3344,-1.3352,-1.3352,-1.3368,-1.3465,-1.362,-1.362,-1.3725,-1.388,-1.388,-1.3888,-1.3904,-1.3904,-1.3904,-1.3904,-1.3904,-1.3904,-1.3904,-1.3904,-1.3896,-1.388,-1.388,-1.3872,-1.3863,-1.3863,-1.3742,-1.3563,-1.3384,-1.3336,-1.3336,-1.3336,-1.3336,-1.3336,-1.3344,-1.3352,-1.3352,-1.3368,-1.3222,-1.3149,-1.3319,-1.3206,-1.3149,-1.3456,-1.3636,-1.4318,-1.5838,-1.6139,-1.6836,-1.8379,-1.8519,-1.9089,-2.0629,-2.0768,-2.1333,-2.2722,-2.2859,-2.2859,-2.2859,-2.2859,-2.2859,-2.2859,-2.327,-2.3543,-2.3543,-2.4224,-2.451,-2.4495,-2.4916,-2.5052,-2.5066,-2.5359,-2.5666,-2.6003,-2.6325,-2.6647,-2.6954,-2.6983,-2.6983,-2.6983,-2.6983,-2.6983,-2.6983,-2.6983,-2.6983,-2.6983,-0.2155,-0.2155,-0.2155,-0.2155,-0.2155,-0.2423,-0.2959,-0.3765,-0.4702,-0.577,-0.6702,-0.7769,-0.9244,-0.9377,-0.9782,-1.0585,-1.085,-1.085,-1.085,-1.1247,-1.1644,-1.2305,-1.2539,-1.2728,-1.2994,-1.3108,-1.3197,-1.3271,-1.3271,-1.3303,-1.3376,-1.349,-1.3539,-1.3547,-1.3652,-1.3742,-1.3807,-1.3807,-1.3839,-1.3904,-1.3904,-1.3904,-1.3904,-1.3904,-1.3904,-1.3904,-1.3904,-1.3904,-1.3904,-1.3904,-1.3904,-1.3904,-1.3904,-1.3904,-1.3904,-1.3904,-1.3855,-1.379,-1.3717,-1.3539,-1.3368,-1.3368,-1.3368,-1.3401,-1.3514,-1.3539,-1.3571,-1.3677,-1.3555,-1.3457,-1.353,-1.3482,-1.3457,-1.353,-1.3685,-1.394,-1.4638,-1.4699,-1.531,-1.6846,-1.6987,-1.7549,-1.9089,-2.0063,-2.0906,-2.1471,-2.2297,-2.2859,-2.2859,-2.2859,-2.2859,-2.2859,-2.2996,-2.3133,-2.3406,-2.3952,-2.4224,-2.4224,-2.451,-2.4781,-2.4781,-2.4962,-2.5432,-2.6032,-2.6069,-2.6388,-2.6983,-2.6983,-2.6983,-2.6983,-2.6983,-2.6983,-2.6983,-2.6983,-2.6983,-2.6983,-0.2155,-0.2155,-0.2155,-0.2155,-0.2155,-0.2155,-0.2155,-0.2959,-0.3765,-0.43,-0.5101,-0.6301,-0.7769,-0.8307,-0.8972,-0.9915,-1.0452,-1.0717,-1.0717,-1.0982,-1.138,-1.2048,-1.2335,-1.2562,-1.2696,-1.3006,-1.3263,-1.3319,-1.3457,-1.3482,-1.3539,-1.3669,-1.3725,-1.3734,-1.3847,-1.3904,-1.3904,-1.3904,-1.3904,-1.3904,-1.3904,-1.3904,-1.3904,-1.3904,-1.3904,-1.3904,-1.3904,-1.3904,-1.3904,-1.3904,-1.3904,-1.3904,-1.3904,-1.3904,-1.3904,-1.3904,-1.3904,-1.3904,-1.3904,-1.3725,-1.3539,-1.3539,-1.3539,-1.3571,-1.3693,-1.3725,-1.3758,-1.388,-1.3766,-1.366,-1.3717,-1.3677,-1.366,-1.3717,-1.3823,-1.3904,-1.3904,-1.3904,-1.4324,-1.531,-1.5452,-1.6009,-1.7549,-1.853,-1.9367,-1.9924,-2.0906,-2.1734,-2.216,-2.2585,-2.2859,-2.2859,-2.2859,-2.2996,-2.327,-2.3679,-2.3816,-2.3816,-2.4224,-2.4417,-2.4516,-2.4829,-2.5297,-2.5754,-2.5927,-2.6344,-2.6838,-2.6983,-2.6983,-2.6983,-2.6983,-2.6983,-2.6983,-2.6983,-2.6983,-2.6983,-0.2155,-0.2155,-0.2155,-0.2155,-0.2155,-0.2155,-0.2155,-0.2155,-0.2692,-0.4166,-0.43,-0.4833,-0.6164,-0.7636,-0.8573,-0.8573,-0.9915,-1.0717,-1.0717,-1.0717,-1.0982,-1.1784,-1.194,-1.203,-1.203,-1.246,-1.2904,-1.3083,-1.3364,-1.3734,-1.3904,-1.3904,-1.3904,-1.3904,-1.3904,-1.3904,-1.3904,-1.3904,-1.3904,-1.3904,-1.3904,-1.3904,-1.3904,-1.3904,-1.3904,-1.3904,-1.3904,-1.3904,-1.3904,-1.3904,-1.3904,-1.3904,-1.3904,-1.3904,-1.3904,-1.3904,-1.3904,-1.3904,-1.3904,-1.3904,-1.3904,-1.3904,-1.3904,-1.3904,-1.3904,-1.3904,-1.3904,-1.3904,-1.3766,-1.3701,-1.3872,-1.3766,-1.3701,-1.3872,-1.3904,-1.3904,-1.3904,-1.3904,-1.3904,-1.3904,-1.3904,-1.4466,-1.5867,-1.615,-1.6715,-1.8239,-1.8379,-1.9089,-2.0491,-2.2022,-2.2859,-2.2859,-2.2859,-2.2859,-2.2859,-2.327,-2.3406,-2.3406,-2.3816,-2.412,-2.4428,-2.4736,-2.5044,-2.5352,-2.6111,-2.6385,-2.6399,-2.6838,-2.6983,-2.6983,-2.6983,-2.6983,-2.6983,-2.6983,-2.6983,-2.6983,-0.2155,-0.2155,-0.2155,-0.2155,-0.2155,-0.2155,-0.2155,-0.2155,-0.2289,-0.2827,-0.2827,-0.3362,-0.4833,-0.5369,-0.6034,-0.6969,-0.844,-0.9643,-1.0585,-1.0717,-1.085,-1.0982,-1.1504,-1.192,-1.2194,-1.261,-1.2775,-1.2828,-1.297,-1.3136,-1.3468,-1.3468,-1.3611,-1.3904,-1.3904,-1.3904,-1.3904,-1.3904,-1.3904,-1.3904,-1.3904,-1.3904,-1.3904,-1.3904,-1.3904,-1.3904,-1.3904,-1.3904,-1.3904,-1.3904,-1.3904,-1.3904,-1.3904,-1.3904,-1.3904,-1.3904,-1.3904,-1.3904,-1.3904,-1.3904,-1.3904,-1.3904,-1.3904,-1.3904,-1.3904,-1.3904,-1.3904,-1.3904,-1.3863,-1.3839,-1.3896,-1.3855,-1.3839,-1.3896,-1.3904,-1.3904,-1.3904,-1.3904,-1.3904,-1.3904,-1.3904,-1.4039,-1.4466,-1.5452,-1.6291,-1.6705,-1.783,-1.8519,-1.9089,-2.0479,-2.1321,-2.1321,-2.2297,-2.2859,-2.2859,-2.2996,-2.2996,-2.2996,-2.3406,-2.3708,-2.4011,-2.4327,-2.4773,-2.5352,-2.5528,-2.5667,-2.5946,-2.6093,-2.6399,-2.6546,-2.6546,-2.6692,-2.6983,-2.6983,-2.6983,-2.6983,-0.2155,-0.2155,-0.2155,-0.2155,-0.2155,-0.2155,-0.2155,-0.2155,-0.2155,-0.2155,-0.2155,-0.2558,-0.3362,-0.4031,-0.4702,-0.5499,-0.6836,-0.8307,-0.9782,-0.9915,-1.018,-1.0717,-1.1274,-1.1579,-1.1855,-1.2306,-1.2617,-1.2617,-1.2753,-1.2896,-1.3039,-1.3182,-1.3468,-1.3611,-1.3904,-1.3904,-1.3904,-1.3904,-1.3904,-1.3904,-1.3904,-1.3904,-1.3904,-1.3904,-1.3904,-1.3904,-1.3904,-1.3904,-1.3904,-1.3904,-1.3904,-1.3904,-1.3904,-1.3904,-1.3904,-1.3904,-1.3904,-1.3904,-1.3904,-1.3904,-1.3904,-1.3904,-1.3904,-1.3904,-1.3904,-1.3904,-1.3904,-1.3904,-1.3904,-1.3904,-1.3904,-1.3904,-1.3904,-1.3904,-1.3904,-1.3904,-1.3904,-1.3904,-1.3904,-1.3904,-1.3904,-1.3904,-1.3904,-1.475,-1.5168,-1.5168,-1.6564,-1.7549,-1.7549,-1.8949,-2.0063,-2.0629,-2.1459,-2.2297,-2.2859,-2.2859,-2.2859,-2.2859,-2.3255,-2.3471,-2.3923,-2.4093,-2.4521,-2.5098,-2.5144,-2.5373,-2.5506,-2.58,-2.5946,-2.6093,-2.6093,-2.6399,-2.6692,-2.6692,-2.6838,-2.6983,-0.2155,-0.2155,-0.2155,-0.2155,-0.2155,-0.2155,-0.2155,-0.2155,-0.2155,-0.2155,-0.2155,-0.2155,-0.2155,-0.3362,-0.4166,-0.4166,-0.5366,-0.6836,-0.8307,-0.844,-0.8978,-1.0332,-1.0736,-1.1027,-1.104,-1.1754,-1.2194,-1.2194,-1.2474,-1.2753,-1.2753,-1.3039,-1.3182,-1.3325,-1.3611,-1.3904,-1.3904,-1.3904,-1.3904,-1.3904,-1.3904,-1.3904,-1.3904,-1.3904,-1.3904,-1.3904,-1.3904,-1.3904,-1.3904,-1.3904,-1.3904,-1.3904,-1.3904,-1.3904,-1.3904,-1.3904,-1.3904,-1.3904,-1.3904,-1.3904,-1.3904,-1.3904,-1.3904,-1.3904,-1.3904,-1.3904,-1.3904,-1.3904,-1.3904,-1.3904,-1.3904,-1.3904,-1.3904,-1.3904,-1.3904,-1.3904,-1.3904,-1.3904,-1.3904,-1.3904,-1.3904,-1.3904,-1.3904,-1.3904,-1.3904,-1.3904,-1.5168,-1.5867,-1.5867,-1.7409,-1.8798,-2.0213,-2.0491,-2.1321,-2.2722,-2.2859,-2.2859,-2.2859,-2.318,-2.3487,-2.3781,-2.4075,-2.4369,-2.4636,-2.4931,-2.5092,-2.5226,-2.5506,-2.5653,-2.58,-2.58,-2.5946,-2.6399,-2.6399,-2.6546,-2.6838,-0.2155,-0.2155,-0.2155,-0.2155,-0.2155,-0.2155,-0.2155,-0.2155,-0.2155,-0.2155,-0.2155,-0.2155,-0.2155,-0.2423,-0.2692,-0.2692,-0.3897,-0.5369,-0.6836,-0.6836,-0.7,-0.7351,-0.8718,-0.9538,-0.949,-1.0947,-1.1763,-1.1763,-1.1763,-1.2051,-1.2338,-1.2338,-1.2617,-1.2896,-1.3325,-1.3468,-1.3468,-1.3753,-1.3904,-1.3904,-1.3904,-1.3904,-1.3904,-1.3904,-1.3904,-1.3904,-1.3904,-1.3904,-1.3904,-1.3904,-1.3904,-1.3904,-1.3904,-1.3904,-1.3904,-1.3904,-1.3904,-1.3904,-1.3904,-1.3904,-1.3904,-1.3904,-1.3904,-1.3904,-1.3904,-1.3904,-1.3904,-1.3904,-1.3904,-1.3904,-1.3904,-1.3904,-1.3904,-1.3904,-1.3904,-1.3904,-1.3904,-1.3904,-1.3904,-1.3904,-1.3904,-1.3904,-1.3904,-1.3904,-1.3904,-1.3904,-1.4181,-1.4324,-1.4324,-1.5726,-1.6715,-1.7137,-1.9367,-2.0768,-2.1044,-2.2297,-2.2859,-2.2859,-2.318,-2.3487,-2.3781,-2.4075,-2.4369,-2.4636,-2.4636,-2.4784,-2.4784,-2.4784,-2.5079,-2.5373,-2.5373,-2.552,-2.5946,-2.5946,-2.5946,-2.6093,-0.2155,-0.2155,-0.2155,-0.2155,-0.2155,-0.2155,-0.2155,-0.2155,-0.2155,-0.2155,-0.2155,-0.2155,-0.2155,-0.2155,-0.2155,-0.2155,-0.2827,-0.3897,-0.5366,-0.5366,-0.5669,-0.6429,-0.735,-0.7869,-0.7969,-0.8939,-1.0161,-1.1619,-1.1619,-1.1763,-1.1907,-1.2051,-1.2338,-1.2474,-1.2896,-1.3182,-1.3325,-1.3468,-1.3753,-1.3904,-1.3904,-1.3904,-1.3904,-1.3904,-1.3904,-1.3904,-1.3904,-1.3904,-1.3904,-1.3904,-1.3904,-1.3904,-1.3904,-1.3904,-1.3904,-1.3904,-1.3904,-1.3904,-1.3904,-1.3904,-1.3904,-1.3904,-1.3904,-1.3904,-1.3904,-1.3904,-1.3904,-1.3904,-1.3904,-1.3904,-1.3904,-1.3904,-1.3904,-1.3904,-1.3904,-1.3904,-1.3904,-1.3904,-1.3904,-1.3904,-1.3904,-1.3904,-1.3904,-1.3904,-1.3904,-1.3904,-1.3904,-1.3904,-1.3904,-1.4608,-1.531,-1.6009,-1.7689,-1.9089,-2.0629,-2.1471,-2.2238,-2.3086,-2.3394,-2.3688,-2.3981,-2.4275,-2.4489,-2.4636,-2.4636,-2.4636,-2.4636,-2.4636,-2.4784,-2.4931,-2.4931,-2.5226,-2.5506,-2.5506,-2.5653,-2.58,-0.2155,-0.2155,-0.2155,-0.2155,-0.2155,-0.2155,-0.2155,-0.2155,-0.2155,-0.2155,-0.2155,-0.2155,-0.2155,-0.2155,-0.2155,-0.2155,-0.2155,-0.2692,-0.39,-0.3907,-0.4476,-0.5769,-0.6125,-0.6348,-0.6294,-0.6789,-0.842,-1.1181,-1.1181,-1.1325,-1.1619,-1.1907,-1.2051,-1.2051,-1.2474,-1.2896,-1.3182,-1.3182,-1.3468,-1.3761,-1.3761,-1.3904,-1.3904,-1.3753,-1.3761,-1.3761,-1.3753,-1.3753,-1.3753,-1.3761,-1.3761,-1.3761,-1.3904,-1.3904,-1.3904,-1.3904,-1.3904,-1.3904,-1.3904,-1.3904,-1.3904,-1.3904,-1.3904,-1.3904,-1.3904,-1.3904,-1.3904,-1.3904,-1.3904,-1.3904,-1.3904,-1.3904,-1.3904,-1.3904,-1.3904,-1.3904,-1.3904,-1.3904,-1.3904,-1.3904,-1.3904,-1.3904,-1.3904,-1.3904,-1.3904,-1.3904,-1.3904,-1.3904,-1.3904,-1.3904,-1.4466,-1.5735,-1.6018,-1.7268,-1.9785,-2.04,-2.1406,-2.2972,-2.3559,-2.3968,-2.4209,-2.4502,-2.4636,-2.4636,-2.4636,-2.4636,-2.4636,-2.4636,-2.4636,-2.4636,-2.4636,-2.4784,-2.5079,-2.5079,-2.5373,-2.5653,-0.2155,-0.2155,-0.2155,-0.2155,-0.2155,-0.2155,-0.2155,-0.2155,-0.2155,-0.2155,-0.2155,-0.2155,-0.2155,-0.2155,-0.2155,-0.2155,-0.2155,-0.2289,-0.2423,-0.2451,-0.2619,-0.2794,-0.41,-0.4869,-0.4933,-0.6242,-0.7837,-0.9579,-0.9579,-1.0305,-1.1619,-1.1619,-1.1619,-1.1763,-1.2051,-1.2338,-1.2338,-1.276,-1.3039,-1.3325,-1.3325,-1.3611,-1.3904,-1.3468,-1.3325,-1.3325,-1.3039,-1.2896,-1.3039,-1.3325,-1.3325,-1.3468,-1.3761,-1.3904,-1.3904,-1.3904,-1.3904,-1.3904,-1.3904,-1.3904,-1.3904,-1.3904,-1.3904,-1.3904,-1.3904,-1.3904,-1.3904,-1.3904,-1.3904,-1.3904,-1.3904,-1.3904,-1.3904,-1.3904,-1.3904,-1.3904,-1.3904,-1.3904,-1.3904,-1.3904,-1.3904,-1.3904,-1.3904,-1.3904,-1.3904,-1.3904,-1.3904,-1.3904,-1.3904,-1.3904,-1.4047,-1.4181,-1.5452,-1.6291,-1.6715,-1.9583,-2.1254,-2.1808,-2.3406,-2.4168,-2.4209,-2.4502,-2.4636,-2.4636,-2.4636,-2.4636,-2.4636,-2.4636,-2.4636,-2.4636,-2.4636,-2.4636,-2.4636,-2.4636,-2.4784,-2.4784,-0.2155,-0.2155,-0.2155,-0.2155,-0.2155,-0.2155,-0.2155,-0.2155,-0.2155,-0.2155,-0.2155,-0.2155,-0.2155,-0.2155,-0.2155,-0.2155,-0.2155,-0.2162,-0.2178,-0.2192,-0.2221,-0.2268,-0.2995,-0.3307,-0.3348,-0.4075,-0.509,-0.6684,-0.842,-0.9579,-1.0305,-1.1181,-1.1619,-1.1619,-1.1763,-1.2051,-1.2194,-1.2338,-1.2617,-1.3039,-1.3039,-1.3182,-1.3325,-1.3039,-1.3039,-1.3039,-1.2896,-1.2753,-1.2753,-1.3039,-1.3039,-1.3039,-1.3182,-1.3468,-1.3611,-1.3611,-1.3753,-1.3904,-1.3904,-1.3904,-1.3904,-1.3904,-1.3904,-1.3904,-1.3904,-1.3904,-1.3904,-1.3904,-1.3904,-1.3904,-1.3904,-1.3904,-1.3904,-1.3904,-1.3904,-1.3904,-1.3904,-1.3904,-1.3904,-1.3904,-1.3904,-1.3904,-1.3904,-1.3904,-1.3904,-1.3904,-1.3904,-1.3904,-1.3904,-1.3904,-1.3904,-1.3904,-1.4466,-1.531,-1.615,-1.7633,-1.9437,-2.157,-2.2431,-2.34,-2.4449,-2.4583,-2.4636,-2.4636,-2.4636,-2.4636,-2.4636,-2.4636,-2.4636,-2.4636,-2.4636,-2.4636,-2.4636,-2.4636,-2.4636,-2.4636]}]]